[[{"header":{"parameterUnit":"m.s-1","parameterCategory":1,"la1":31.0,"la2":29.5877,"lo1":-88.7671,"lo2":-86.6584,"dy":0.0162,"dx":0.0185,"nx":115,"ny":88,"refTime":"2026-05-14T12:00:00:Z","depth":0,"parameterNumber":2,"parameterNumberName":"U-component_of_WINDS"},"data":[0.0,0.0,0.0,0.0,0.0,0.0,0.0,0.0,0.0,0.0,0.0,0.0,0.0,0.0,0.0,0.0,0.0,0.0,0.0,0.0,0.0,0.0,0.0,0.0,0.0,0.0,0.0,0.0,0.0,0.0,0.0,0.0,0.0,0.0,0.0,0.0,0.0,0.0,0.0,0.0,0.0,0.0,0.0,0.0,0.0,0.0,0.0,0.0,0.0,0.0,0.0,0.0,0.0,0.0,0.0,0.0,0.0,0.0,0.0,0.0,0.0,0.0,0.0,0.0,0.0,0.0,0.0,0.0,0.0,0.0,0.0,0.0,0.0,0.0,0.0,0.0,0.0,0.0,0.0,0.0,0.0,0.0,0.0,0.0,0.0,0.0,0.0,0.0,0.0,0.0,0.0,0.0,0.0,0.0,0.0,0.0,0.0,0.0,0.0,0.0,0.0,0.0,0.0,0.0,0.0,0.0,0.0,0.0,0.0,0.0,0.0,0.0,0.0,0.0,0.0,0.0,0.0,0.0,0.0,0.0,0.0,0.0,0.0,0.0,0.0,0.0,0.0,0.0,0.0,0.0,0.0,0.0,0.0,0.0,0.0,0.0,0.0,0.0,0.0,0.0,0.0,0.0,0.0,0.0,0.0,0.0,0.0,0.0,0.0,0.0,0.0,0.0,0.0,0.0,0.0,0.0,0.0,0.0,0.0,0.0,0.0,0.0,0.0,0.0,0.0,0.0,0.0,0.0,0.0,0.0,0.0,0.0,0.0,0.0,0.0,0.0,0.0,0.0,0.0,0.0,0.0,0.0,0.0,0.0,0.0,0.0,0.0,0.0,0.0,0.0,0.0,0.0,0.0,0.0,0.0,0.0,0.0,0.0,0.0,0.0,0.0,0.0,0.0,0.0,0.0,0.0,0.0,0.0,0.0,0.0,0.0,0.0,0.0,0.0,0.0,0.0,0.0,0.0,0.0,0.0,0.0,0.0,0.0,0.0,0.0,0.0,0.0,0.0,0.0,0.0,0.0,0.0,0.0,0.0,0.0,0.0,0.0,0.0,0.0,0.0,0.0,0.0,0.0,0.0,0.0,0.0,0.0,0.0,0.0,0.0,0.0,0.0,0.0,0.0,0.0,0.0,0.0,0.0,0.0,0.0,0.0,0.0,0.0,0.0,0.0,0.0,0.0,0.0,0.0,0.0,0.0,0.0,0.0,0.0,0.0,0.0,0.0,0.0,0.0,0.0,0.0,0.0,0.0,0.0,0.0,0.0,0.0,0.0,0.0,0.0,0.0,0.0,0.0,0.0,0.0,0.0,0.0,0.0,0.0,0.0,0.0,0.0,0.0,0.0,0.0,0.0,0.0,0.0,0.0,0.0,0.0,0.0,0.0,0.0,0.0,0.0,0.0,0.0,0.0,0.0,0.0,0.0,0.0,0.0,0.0,0.0,0.0,0.0,0.0,0.0,0.0,0.0,0.0,0.0,0.0,0.0,0.0,0.0,0.0,0.0,0.0,0.0,0.0,0.0,0.0,0.0,0.0,0.0,0.0,0.0,0.0,0.0,0.0,0.0,0.0,0.0,0.0,0.0,0.0,0.0,0.0,0.0,0.0,0.0,0.0,0.0,0.0,0.0,0.0,0.0,0.0,0.0,0.0,0.0,0.0,0.0,0.0,0.0,0.0,0.0,0.0,0.0,0.0,0.0,0.0,0.0,0.0,0.0,0.0,0.0,0.0,0.0,0.0,0.0,0.0,0.0,0.0,0.0,0.0,0.0,0.0,0.0,0.0,0.0,0.0,0.0,0.0,0.0,0.0,0.0,0.0,0.0,0.0,0.0,0.0,0.0,0.0,0.0,0.0,0.0,0.0,0.0,0.0,0.0,0.0,0.0,0.0,0.0,0.0,0.0,0.0,0.0,0.0,0.0,0.0,0.0,0.0,0.0,0.0,0.0,0.0,0.0,0.0,0.0,0.0,0.0,0.0,0.0,0.0,0.0,0.0,0.0,0.0,0.0,0.0,0.0,0.0,0.0,0.0,0.0,0.0,0.0,0.0,0.0,0.0,0.0,0.0,0.0,0.0,0.0,0.0,0.0,0.0,0.0,0.0,0.0,0.0,0.0,0.0,0.0,0.0,0.0,0.0,0.0,0.0,0.0,0.0,0.0,0.0,0.0,0.0,0.0,0.0,0.0,0.0,0.0,0.0,0.0,0.0,0.0,0.0,0.0,0.0,0.0,0.0,0.0,0.0,0.0,0.0,0.0,0.0,0.0,0.0,0.0,0.0,0.0,0.0,0.0,0.0,0.0,0.0,0.0,0.0,0.0,0.0,0.0,0.0,0.0,0.0,0.0,0.0,0.0,0.0,0.0,0.0,0.0,0.0,0.0,0.0,0.0,0.0,0.0,0.0,0.0,0.0,0.0,0.0,0.0,0.0,0.0,0.0,0.0,0.0,0.0,0.0,0.0,0.0,0.0,0.0,0.0,0.0,0.0,0.0,0.0,0.0,0.0,0.0,0.0,0.0,0.0,0.0,0.0,0.0,0.0,0.0,0.0,0.0,0.0,0.0,0.0,0.0,0.0,0.0,0.0,0.0,0.0,0.0,0.0,0.0,0.0,0.0,0.0,0.0,0.0,0.0,0.0,0.0,0.0,0.0,0.0,0.0,0.0,0.0,0.0,0.0,0.0,0.0,0.0,0.0,0.0,0.0,0.0,0.0,0.0,0.0,0.0,0.0,0.0,0.0,0.0,0.0,0.0,0.0,0.0,0.0,0.0,0.0,0.0,0.0,0.0,0.0,0.0,0.0,0.0,0.0,0.0,0.0,0.0,0.0,0.0,0.0,0.0,0.0,0.0,0.0,0.0,0.0,0.0,0.0,0.0,0.0,0.0,0.0,0.0,0.0,0.0,0.0,0.0,0.0,0.0,0.0,0.0,0.0,0.0,0.0,0.0,0.0,0.0,0.0,0.0,0.0,0.0,0.0,0.0,0.0,0.0,0.0,0.0,0.0,0.0,0.0,0.0,0.0,0.0,0.0,0.0,0.0,0.0,0.0,0.0,0.0,0.0,0.0,0.0,0.0,0.0,0.0,0.0,0.0,0.0,0.0,0.0,0.0,0.0,0.0,0.0,0.0,0.0,0.0,0.0,0.0,0.0,0.0,0.0,0.0,0.0,0.0,0.0,0.0,0.0,0.0,0.0,0.0,0.0,0.0,0.0,0.0,0.0,0.0,0.0,0.0,0.0,0.0,0.0,0.0,0.0,0.0,0.0,0.0,0.0,0.0,0.0,0.0,0.0,0.0,0.0,0.0,0.0,0.0,0.0,0.0,0.0,0.0,0.0,0.0,0.0,0.0,0.0,0.0,0.0,0.0,0.0,0.0,0.0,0.0,0.0,0.0,0.0,0.0,0.0,0.0,0.0,0.0,0.0,0.0,0.0,0.0,0.0,0.0,0.0,0.0,0.0,0.0,0.0,0.0,0.0,0.0,0.0,0.0,0.0,0.0,0.0,0.0,0.0,0.0,0.0,0.0,0.0,0.0,0.0,0.0,0.0,0.0,0.0,0.0,0.0,0.0,0.0,0.0,0.0,0.0,0.0,0.0,0.0,0.0,0.0,0.0,0.0,0.0,0.0,0.0,0.0,0.0,0.0,0.0,0.0,0.0,0.0,0.0,0.0,0.0,0.0,0.0,0.0,0.0,0.0,0.0,0.0,0.0,0.0,0.0,0.0,0.0,0.0,0.0,0.0,0.0,0.0,0.0,0.0,0.0,0.0,0.0,0.0,0.0,0.0,0.0,0.0,0.0,0.0,0.0,0.0,0.0,0.0,0.0,0.0,0.0,0.0,0.0,0.0,0.0,0.0,0.0,0.0,0.0,0.0,0.0,0.0,0.0,0.0,0.0,0.0,0.0,0.0,0.0,0.0,0.0,0.0,0.0,0.0,0.0,0.0,0.0,0.0,0.0,0.0,0.0,0.0,0.0,0.0,0.0,0.0,0.0,0.0,0.0,0.0,0.0,0.0,0.0,0.0,0.0,0.0,0.0,0.0,0.0,0.0,0.0,0.0,0.0,0.0,0.0,0.0,0.0,0.0,0.0,0.0,0.0,0.0,0.0,0.0,0.0,0.0,0.0,0.0,0.0,0.0,0.0,0.0,0.0,0.0,0.0,0.0,0.0,0.0,0.0,0.0,0.0,0.0,0.0,0.0,0.0,0.0,0.0,0.0,0.0,0.0,0.0,0.0,0.0,0.0,0.0,0.0,0.0,0.0,0.0,0.0,-2.8379,0.0,0.0,0.0,0.0,0.0,0.0,0.0,0.0,0.0,0.0,0.0,0.0,0.0,0.0,0.0,0.0,0.0,0.0,0.0,0.0,0.0,0.0,0.0,0.0,0.0,0.0,0.0,0.0,0.0,0.0,0.0,0.0,0.0,0.0,0.0,0.0,0.0,0.0,0.0,0.0,0.0,0.0,0.0,0.0,0.0,0.0,0.0,0.0,0.0,0.0,0.0,0.0,0.0,0.0,0.0,0.0,0.0,0.0,0.0,0.0,0.0,0.0,0.0,0.0,0.0,0.0,0.0,0.0,0.0,0.0,0.0,0.0,0.0,0.0,0.0,0.0,0.0,0.0,0.0,0.0,0.0,0.0,0.0,0.0,0.0,0.0,0.0,0.0,0.0,0.0,0.0,0.0,0.0,0.0,0.0,0.0,0.0,0.0,0.0,0.0,0.0,0.0,0.0,0.0,0.0,0.0,0.0,0.0,0.0,0.0,-3.0711,-3.0766,-3.0812,-3.0036,-2.8359,0.0,0.0,0.0,0.0,0.0,0.0,0.0,0.0,0.0,0.0,0.0,0.0,0.0,0.0,0.0,0.0,0.0,0.0,0.0,0.0,0.0,0.0,0.0,0.0,0.0,0.0,0.0,0.0,0.0,0.0,0.0,0.0,0.0,0.0,0.0,0.0,0.0,0.0,0.0,0.0,0.0,0.0,0.0,0.0,0.0,0.0,0.0,0.0,0.0,0.0,0.0,0.0,0.0,0.0,0.0,0.0,0.0,0.0,0.0,0.0,0.0,0.0,0.0,0.0,0.0,0.0,0.0,0.0,0.0,0.0,0.0,0.0,0.0,0.0,0.0,0.0,0.0,0.0,0.0,0.0,0.0,0.0,0.0,0.0,0.0,0.0,0.0,0.0,0.0,0.0,0.0,0.0,0.0,0.0,0.0,0.0,0.0,0.0,0.0,0.0,0.0,0.0,0.0,0.0,0.0,0.0,0.0,0.0,0.0,0.0,0.0,0.0,-3.1368,-3.0521,-2.8652,0.0,0.0,0.0,0.0,0.0,0.0,0.0,0.0,0.0,0.0,0.0,0.0,0.0,0.0,0.0,0.0,0.0,0.0,0.0,0.0,0.0,0.0,0.0,0.0,0.0,0.0,0.0,0.0,0.0,0.0,0.0,0.0,0.0,0.0,0.0,0.0,0.0,0.0,0.0,0.0,0.0,0.0,0.0,0.0,0.0,0.0,0.0,0.0,0.0,0.0,0.0,0.0,0.0,0.0,0.0,0.0,0.0,0.0,0.0,0.0,0.0,0.0,0.0,0.0,0.0,0.0,0.0,0.0,0.0,0.0,0.0,0.0,0.0,0.0,0.0,0.0,0.0,0.0,0.0,0.0,0.0,0.0,0.0,0.0,0.0,0.0,0.0,0.0,0.0,0.0,0.0,0.0,0.0,0.0,0.0,0.0,0.0,0.0,0.0,0.0,0.0,0.0,0.0,0.0,0.0,0.0,0.0,0.0,0.0,0.0,-3.2185,-3.3033,-3.3114,0.0,-2.9551,0.0,0.0,0.0,0.0,0.0,0.0,0.0,0.0,0.0,0.0,0.0,0.0,0.0,0.0,0.0,0.0,0.0,0.0,0.0,0.0,0.0,0.0,0.0,0.0,0.0,0.0,0.0,0.0,0.0,0.0,0.0,0.0,0.0,0.0,0.0,0.0,0.0,0.0,0.0,0.0,0.0,0.0,0.0,0.0,0.0,0.0,0.0,0.0,0.0,0.0,0.0,0.0,0.0,0.0,0.0,0.0,0.0,0.0,0.0,0.0,0.0,0.0,0.0,0.0,0.0,0.0,0.0,0.0,0.0,0.0,0.0,0.0,0.0,0.0,0.0,0.0,0.0,0.0,0.0,0.0,0.0,0.0,0.0,0.0,0.0,0.0,0.0,0.0,0.0,0.0,0.0,0.0,0.0,0.0,0.0,0.0,0.0,0.0,0.0,0.0,0.0,0.0,0.0,0.0,0.0,0.0,0.0,0.0,0.0,0.0,-3.3045,-3.3977,-3.3163,-3.1717,0.0,0.0,0.0,0.0,0.0,0.0,0.0,0.0,0.0,0.0,0.0,0.0,0.0,0.0,0.0,0.0,0.0,0.0,0.0,0.0,0.0,0.0,0.0,0.0,0.0,0.0,0.0,0.0,0.0,0.0,0.0,0.0,0.0,0.0,0.0,0.0,0.0,0.0,0.0,0.0,0.0,0.0,0.0,0.0,0.0,0.0,0.0,0.0,0.0,0.0,0.0,0.0,0.0,0.0,0.0,0.0,0.0,0.0,0.0,0.0,0.0,0.0,0.0,0.0,0.0,0.0,0.0,0.0,0.0,0.0,0.0,0.0,0.0,0.0,0.0,0.0,0.0,0.0,0.0,0.0,0.0,0.0,0.0,0.0,0.0,0.0,0.0,0.0,0.0,0.0,0.0,0.0,0.0,0.0,0.0,0.0,0.0,0.0,0.0,0.0,0.0,0.0,0.0,0.0,0.0,0.0,0.0,0.0,0.0,0.0,-3.2185,-3.3565,-3.4405,-3.3222,-3.16,-2.9647,0.0,0.0,0.0,0.0,0.0,0.0,0.0,0.0,0.0,0.0,0.0,0.0,0.0,0.0,0.0,0.0,0.0,0.0,0.0,0.0,0.0,0.0,0.0,0.0,0.0,0.0,0.0,0.0,0.0,0.0,0.0,0.0,0.0,0.0,0.0,0.0,0.0,0.0,0.0,0.0,0.0,0.0,0.0,0.0,0.0,0.0,0.0,0.0,0.0,0.0,0.0,0.0,0.0,0.0,0.0,0.0,0.0,0.0,0.0,0.0,0.0,0.0,0.0,0.0,0.0,0.0,0.0,0.0,0.0,0.0,0.0,0.0,0.0,0.0,0.0,0.0,0.0,0.0,0.0,0.0,0.0,0.0,0.0,0.0,0.0,0.0,0.0,0.0,0.0,0.0,0.0,0.0,0.0,0.0,0.0,0.0,0.0,0.0,0.0,0.0,0.0,0.0,0.0,0.0,0.0,0.0,0.0,0.0,-3.0448,-3.2183,-3.3567,-3.4519,-3.3766,-3.213,0.0,0.0,0.0,0.0,0.0,0.0,0.0,0.0,0.0,0.0,0.0,0.0,0.0,0.0,0.0,0.0,0.0,0.0,0.0,0.0,0.0,0.0,0.0,0.0,0.0,0.0,0.0,0.0,0.0,0.0,0.0,0.0,0.0,0.0,0.0,0.0,0.0,0.0,0.0,0.0,0.0,0.0,0.0,0.0,0.0,0.0,0.0,0.0,0.0,0.0,0.0,0.0,0.0,0.0,0.0,0.0,0.0,0.0,0.0,0.0,0.0,0.0,0.0,0.0,0.0,0.0,0.0,0.0,0.0,0.0,0.0,0.0,0.0,0.0,0.0,0.0,0.0,0.0,0.0,0.0,0.0,0.0,0.0,0.0,0.0,0.0,0.0,0.0,0.0,0.0,0.0,0.0,0.0,0.0,0.0,0.0,0.0,0.0,0.0,0.0,0.0,0.0,0.0,0.0,0.0,0.0,0.0,0.0,0.0,-3.0506,-3.271,-3.3869,-3.3695,-3.2878,-3.1229,0.0,0.0,0.0,0.0,0.0,0.0,0.0,0.0,0.0,0.0,0.0,0.0,0.0,0.0,0.0,0.0,0.0,0.0,0.0,0.0,0.0,0.0,0.0,0.0,0.0,0.0,0.0,0.0,0.0,0.0,0.0,0.0,0.0,0.0,0.0,0.0,0.0,0.0,0.0,0.0,0.0,0.0,0.0,0.0,0.0,0.0,0.0,0.0,0.0,0.0,0.0,0.0,0.0,0.0,0.0,0.0,0.0,0.0,0.0,0.0,0.0,0.0,0.0,0.0,0.0,0.0,0.0,0.0,0.0,0.0,0.0,0.0,0.0,0.0,0.0,0.0,0.0,0.0,0.0,0.0,0.0,0.0,0.0,0.0,0.0,0.0,0.0,0.0,0.0,0.0,0.0,0.0,0.0,0.0,0.0,0.0,0.0,0.0,0.0,0.0,0.0,0.0,0.0,0.0,0.0,0.0,0.0,0.0,0.0,-3.2082,0.0,-3.4696,-3.3578,-3.2469,-3.0691,0.0,0.0,0.0,0.0,0.0,0.0,0.0,0.0,0.0,0.0,0.0,0.0,0.0,0.0,0.0,0.0,0.0,0.0,0.0,0.0,0.0,0.0,0.0,0.0,0.0,0.0,0.0,0.0,0.0,0.0,0.0,0.0,0.0,0.0,0.0,0.0,0.0,0.0,0.0,0.0,0.0,0.0,0.0,0.0,0.0,0.0,0.0,0.0,0.0,0.0,0.0,0.0,0.0,0.0,0.0,0.0,0.0,0.0,0.0,0.0,0.0,0.0,0.0,0.0,0.0,0.0,0.0,0.0,0.0,0.0,0.0,0.0,0.0,0.0,0.0,0.0,0.0,0.0,0.0,0.0,0.0,0.0,0.0,0.0,0.0,0.0,0.0,0.0,0.0,0.0,0.0,0.0,0.0,0.0,0.0,0.0,0.0,0.0,0.0,0.0,0.0,0.0,0.0,0.0,0.0,0.0,0.0,0.0,-3.2968,-3.5355,-3.6349,-3.6029,-3.4339,-3.272,-3.0676,0.0,0.0,0.0,0.0,0.0,0.0,0.0,0.0,0.0,0.0,0.0,0.0,0.0,0.0,0.0,0.0,0.0,0.0,0.0,0.0,0.0,0.0,0.0,0.0,0.0,0.0,0.0,0.0,0.0,0.0,0.0,0.0,0.0,0.0,0.0,0.0,0.0,0.0,0.0,0.0,0.0,0.0,0.0,0.0,0.0,0.0,0.0,0.0,0.0,0.0,0.0,0.0,0.0,0.0,0.0,0.0,0.0,0.0,0.0,0.0,0.0,0.0,0.0,0.0,0.0,0.0,0.0,0.0,0.0,0.0,0.0,0.0,0.0,0.0,0.0,0.0,0.0,0.0,0.0,0.0,0.0,0.0,0.0,0.0,0.0,0.0,0.0,0.0,0.0,0.0,0.0,0.0,0.0,0.0,0.0,0.0,0.0,0.0,0.0,0.0,0.0,0.0,0.0,0.0,0.0,0.0,0.0,0.0,0.0,-3.552,-3.6914,-3.6568,-3.4301,-3.2623,-3.0576,0.0,0.0,0.0,0.0,0.0,0.0,0.0,0.0,0.0,0.0,0.0,0.0,0.0,0.0,0.0,0.0,0.0,0.0,0.0,0.0,0.0,0.0,0.0,0.0,0.0,0.0,0.0,0.0,0.0,0.0,0.0,0.0,0.0,0.0,0.0,0.0,0.0,0.0,0.0,0.0,0.0,0.0,0.0,0.0,0.0,0.0,0.0,0.0,0.0,0.0,0.0,0.0,0.0,0.0,0.0,0.0,0.0,0.0,0.0,0.0,0.0,0.0,0.0,0.0,0.0,0.0,0.0,0.0,0.0,0.0,0.0,0.0,0.0,0.0,0.0,0.0,0.0,0.0,0.0,0.0,0.0,0.0,0.0,0.0,0.0,0.0,0.0,0.0,0.0,0.0,0.0,0.0,0.0,0.0,0.0,0.0,0.0,0.0,0.0,0.0,0.0,0.0,0.0,0.0,0.0,0.0,0.0,0.0,0.0,-3.8346,-3.9027,-3.8354,-3.6168,-3.3853,-3.1429,-2.8909,0.0,0.0,0.0,0.0,0.0,0.0,0.0,0.0,0.0,0.0,0.0,0.0,0.0,0.0,0.0,0.0,0.0,0.0,0.0,0.0,0.0,0.0,0.0,0.0,0.0,0.0,0.0,0.0,0.0,0.0,0.0,0.0,0.0,0.0,0.0,0.0,0.0,0.0,0.0,0.0,0.0,0.0,0.0,0.0,0.0,0.0,0.0,0.0,0.0,0.0,0.0,0.0,0.0,0.0,0.0,0.0,0.0,0.0,0.0,0.0,0.0,0.0,0.0,0.0,0.0,0.0,0.0,0.0,0.0,0.0,0.0,0.0,0.0,0.0,0.0,0.0,0.0,0.0,0.0,0.0,0.0,0.0,0.0,0.0,0.0,0.0,0.0,0.0,0.0,0.0,0.0,0.0,0.0,0.0,0.0,0.0,0.0,0.0,0.0,0.0,0.0,0.0,0.0,0.0,0.0,0.0,0.0,0.0,-4.3124,-4.2508,-4.1335,-3.9508,-3.6206,-3.3199,0.0,0.0,0.0,0.0,0.0,0.0,0.0,0.0,0.0,0.0,0.0,0.0,0.0,0.0,0.0,0.0,0.0,0.0,0.0,0.0,0.0,0.0,0.0,0.0,0.0,0.0,0.0,0.0,0.0,0.0,0.0,0.0,0.0,0.0,0.0,0.0,0.0,0.0,0.0,0.0,0.0,0.0,0.0,0.0,0.0,0.0,0.0,0.0,0.0,0.0,0.0,0.0,0.0,0.0,0.0,0.0,0.0,0.0,0.0,0.0,0.0,0.0,0.0,0.0,0.0,0.0,0.0,0.0,0.0,0.0,0.0,0.0,0.0,0.0,0.0,0.0,0.0,0.0,0.0,0.0,0.0,0.0,0.0,0.0,0.0,0.0,0.0,0.0,0.0,0.0,0.0,0.0,0.0,0.0,0.0,0.0,0.0,0.0,0.0,0.0,0.0,0.0,0.0,0.0,0.0,0.0,0.0,0.0,0.0,-4.3874,-4.5605,-4.5066,-4.2162,-3.8796,-3.5507,0.0,0.0,0.0,0.0,0.0,0.0,0.0,0.0,0.0,0.0,0.0,0.0,0.0,0.0,0.0,0.0,0.0,0.0,0.0,0.0,0.0,0.0,0.0,0.0,0.0,0.0,0.0,0.0,0.0,0.0,0.0,0.0,0.0,0.0,0.0,0.0,0.0,0.0,0.0,0.0,0.0,0.0,0.0,0.0,0.0,0.0,0.0,0.0,0.0,0.0,0.0,0.0,0.0,0.0,0.0,0.0,0.0,0.0,0.0,0.0,0.0,0.0,0.0,0.0,0.0,0.0,0.0,0.0,0.0,0.0,0.0,0.0,0.0,0.0,0.0,0.0,0.0,0.0,0.0,0.0,0.0,0.0,0.0,0.0,0.0,0.0,0.0,0.0,0.0,0.0,0.0,0.0,0.0,0.0,0.0,0.0,0.0,0.0,0.0,0.0,0.0,0.0,0.0,0.0,0.0,0.0,0.0,0.0,-4.1797,-4.4806,-4.7702,-4.7759,-4.4778,-4.1027,-3.7469,0.0,0.0,0.0,0.0,0.0,0.0,0.0,0.0,0.0,0.0,0.0,0.0,0.0,0.0,0.0,0.0,0.0,0.0,0.0,0.0,0.0,0.0,0.0,0.0,0.0,0.0,0.0,0.0,0.0,0.0,0.0,0.0,0.0,0.0,0.0,0.0,0.0,0.0,0.0,0.0,0.0,0.0,0.0,0.0,0.0,0.0,0.0,0.0,0.0,0.0,0.0,0.0,0.0,0.0,0.0,0.0,0.0,0.0,0.0,0.0,0.0,0.0,0.0,0.0,0.0,0.0,0.0,0.0,0.0,0.0,0.0,0.0,0.0,0.0,0.0,0.0,0.0,0.0,0.0,0.0,0.0,0.0,0.0,0.0,0.0,0.0,0.0,0.0,0.0,0.0,0.0,0.0,0.0,0.0,0.0,0.0,0.0,0.0,0.0,0.0,0.0,0.0,0.0,0.0,0.0,0.0,0.0,0.0,-4.3173,-4.5701,-4.899,-4.951,-4.7028,-4.297,-3.92,0.0,0.0,0.0,0.0,0.0,0.0,0.0,0.0,0.0,0.0,0.0,0.0,0.0,0.0,0.0,0.0,0.0,0.0,0.0,0.0,0.0,0.0,0.0,0.0,0.0,0.0,0.0,0.0,0.0,0.0,0.0,0.0,0.0,0.0,0.0,0.0,0.0,0.0,0.0,0.0,0.0,0.0,0.0,0.0,0.0,0.0,0.0,0.0,0.0,0.0,0.0,0.0,0.0,0.0,0.0,0.0,0.0,0.0,0.0,0.0,0.0,0.0,0.0,0.0,0.0,0.0,0.0,0.0,0.0,0.0,0.0,0.0,0.0,0.0,0.0,0.0,0.0,0.0,0.0,0.0,0.0,0.0,0.0,0.0,0.0,0.0,0.0,0.0,0.0,0.0,0.0,0.0,0.0,0.0,0.0,0.0,0.0,0.0,0.0,0.0,0.0,0.0,0.0,0.0,0.0,0.0,0.0,0.0,-4.394,-4.6512,-4.926,-4.9798,-4.7875,-4.4412,-4.0931,0.0,0.0,0.0,0.0,0.0,0.0,0.0,0.0,0.0,0.0,0.0,0.0,0.0,0.0,0.0,0.0,0.0,0.0,0.0,0.0,0.0,0.0,0.0,0.0,0.0,0.0,0.0,0.0,0.0,0.0,0.0,0.0,0.0,0.0,0.0,0.0,0.0,0.0,0.0,0.0,0.0,0.0,0.0,0.0,0.0,0.0,0.0,0.0,-2.6077,0.0,0.0,0.0,0.0,0.0,0.0,0.0,0.0,0.0,0.0,0.0,0.0,0.0,0.0,0.0,0.0,0.0,0.0,0.0,0.0,0.0,0.0,0.0,0.0,0.0,0.0,0.0,0.0,0.0,0.0,0.0,0.0,0.0,0.0,0.0,0.0,0.0,0.0,0.0,0.0,0.0,0.0,0.0,0.0,0.0,0.0,0.0,0.0,0.0,0.0,0.0,0.0,0.0,0.0,0.0,0.0,0.0,0.0,0.0,-4.4461,-4.6695,-4.9336,-4.9856,-4.8125,-4.6009,-4.2912,0.0,0.0,0.0,0.0,0.0,0.0,0.0,0.0,0.0,0.0,0.0,0.0,0.0,0.0,0.0,0.0,0.0,0.0,0.0,0.0,0.0,0.0,0.0,0.0,0.0,0.0,0.0,0.0,0.0,0.0,0.0,0.0,0.0,0.0,0.0,0.0,0.0,0.0,0.0,0.0,0.0,0.0,0.0,0.0,0.0,0.0,0.0,0.0,0.0,0.0,0.0,0.0,0.0,0.0,0.0,0.0,0.0,0.0,0.0,0.0,0.0,0.0,0.0,0.0,0.0,0.0,0.0,0.0,0.0,0.0,0.0,0.0,0.0,0.0,0.0,0.0,0.0,0.0,0.0,0.0,0.0,0.0,0.0,0.0,0.0,0.0,0.0,0.0,0.0,0.0,0.0,0.0,0.0,0.0,0.0,0.0,0.0,0.0,0.0,0.0,0.0,0.0,0.0,0.0,0.0,0.0,0.0,-4.1656,-4.472,-4.6553,-4.8969,-4.9433,-4.7713,-4.6752,-4.4013,-3.9189,0.0,0.0,0.0,0.0,0.0,0.0,0.0,0.0,0.0,0.0,0.0,0.0,0.0,0.0,0.0,0.0,0.0,0.0,0.0,0.0,0.0,0.0,0.0,0.0,0.0,0.0,0.0,0.0,0.0,0.0,0.0,0.0,0.0,0.0,0.0,0.0,0.0,0.0,-2.363,-2.5588,0.0,0.0,0.0,0.0,0.0,0.0,0.0,0.0,-2.7198,0.0,0.0,0.0,0.0,0.0,0.0,0.0,0.0,0.0,0.0,0.0,0.0,0.0,0.0,0.0,0.0,0.0,0.0,0.0,0.0,0.0,0.0,0.0,0.0,0.0,0.0,0.0,0.0,0.0,0.0,0.0,0.0,0.0,0.0,0.0,0.0,0.0,0.0,0.0,0.0,0.0,0.0,0.0,0.0,0.0,0.0,0.0,0.0,0.0,0.0,0.0,0.0,0.0,0.0,0.0,0.0,-3.8089,-4.1737,-4.4467,-4.6233,-4.7578,-4.7474,-4.579,-4.4288,-4.1752,-3.8106,0.0,0.0,0.0,0.0,0.0,0.0,0.0,0.0,0.0,0.0,0.0,0.0,0.0,0.0,0.0,0.0,0.0,0.0,0.0,0.0,0.0,0.0,0.0,0.0,0.0,0.0,0.0,0.0,0.0,0.0,0.0,0.0,0.0,0.0,0.0,0.0,0.0,0.0,0.0,-2.7095,-2.7901,0.0,0.0,0.0,0.0,0.0,0.0,0.0,0.0,-2.7159,0.0,0.0,0.0,0.0,0.0,0.0,0.0,0.0,0.0,0.0,0.0,0.0,0.0,0.0,0.0,0.0,0.0,0.0,0.0,0.0,0.0,0.0,0.0,0.0,0.0,0.0,0.0,0.0,0.0,0.0,0.0,0.0,0.0,0.0,0.0,0.0,0.0,0.0,0.0,0.0,0.0,0.0,0.0,0.0,0.0,0.0,0.0,0.0,0.0,0.0,0.0,0.0,0.0,0.0,0.0,-3.7919,-4.1421,-4.4054,-4.5795,-4.6872,-4.644,-4.4391,-4.3129,-4.0515,0.0,0.0,0.0,0.0,0.0,0.0,0.0,0.0,0.0,0.0,0.0,0.0,0.0,0.0,0.0,0.0,0.0,0.0,0.0,0.0,0.0,0.0,0.0,0.0,0.0,0.0,0.0,0.0,0.0,0.0,0.0,0.0,0.0,0.0,0.0,0.0,0.0,0.0,0.0,0.0,-2.8714,-2.9839,-3.0073,0.0,0.0,0.0,0.0,0.0,0.0,-2.7255,-2.6928,0.0,0.0,0.0,0.0,0.0,0.0,0.0,0.0,0.0,0.0,0.0,0.0,0.0,0.0,0.0,0.0,0.0,0.0,0.0,0.0,0.0,0.0,0.0,0.0,0.0,0.0,0.0,0.0,0.0,0.0,0.0,0.0,0.0,0.0,0.0,0.0,0.0,0.0,0.0,0.0,0.0,0.0,0.0,0.0,0.0,0.0,0.0,0.0,0.0,0.0,0.0,0.0,0.0,0.0,0.0,-3.7599,-4.0932,-4.3434,-4.514,-4.605,-4.544,-4.3152,-4.197,-3.9207,0.0,0.0,0.0,0.0,0.0,0.0,0.0,0.0,0.0,0.0,0.0,0.0,0.0,0.0,0.0,0.0,0.0,0.0,0.0,0.0,0.0,0.0,0.0,0.0,0.0,0.0,0.0,0.0,0.0,0.0,0.0,0.0,0.0,0.0,0.0,0.0,0.0,0.0,0.0,0.0,0.0,-3.1262,-3.1518,-3.126,0.0,0.0,0.0,0.0,-2.8393,-2.7791,0.0,0.0,0.0,0.0,0.0,0.0,0.0,0.0,0.0,0.0,0.0,0.0,0.0,0.0,0.0,0.0,0.0,0.0,0.0,0.0,0.0,0.0,0.0,0.0,0.0,0.0,0.0,0.0,0.0,0.0,0.0,0.0,0.0,0.0,0.0,0.0,0.0,0.0,0.0,0.0,0.0,0.0,0.0,0.0,0.0,0.0,0.0,0.0,0.0,0.0,0.0,0.0,0.0,0.0,0.0,0.0,-3.7481,-4.0219,-4.2414,-4.4089,-4.4405,-4.3708,-4.2006,-3.9788,-3.6943,0.0,0.0,0.0,0.0,0.0,0.0,0.0,0.0,0.0,0.0,0.0,0.0,0.0,0.0,0.0,0.0,0.0,0.0,0.0,0.0,0.0,0.0,0.0,0.0,0.0,0.0,0.0,0.0,0.0,0.0,0.0,0.0,0.0,0.0,0.0,0.0,0.0,0.0,0.0,0.0,0.0,-3.0433,-3.0702,-3.1449,-3.2005,0.0,0.0,-3.0024,-3.0037,-2.9928,0.0,0.0,0.0,0.0,0.0,0.0,0.0,0.0,0.0,0.0,0.0,0.0,0.0,0.0,0.0,0.0,0.0,0.0,0.0,0.0,0.0,0.0,0.0,0.0,0.0,0.0,0.0,0.0,0.0,0.0,0.0,0.0,0.0,0.0,0.0,0.0,0.0,0.0,0.0,0.0,0.0,0.0,0.0,0.0,0.0,0.0,0.0,0.0,0.0,0.0,0.0,0.0,0.0,0.0,0.0,-3.2168,-3.607,-3.9491,-4.1839,-4.2996,-4.3539,-4.2813,-4.0759,-3.8812,-3.5795,0.0,0.0,0.0,0.0,0.0,0.0,0.0,0.0,0.0,0.0,0.0,0.0,0.0,0.0,0.0,0.0,0.0,0.0,0.0,0.0,0.0,0.0,0.0,0.0,0.0,0.0,0.0,0.0,0.0,0.0,0.0,0.0,0.0,0.0,0.0,0.0,0.0,0.0,0.0,0.0,0.0,0.0,-3.1927,-3.243,0.0,0.0,0.0,-3.1557,-3.1599,0.0,0.0,0.0,0.0,0.0,0.0,0.0,0.0,0.0,0.0,0.0,0.0,0.0,0.0,0.0,0.0,0.0,0.0,0.0,0.0,0.0,0.0,0.0,0.0,0.0,0.0,0.0,0.0,0.0,0.0,0.0,0.0,0.0,0.0,0.0,0.0,0.0,0.0,0.0,0.0,0.0,0.0,0.0,0.0,0.0,0.0,0.0,0.0,0.0,0.0,0.0,0.0,0.0,0.0,0.0,0.0,0.0,-3.4873,-3.8878,-4.1254,-4.1873,-4.2695,-4.207,-3.9923,-3.8138,0.0,0.0,0.0,0.0,0.0,0.0,0.0,0.0,0.0,0.0,0.0,0.0,0.0,0.0,0.0,0.0,0.0,0.0,0.0,0.0,0.0,0.0,0.0,0.0,0.0,0.0,0.0,-2.1794,0.0,0.0,0.0,0.0,0.0,0.0,0.0,0.0,0.0,0.0,0.0,0.0,0.0,0.0,-3.2391,-3.2627,-3.337,-3.3893,0.0,0.0,-3.2778,-3.2813,-3.2607,-3.1643,0.0,0.0,0.0,0.0,0.0,0.0,0.0,0.0,0.0,0.0,0.0,0.0,0.0,0.0,0.0,0.0,0.0,0.0,0.0,0.0,0.0,0.0,0.0,0.0,0.0,0.0,0.0,0.0,0.0,0.0,0.0,0.0,0.0,0.0,0.0,0.0,0.0,0.0,0.0,0.0,0.0,0.0,0.0,0.0,0.0,0.0,0.0,0.0,0.0,0.0,0.0,0.0,0.0,0.0,0.0,-3.4613,-3.8515,-4.0599,-4.0813,-4.1647,-4.1369,-3.9827,-3.7594,-3.4798,0.0,0.0,0.0,0.0,0.0,0.0,0.0,0.0,0.0,0.0,0.0,0.0,0.0,0.0,0.0,0.0,0.0,0.0,0.0,0.0,0.0,0.0,0.0,0.0,0.0,0.0,0.0,0.0,0.0,0.0,0.0,0.0,0.0,0.0,0.0,0.0,0.0,0.0,0.0,0.0,0.0,-3.1544,-3.1777,-3.3929,-3.5285,0.0,0.0,-3.3441,-3.3431,-3.2808,-3.1501,-2.911,0.0,0.0,0.0,0.0,0.0,0.0,0.0,0.0,0.0,0.0,0.0,0.0,0.0,0.0,0.0,0.0,0.0,0.0,0.0,0.0,0.0,0.0,0.0,0.0,0.0,0.0,0.0,0.0,0.0,0.0,0.0,0.0,0.0,0.0,0.0,0.0,0.0,0.0,0.0,0.0,0.0,0.0,0.0,0.0,0.0,0.0,0.0,0.0,0.0,0.0,0.0,0.0,0.0,-2.9426,-3.3271,-3.6737,-3.8833,-3.9463,-4.0438,-4.0289,-3.8915,-3.768,-3.5271,0.0,0.0,0.0,0.0,0.0,0.0,0.0,0.0,0.0,0.0,0.0,0.0,0.0,0.0,0.0,0.0,0.0,0.0,0.0,0.0,0.0,0.0,0.0,0.0,0.0,0.0,0.0,0.0,-2.3281,-2.3199,-2.3024,0.0,0.0,0.0,0.0,0.0,0.0,0.0,0.0,0.0,0.0,-3.1642,-3.2286,-3.3763,0.0,0.0,-3.4132,-3.378,-3.3323,-3.2547,-3.1193,-2.8883,-2.7592,0.0,0.0,0.0,0.0,0.0,0.0,0.0,0.0,0.0,0.0,0.0,0.0,0.0,0.0,0.0,0.0,0.0,0.0,0.0,0.0,0.0,0.0,0.0,0.0,0.0,0.0,0.0,0.0,0.0,0.0,0.0,0.0,0.0,0.0,0.0,0.0,0.0,0.0,0.0,0.0,0.0,0.0,0.0,0.0,0.0,0.0,0.0,0.0,0.0,0.0,0.0,0.0,-2.8558,-3.2332,-3.5506,-3.7474,-3.814,-3.9226,-3.9139,-3.7814,-3.7273,-3.5184,0.0,0.0,0.0,0.0,0.0,0.0,0.0,0.0,0.0,0.0,0.0,0.0,0.0,0.0,0.0,0.0,0.0,0.0,0.0,0.0,0.0,0.0,0.0,0.0,0.0,0.0,0.0,0.0,-2.3988,-2.3621,-2.3061,0.0,0.0,0.0,0.0,0.0,0.0,0.0,0.0,0.0,0.0,-3.2004,-3.2674,-3.3784,-3.4463,-3.4246,-3.4179,-3.3881,-3.3131,-3.2314,-3.106,-2.9027,0.0,0.0,0.0,0.0,0.0,0.0,0.0,0.0,0.0,0.0,0.0,0.0,0.0,0.0,0.0,0.0,0.0,0.0,0.0,0.0,0.0,0.0,0.0,0.0,0.0,0.0,0.0,0.0,0.0,0.0,-2.1295,0.0,0.0,0.0,0.0,0.0,0.0,0.0,0.0,0.0,0.0,0.0,0.0,0.0,0.0,0.0,0.0,0.0,0.0,0.0,0.0,0.0,0.0,-2.8225,-3.1986,-3.502,-3.6724,-3.6937,-3.8022,-3.7914,-3.6557,-3.6069,-3.4295,-3.1071,0.0,0.0,0.0,0.0,0.0,0.0,0.0,0.0,0.0,0.0,0.0,0.0,0.0,0.0,0.0,0.0,0.0,0.0,0.0,0.0,0.0,0.0,0.0,0.0,0.0,0.0,-2.419,-2.3501,-2.3043,0.0,0.0,0.0,0.0,0.0,0.0,0.0,0.0,0.0,0.0,-3.106,-3.2608,-3.2722,-3.4164,-3.4899,-3.4134,-3.4061,-3.3809,-3.2921,-3.215,-3.1169,0.0,0.0,0.0,0.0,0.0,0.0,0.0,0.0,0.0,0.0,0.0,0.0,0.0,0.0,0.0,0.0,0.0,0.0,0.0,0.0,0.0,0.0,0.0,0.0,0.0,0.0,0.0,-2.4547,-2.4098,0.0,0.0,0.0,0.0,0.0,0.0,0.0,0.0,0.0,0.0,0.0,-2.691,-2.7247,0.0,0.0,0.0,0.0,0.0,0.0,0.0,0.0,0.0,0.0,0.0,0.0,-2.6972,-3.0612,-3.2735,-3.4123,-3.4821,-3.5384,-3.5266,-3.4393,-3.4389,-3.2668,-2.8988,0.0,0.0,0.0,0.0,0.0,0.0,0.0,0.0,0.0,0.0,0.0,0.0,0.0,0.0,0.0,0.0,0.0,0.0,0.0,0.0,0.0,0.0,0.0,0.0,0.0,-2.4026,0.0,0.0,0.0,0.0,0.0,0.0,0.0,0.0,0.0,0.0,0.0,-2.7871,-3.0283,-3.177,-3.2797,-3.3338,-3.391,-3.4194,0.0,0.0,0.0,0.0,0.0,0.0,0.0,0.0,0.0,0.0,0.0,0.0,0.0,0.0,-2.6677,-2.6548,-2.5681,-2.4854,-2.4405,0.0,0.0,0.0,0.0,0.0,0.0,0.0,0.0,0.0,0.0,0.0,0.0,0.0,0.0,-2.6113,0.0,-2.5401,0.0,0.0,0.0,0.0,0.0,0.0,0.0,0.0,-2.7452,-2.8262,-2.8554,-2.9118,-2.9349,0.0,-2.945,-2.8146,0.0,0.0,0.0,0.0,0.0,0.0,0.0,0.0,-2.659,-2.9971,-3.1529,-3.2764,-3.368,-3.3982,-3.3783,-3.3186,-3.288,-3.1277,-2.8175,-2.6726,-2.5191,0.0,0.0,0.0,0.0,0.0,0.0,0.0,0.0,0.0,0.0,0.0,0.0,0.0,0.0,0.0,0.0,0.0,0.0,0.0,0.0,0.0,0.0,0.0,-2.4065,0.0,0.0,0.0,0.0,0.0,0.0,0.0,0.0,0.0,-2.6465,-2.7965,-2.9673,-3.153,-3.2478,-3.3188,-3.3733,0.0,0.0,0.0,0.0,0.0,0.0,0.0,-3.0289,-2.9314,-2.9021,-2.8785,-2.8371,-2.8287,-2.8324,-2.8467,0.0,0.0,-2.8097,-2.7439,-2.6779,-2.6341,-2.5634,-2.5101,-2.5197,-2.5261,-2.5458,0.0,0.0,0.0,0.0,0.0,0.0,0.0,0.0,-2.706,-2.705,0.0,-2.632,0.0,0.0,0.0,0.0,0.0,0.0,0.0,0.0,-2.885,-2.9648,-2.9963,-3.087,-3.1142,-3.081,-3.105,-3.0611,-2.9403,-2.6924,0.0,0.0,0.0,0.0,0.0,0.0,-2.7097,-3.0021,-3.1495,-3.2656,-3.3471,-3.3679,-3.3495,-3.2833,-3.16,-3.023,-2.8718,-2.7709,-2.6495,-2.491,-2.3328,0.0,0.0,0.0,0.0,0.0,0.0,0.0,0.0,0.0,0.0,0.0,0.0,0.0,0.0,0.0,0.0,0.0,0.0,0.0,0.0,-2.3772,0.0,0.0,0.0,0.0,0.0,0.0,0.0,0.0,0.0,0.0,-2.8582,-3.0155,-3.1527,-3.2409,0.0,0.0,0.0,0.0,-3.3807,-3.3807,-3.3807,-3.3532,-3.2711,-3.1935,-3.1446,-3.1458,0.0,0.0,-3.069,-3.057,-3.0131,-2.9346,-2.9155,-2.9243,-2.9324,-2.8745,-2.8305,-2.8277,-2.7681,-2.7377,-2.7499,-2.7446,-2.7668,-3.051,0.0,0.0,0.0,0.0,-2.8545,-2.895,-2.9614,-2.9614,-2.9309,-2.8786,-2.8108,0.0,0.0,0.0,0.0,0.0,0.0,-2.6817,-2.7923,-2.9291,-3.0017,-3.0217,-3.0682,-3.069,-3.0315,-3.0633,-3.0222,-2.9108,-2.8552,-2.707,-2.4663,0.0,0.0,0.0,0.0,-2.7604,-3.0006,-3.1021,-3.1633,-3.1893,-3.1953,-3.1893,-3.1672,-3.1304,-3.0658,-2.9703,-2.8355,-2.7165,-2.6163,-2.3721,0.0,0.0,0.0,0.0,0.0,0.0,0.0,0.0,0.0,0.0,0.0,0.0,0.0,0.0,0.0,0.0,0.0,0.0,0.0,-2.4217,-2.5498,-2.5884,0.0,0.0,0.0,0.0,0.0,0.0,0.0,0.0,0.0,-3.0287,-3.1207,-3.2121,0.0,0.0,-3.3807,-3.3807,-3.3807,-3.3807,-3.3807,0.0,0.0,0.0,-3.2417,-3.2082,-3.1501,-3.1262,-3.1163,-3.1199,-3.0678,-3.0017,-2.9195,-2.9055,-2.9055,-2.9112,-2.9082,-2.8826,-2.839,-2.8153,-2.8125,-2.8263,-2.8396,-2.8718,-3.2705,-3.0779,-2.9879,-2.9985,-3.0739,-3.0754,-3.1163,-3.1787,-3.1527,-3.1163,-3.0693,-2.9771,-2.8599,-2.7261,-2.6367,0.0,0.0,0.0,-2.7991,-2.866,-2.9735,-3.03,-3.0411,-3.0804,-3.0801,-3.0462,-3.0775,-3.0378,-2.9313,-2.9632,-2.8808,-2.6838,0.0,0.0,-2.6421,-2.7232,-2.8451,-3.0057,-3.0835,-3.119,-3.119,-3.119,-3.1055,-3.0784,-3.0768,-3.0277,-2.9227,-2.8297,-2.7452,-2.6708,-2.4729,-2.3359,0.0,0.0,0.0,0.0,0.0,0.0,0.0,0.0,0.0,0.0,0.0,-1.8688,-1.9449,0.0,0.0,0.0,-2.234,-2.3976,-2.5366,-2.6627,0.0,0.0,0.0,0.0,0.0,0.0,0.0,-2.8514,-2.9644,-3.0764,-3.1948,-3.2528,-3.2975,-3.3304,-3.385,-3.4092,-3.3789,0.0,-3.3807,-3.3807,-3.3807,-3.3623,-3.3164,-3.2816,-3.2417,-3.1971,-3.188,-3.1733,-3.1421,-3.0723,-2.9934,-2.9225,-2.8987,-2.8987,-2.8987,-2.9093,-2.9055,-2.8619,-2.8628,-2.8755,-2.8903,-2.9041,-2.9372,-3.4203,-3.3544,-3.2318,-3.2108,-3.2587,-3.2587,-3.2931,-3.3425,-3.2781,-3.2497,-3.2422,-3.1091,-2.9834,-2.8607,-2.7395,0.0,0.0,-2.8742,-2.9086,-2.9711,-3.0283,-3.0597,-3.0612,-3.1197,-3.1279,-3.0879,-3.1213,-3.0861,-2.9883,-3.018,-2.9797,-2.8742,-2.8026,-2.7738,-2.7883,-2.8685,-2.9467,-3.0173,-3.0869,-3.119,-3.119,-3.1159,-3.0768,-3.0123,-3.0057,-2.9345,-2.7976,-2.7841,-2.7503,-2.681,-2.6031,-2.4983,-2.3646,0.0,0.0,0.0,0.0,0.0,0.0,0.0,0.0,0.0,0.0,0.0,0.0,0.0,0.0,0.0,-2.3408,0.0,-2.597,-2.7447,0.0,0.0,0.0,-2.6705,-2.6576,-2.7089,-2.8219,-3.0254,0.0,0.0,-3.3492,0.0,-3.3905,-3.3218,-3.4051,-3.4521,-3.3872,-3.3808,-3.3807,-3.3807,-3.3807,-3.3807,-3.3697,-3.3183,-3.2693,-3.2546,-3.2601,-3.2234,-3.1421,-3.0723,-2.9934,-2.9152,-2.8987,-2.8987,-2.8987,-2.9017,-2.8987,-2.898,-2.9082,-2.9206,-2.9307,-2.9486,-2.9684,-3.5175,-3.5011,-3.4665,-3.4037,-3.3275,-3.326,-3.335,-3.344,-3.2811,-3.2497,-3.2392,-3.1091,-3.0073,-2.9352,-2.9052,-2.9067,-2.9397,-2.9849,-3.0133,-3.0313,-3.0943,-3.1256,-3.1286,-3.1436,-3.1237,-3.0802,-3.1058,-3.0554,-2.9496,-2.9722,-2.958,-2.9035,-2.9065,-2.9124,-2.9165,-2.9621,-3.0192,-3.0937,-3.1106,-3.119,-3.1193,-3.0649,-3.0277,-3.0108,-2.955,-2.9076,-2.8721,-2.8111,-2.7722,-2.7519,-2.6285,-2.5423,-2.5084,-2.3327,0.0,0.0,0.0,0.0,0.0,0.0,0.0,0.0,0.0,-1.9722,-2.1586,0.0,-2.2496,0.0,-2.5218,-2.6758,-2.8185,-2.875,0.0,0.0,-2.8844,-2.8893,-2.8763,-2.9816,-3.0684,-3.1045,-3.213,-3.3079,-3.356,-3.4298,-3.4377,-3.3351,-3.3917,-3.4395,-3.4378,-3.405,-3.3807,-3.3807,-3.3807,-3.3807,-3.3788,-3.366,-3.3275,-3.2693,-3.2583,-3.2106,-3.0723,-3.0338,-2.9953,-2.9189,-2.8987,-2.8987,-2.8987,-2.8987,-2.8987,-2.9005,-2.9074,-2.9127,-2.922,-2.9395,-2.9598,-3.5407,-3.5489,-3.5489,-3.5085,-3.4397,-3.4397,-3.4397,-3.4337,-3.3664,-3.323,-3.2871,-3.1511,-3.0748,-3.0462,-3.0447,-3.0447,-3.0477,-3.0806,-3.0943,-3.0957,-3.1331,-3.1496,-3.1496,-3.1496,-3.133,-3.1056,-3.1225,-3.0791,-2.9856,-2.9709,-2.9448,-2.9064,-2.9092,-2.9179,-2.9307,-2.9971,-3.0473,-3.0858,-3.0972,-3.0995,-3.1035,-3.0345,-2.9823,-2.9469,-2.8691,-2.8117,-2.7763,-2.7325,-2.709,-2.7056,-2.6302,-2.5715,-2.533,-2.3889,-2.2582,0.0,0.0,0.0,0.0,0.0,0.0,0.0,0.0,0.0,0.0,0.0,-2.4881,0.0,-2.725,0.0,-2.9437,-2.992,-3.03,-3.0714,-3.0805,-3.0944,-3.1191,-3.1937,-3.2488,-3.2693,-3.3393,-3.4037,-3.444,-3.467,-3.4582,-3.4022,-3.3826,-3.3764,-3.3841,-3.3713,-3.3633,-3.3657,-3.3684,-3.3739,-3.3775,-3.3807,-3.3513,-3.2766,-3.2289,-3.1641,-3.043,-2.9898,-2.9519,-2.9097,-2.8987,-2.8987,-2.8987,-2.8987,-2.8987,-2.9005,-2.904,-2.9067,-2.9104,-2.9228,-2.9404,-3.5261,-3.5504,-3.5489,-3.5489,-3.5489,-3.5489,-3.5489,-3.5444,-3.4713,-3.3933,-3.317,-3.2004,-3.1496,-3.1496,-3.1496,-3.1496,-3.1496,-3.1496,-3.1496,-3.1496,-3.1496,-3.1496,-3.1496,-3.1496,-3.1496,-3.1496,-3.1496,-3.1107,-3.0372,-2.9849,-2.9365,-2.8859,-2.8593,-2.8598,-2.8873,-2.981,-3.03,-3.0363,-3.0526,-3.0621,-3.0664,-2.9978,-2.924,-2.8507,-2.7642,-2.6786,-2.5983,-2.6033,-2.6033,-2.595,-2.6033,-2.5717,-2.494,-2.4347,-2.3374,0.0,-2.1275,0.0,0.0,0.0,0.0,0.0,0.0,0.0,0.0,-2.6217,-2.7588,-2.9027,-2.923,-2.9567,-3.0311,-3.1055,-3.1732,-3.2361,-3.2446,-3.2679,-3.3305,-3.3474,-3.3795,-3.4421,-3.4573,-3.4912,-3.5414,-3.503,-3.4733,-3.4558,-3.3813,-3.3139,-3.2899,-3.3086,-3.3283,-3.339,-3.352,-3.3647,-3.378,-3.3807,-3.3476,-3.2614,-3.1898,-3.1103,-3.0155,-2.9464,-2.9005,-2.8987,-2.8987,-2.8987,-2.8987,-2.8987,-2.8987,-2.8987,-2.9005,-2.9005,-2.901,-2.9119,-2.9222,-3.5019,-3.5489,-3.5489,-3.5489,-3.5489,-3.5489,-3.5489,-3.5415,-3.4203,-3.3006,-3.1884,-3.1615,-3.1496,-3.1496,-3.1496,-3.1496,-3.1496,-3.1496,-3.1496,-3.1496,-3.1496,-3.1496,-3.1496,-3.1496,-3.1496,-3.1496,-3.1496,-3.0898,-2.9759,-2.9639,-2.9072,-2.8052,-2.8183,-2.8332,-2.8517,0.0,0.0,0.0,-2.9821,-2.9819,-2.9518,-2.886,-2.8166,-2.7425,-2.6496,0.0,-2.4638,-2.5102,-2.5134,-2.4638,-2.5086,0.0,0.0,0.0,0.0,0.0,0.0,0.0,0.0,0.0,0.0,0.0,-2.6573,-2.6877,-2.7164,-2.8027,-2.8924,-2.9803,-3.0429,-3.1072,-3.1819,-3.2544,-3.3051,-3.3169,-3.3186,-3.3254,-3.3423,-3.3914,-3.4353,-3.4472,-3.503,-3.5414,-3.5549,-3.5464,-3.4972,-3.4053,-3.3727,-3.319,-3.2175,-3.2402,-3.2713,-3.2905,-3.3265,-3.3577,-3.3762,-3.3793,-3.3285,-3.2027,-3.1544,-3.0852,-2.9574,-2.917,-2.9005,-2.8987,-2.8987,-2.8987,-2.8987,-2.8987,-2.8987,-2.8987,-2.8987,-2.8987,-2.8987,-2.9062,-2.9127,-3.4423,0.0,-3.5063,-3.5129,0.0,-3.5294,-3.5198,-3.4951,-3.4277,-3.3245,-3.1974,-3.1645,-3.1496,-3.1496,-3.1496,-3.1496,-3.1496,-3.1496,-3.1496,-3.1496,-3.1496,-3.1496,-3.1496,-3.1167,-3.1182,-3.1496,-3.1167,-3.0687,-3.0043,-2.9756,-2.9139,-2.8201,-2.7991,-2.7925,-2.7999,-2.8091,-2.8448,-2.9058,-2.9309,-2.944,-2.9339,-2.8359,-2.7664,-2.732,0.0,0.0,0.0,0.0,0.0,0.0,0.0,0.0,0.0,0.0,0.0,-2.2844,-2.2605,-2.293,-2.3921,-2.4606,-2.5927,-2.8017,-2.9004,-2.9347,-2.8973,-2.9313,-2.9989,-3.1072,-3.1549,-3.2036,-3.2763,-3.3203,-3.3558,-3.388,-3.3931,-3.4083,-3.4421,-3.4489,-3.4641,-3.4962,-3.503,-3.5182,-3.5532,-3.5245,-3.4641,-3.3656,-3.3216,-3.2684,-3.1777,-3.1949,-3.2368,-3.27,-3.3019,-3.3327,-3.353,-3.3605,-3.3058,-3.1649,-3.1237,-3.0605,-2.9186,-2.8917,-2.8964,-2.8994,-2.8987,-2.8987,-2.8987,-2.8987,-2.8987,-2.8987,-2.8987,-2.8987,-2.8987,-2.901,-2.9074,-3.3555,-3.4113,-3.4332,-3.4495,-3.4593,-3.4824,-3.4622,-3.4174,0.0,0.0,0.0,-3.175,-3.1496,-3.1496,-3.1496,-3.1496,-3.1496,-3.1496,-3.1496,-3.1496,-3.1496,-3.1496,-3.1481,-3.0928,-3.0943,-3.1466,-3.0928,-3.0627,-3.0477,-2.9906,-2.9277,-2.8592,-2.7904,-2.7585,-2.7585,-2.7585,-2.7894,-2.8487,-2.8787,-2.8988,-2.9185,-2.8029,-2.7354,-2.7228,-2.5733,-2.4722,-2.4296,-2.4348,-2.4384,-2.4256,-2.4348,-2.4384,-2.4261,-2.3946,-2.3714,-2.3595,-2.3456,-2.402,-2.5463,-2.6034,-2.7402,-2.9888,-3.0867,-3.1089,-3.0362,-3.0412,-3.0987,-3.2209,-3.2547,-3.2953,-3.3541,-3.3706,-3.4032,-3.4624,-3.4692,-3.4945,-3.5447,-3.5081,-3.4895,-3.5228,-3.4861,-3.4641,-3.5059,-3.481,-3.415,-3.3372,-3.2852,-3.2141,-3.1489,-3.1618,-3.2039,-3.2418,-3.2668,-3.291,-3.3162,-3.3223,-3.2592,-3.1149,-3.0912,-3.0432,-2.9197,-2.8791,-2.8893,-2.8975,-2.8987,-2.8987,-2.8987,-2.8987,-2.8987,-2.8987,-2.8987,-2.8987,-2.8987,-2.8987,-2.8987,-3.2349,-3.2904,-3.3248,-3.338,-3.3363,-3.3755,-3.3465,-3.2796,-3.2766,-3.2333,-3.163,-3.1555,-3.1496,-3.1496,-3.1496,-3.1496,-3.1496,-3.1496,-3.1496,0.0,-3.1496,-3.1496,-3.1496,-3.1406,-3.1406,-3.1496,-3.1391,-3.1047,-3.0492,-2.9879,-2.925,-2.8592,-2.7944,-2.76,-2.7585,-2.7585,-2.765,-2.776,-2.7999,-2.8016,-2.7713,-2.758,-2.6912,-2.5767,-2.5305,-2.4383,-2.3013,-2.348,-2.3504,-2.2992,-2.3459,-2.3504,-2.3043,-2.3926,-2.4205,-2.373,-2.4743,-2.5715,-2.6237,-2.7263,-2.8919,-3.1237,-3.189,-3.1836,-3.114,-3.1633,-3.2073,-3.2344,-3.3427,-3.4223,-3.437,-3.4873,-3.5245,-3.5397,-3.543,-3.5481,-3.56,-3.5487,-3.5199,-3.4759,-3.4573,-3.4235,-3.3931,-3.4184,-3.3931,-3.2903,-3.2696,-3.2679,-3.1568,-3.1404,-3.1654,-3.1896,-3.2109,-3.2333,-3.2584,-3.2634,-3.1993,-3.0554,-3.0443,-3.0066,-2.8696,-2.8614,-2.8767,-2.897,-2.8975,-2.8994,-2.8987,-2.8987,-2.8987,-2.8987,-2.8987,-2.8987,-2.8987,-2.8987,-2.8987,-3.1613,-3.2024,-3.2448,-3.2577,-3.2495,-3.2543,-3.2421,-3.2092,-3.1782,-3.1633,-3.1511,-3.1496,-3.1496,-3.1496,-3.1496,-3.1496,-3.1496,-3.1496,-3.1496,-3.1496,-3.1496,-3.1496,-3.1466,-3.1122,-3.1152,-3.1451,-3.1107,-3.0806,-3.0492,-3.0208,-2.9759,-2.9131,-2.8457,-2.7974,-2.7615,-2.7585,-2.7585,-2.76,-2.779,-2.7862,-2.7801,-2.7432,-2.6773,-2.585,-2.5277,-2.4398,-2.3242,-2.3445,-2.3475,-2.3197,-2.3445,-2.364,-2.3759,-2.4291,-2.4634,-2.4702,-2.5409,-2.6138,-2.6788,-2.816,-2.9673,-3.1265,-3.1732,-3.1993,-3.2064,-3.2575,-3.3068,-3.3461,-3.4155,-3.4675,-3.5047,-3.5397,-3.5616,-3.5616,-3.5616,-3.5616,-3.5549,-3.5211,-3.4861,-3.4523,-3.4134,-3.3778,-3.3457,-3.3711,-3.3525,-3.2513,-3.2341,-3.1935,-3.1328,-3.1269,-3.1443,-3.1638,-3.1858,-3.2003,-3.2196,-3.2231,-3.1582,-3.0232,-3.0096,-2.9606,-2.8518,-2.8378,-2.8619,-2.8834,-2.8917,-2.8952,-2.8975,-2.8987,-2.8987,-2.8987,-2.8987,-2.8987,-2.8987,-2.8987,-2.8987,-3.0885,-3.1158,-3.1542,-3.1644,-3.1515,-3.1183,-3.1094,-3.125,-3.0981,-3.1014,-3.1307,-3.1453,-3.1496,-3.1496,-3.1496,-3.1496,-3.1496,-3.1496,-3.1496,-3.1496,-3.1496,-3.1496,-3.1451,-3.0943,-3.0987,-3.1406,-3.0986,-3.0703,-3.0688,-3.0582,-3.0118,-2.9382,-2.8697,-2.8109,-2.76,-2.7585,-2.7585,-2.7585,-2.7715,-2.785,-2.8048,-2.7464,-2.6812,-2.6054,-2.5372,-2.4552,-2.367,-2.3759,-2.3834,-2.3812,-2.3984,-2.4298,-2.4769,-2.4963,-2.5277,-2.5779,-2.6045,-2.6551,-2.7352,-2.8606,-2.9845,-3.0988,-3.141,-3.2,-3.296,-3.3428,-3.3864,-3.4395,-3.4624,-3.5013,-3.5447,-3.56,-3.5616,-3.5616,-3.5616,-3.5616,-3.5549,-3.5081,-3.4641,-3.4489,-3.3863,-3.3372,-3.3203,-3.3152,-3.2899,-3.2361,-3.1684,-3.1224,-3.119,-3.119,-3.1308,-3.1445,-3.1614,-3.169,-3.1804,-3.1822,-3.1182,-2.9868,-2.9726,-2.9171,-2.8294,-2.8069,-2.837,-2.8614,-2.8791,-2.8881,-2.8964,-2.8987,-2.8987,-2.8987,-2.8987,-2.8987,-2.8987,-2.8987,-2.8987,-2.9934,-3.0011,-3.0432,-3.0417,-3.0125,-2.9527,-2.946,-2.9772,-3.0162,-3.0539,-3.0881,-3.1307,-3.1496,-3.1496,-3.1496,-3.1496,-3.1496,-3.1496,-3.1496,-3.1496,-3.1496,-3.1496,-3.1496,-3.1421,-3.1451,-3.1496,-3.1406,-3.1346,-3.1316,-3.0763,-2.9894,-2.8742,-2.8019,-2.769,-2.76,-2.7585,-2.7585,-2.7585,-2.7625,-2.764,-2.765,-2.759,-2.696,-2.5691,-2.5578,-2.4934,-2.3759,-2.4208,-2.4515,-2.456,-2.5053,-2.5412,-2.557,-2.6063,-2.6437,-2.6512,-2.7061,-2.759,-2.7898,-2.8328,-2.9326,-3.0811,-3.1318,-3.2168,-3.3648,-3.4201,-3.4413,-3.4471,-3.5026,-3.5464,-3.5583,-3.5616,-3.5616,-3.5616,-3.5616,-3.5616,-3.5583,-3.5532,-3.5245,-3.4556,-3.3897,-3.3169,-3.2696,-3.2547,-3.2412,-3.2209,-3.1613,-3.119,-3.119,-3.119,-3.121,-3.1249,-3.1269,-3.1288,-3.131,-3.1271,-3.0702,-2.9478,-2.9175,-2.8715,-2.7952,-2.7683,-2.7971,-2.8347,-2.8589,-2.8743,-2.8905,-2.8987,-2.8994,-2.8964,-2.8964,-2.8994,-2.8987,-2.8975,-2.8975,-2.9779,-2.9793,-2.9707,-2.9445,-2.9006,-2.859,-2.8583,-2.8967,-2.947,-2.9948,-3.0433,-3.097,-3.1307,-3.1496,-3.1496,-3.1496,-3.1496,-3.1496,-3.1496,-3.1496,-3.1496,-3.1496,-3.1496,-3.1496,-3.1496,-3.1496,-3.1496,-3.1496,-3.1391,-3.0836,-2.9849,-2.8712,-2.8308,-2.8019,-2.763,-2.7585,-2.7585,-2.7585,-2.7585,-2.7585,-2.7585,-2.7585,-2.7165,-2.6303,-2.6198,-2.5779,-2.4941,-2.5053,-2.5211,-2.5202,-2.5457,-2.577,-2.6168,-2.6452,-2.6791,-2.7165,-2.7435,-2.769,-2.788,-2.8482,-2.9369,-3.0586,-3.1287,-3.2212,-3.3389,-3.3926,-3.4203,-3.44,-3.5096,-3.5616,-3.56,-3.56,-3.5616,-3.5616,-3.5616,-3.56,-3.5616,-3.56,-3.5312,-3.459,-3.4235,-3.3761,-3.3068,-3.2564,-3.2141,-3.1765,-3.1362,-3.1207,-3.119,-3.119,-3.119,-3.119,-3.119,-3.119,-3.119,-3.119,-3.0514,-2.9485,-2.9066,-2.8681,-2.7613,-2.7432,-2.7745,-2.8088,-2.8299,-2.8518,-2.8712,-2.8798,-2.8834,-2.8858,-2.887,-2.887,-2.887,-2.887,-2.8881,-2.9704,-2.9453,-2.8911,-2.8479,-2.8071,-2.7725,-2.7776,-2.8143,-2.8629,-2.9202,-2.9794,-3.0478,-3.0984,-3.1292,-3.1438,-3.1496,-3.1496,-3.1496,-3.1496,-3.1496,-3.1496,-3.1496,-3.1496,-3.1496,-3.1496,-3.1496,-3.1496,-3.1496,-3.1391,-3.0657,-2.9774,-2.8951,-2.8502,-2.8094,-2.7645,-2.7585,-2.7585,-2.7585,-2.7585,-2.7585,-2.7585,-2.7585,-2.7285,-2.6701,-2.6602,-2.6273,-2.5659,-2.5779,-2.5869,-2.5884,-2.6048,-2.6363,-2.6836,-2.6896,-2.7106,-2.7525,-2.7585,-2.7715,-2.7996,-2.8611,-2.9403,-3.0357,-3.1094,-3.1847,-3.2716,-3.3288,-3.3636,-3.3926,-3.4642,-3.5068,-3.5379,-3.5396,-3.5418,-3.5441,-3.5487,-3.5526,-3.5571,-3.5577,-3.5397,-3.4895,-3.4624,-3.4117,-3.3237,-3.2408,-3.1752,-3.1343,-3.1207,-3.119,-3.119,-3.119,-3.119,-3.119,-3.119,-3.119,-3.119,-3.119,-3.0533,-2.957,-2.903,-2.8575,-2.7348,-2.7267,-2.7432,-2.7692,-2.7943,-2.8156,-2.8313,-2.843,-2.8661,-2.8705,-2.873,-2.8748,-2.8712,-2.8712,-2.8743,-2.9465,-2.8787,-2.7808,-2.7415,-2.7289,-2.6817,-2.6794,-2.7196,-2.7617,-2.8195,-2.8949,-2.9903,-3.051,-3.0837,-3.1248,-3.1511,-3.1496,-3.1496,-3.1496,-3.1496,-3.1496,-3.1496,-3.1496,-3.1496,-3.1496,-3.1496,-3.1496,-3.1466,-3.1391,-3.0283,-2.9609,-2.9472,-2.8349,-2.7675,-2.7585,-2.7585,-2.7585,-2.7585,-2.7585,-2.7585,-2.7585,-2.7585,-2.7285,-2.6707,-2.6617,-2.6348,-2.5824,-2.6228,-2.6557,-2.6581,-2.7106,-2.748,-2.7525,-2.7525,-2.7525,-2.7585,-2.7615,-2.7899,-2.8438,-2.8704,-2.924,-3.0263,-3.0646,-3.1031,-3.2059,-3.2508,-3.283,-3.3055,-3.3521,-3.4053,-3.4682,-3.4818,-3.493,-3.5048,-3.5245,-3.5337,-3.5492,-3.5549,-3.56,-3.5414,-3.4895,-3.3969,-3.2598,-3.1698,-3.143,-3.1241,-3.119,-3.119,-3.119,-3.119,-3.119,-3.119,-3.119,-3.119,-3.119,-3.119,-3.0567,-2.9704,-2.913,-2.8638,-2.7589,-2.6891,-2.7152,-2.7322,-2.7552,-2.7745,-2.7883,-2.8119,-2.8439,-2.8563,-2.8629,-2.8624,-2.8489,-2.8456,-2.8507,-2.8699,-2.7846,-2.7457,-2.7092,-2.6776,-2.6575,-2.6624,-2.685,-2.7229,-2.7716,-2.8371,-2.9251,-2.9856,-3.0206,-3.0687,-3.1146,-3.1467,-3.1496,-3.1496,-3.1496,-3.1496,-3.1496,-3.1496,-3.1496,-3.1496,-3.1496,-3.1496,-3.1271,-3.0838,-3.0372,-2.9744,-2.9011,-2.8513,-2.8023,-2.7675,-2.7585,-2.7585,-2.7585,-2.7585,-2.7585,-2.7585,-2.7585,-2.7465,-2.727,-2.7255,-2.7136,-2.6911,-2.7121,-2.7255,-2.724,-2.748,-2.7585,-2.7585,-2.7585,-2.7585,-2.763,-2.8004,-2.8338,-2.8652,-2.9385,-2.9998,-3.0447,-3.0898,-3.1282,-3.1794,-3.215,-3.2425,-3.2614,-3.2895,-3.3277,-3.3527,-3.3843,-3.4161,-3.4399,-3.469,-3.4944,-3.5228,-3.5458,-3.5616,-3.5498,-3.4962,-3.3952,-3.2699,-3.2056,-3.1735,-3.1292,-3.119,-3.119,-3.119,-3.119,-3.119,-3.119,-3.119,-3.119,-3.119,-3.119,-3.0852,-3.0192,-2.96,-2.9247,-2.847,-2.7742,-2.7826,-2.7685,-2.7692,-2.7834,-2.8174,-2.8903,-2.9029,-2.8824,-2.8841,-2.8481,-2.8213,-2.8178,-2.8295,-2.7971,-2.7354,-2.7128,-2.6839,-2.6512,-2.6487,-2.6568,-2.6645,-2.6871,-2.7229,-2.7762,-2.8468,-2.898,-2.9359,-2.9856,-3.0297,-3.0718,-3.0999,-3.1205,-3.1205,-3.1205,-3.1249,-3.1278,-3.1307,-3.1365,-3.1438,-3.1467,-3.1241,-3.0823,-3.0612,-2.9939,-2.8996,-2.8727,-2.8263,-2.7705,-2.7585,-2.7585,-2.7585,-2.7585,-2.7585,-2.7585,-2.7585,-2.7585,-2.7585,-2.7585,-2.7585,-2.7585,-2.7585,-2.7585,-2.7585,-2.7585,-2.7585,-2.7585,-2.7585,-2.7705,-2.7944,-2.8323,-2.8816,-2.9235,-3.0028,-3.0582,-3.0793,-3.1212,-3.1553,-3.1683,-3.1868,-3.1994,-3.212,-3.2244,-3.2367,-3.2449,-3.2718,-3.3145,-3.364,-3.4119,-3.4504,-3.4859,-3.5274,-3.5369,-3.5143,-3.4539,-3.3575,-3.2564,-3.2124,-3.1718,-3.1241,-3.119,-3.119,-3.119,-3.119,-3.119,-3.119,-3.119,-3.119,-3.119,-3.119,-3.092,-3.0294,-3.004,-2.9736,-2.9348,-2.8726,-2.8286,-2.8135,-2.8151,-2.8268,-2.8725,-2.9521,-2.9597,-2.933,-2.889,-2.8486,-2.8217,-2.793,-2.8074,-2.7293,-2.7168,-2.6725,-2.6537,-2.6487,-2.6487,-2.6487,-2.6521,-2.6521,-2.676,-2.7142,-2.755,-2.7999,-2.8371,-2.8871,-2.9034,-2.9268,-3.0009,-3.0477,-3.0523,-3.0538,-3.0628,-3.0747,-3.0911,-3.1131,-3.1351,-3.1438,-3.1496,-3.1391,-3.0838,-3.0238,-2.9577,-2.8951,-2.8338,-2.76,-2.7585,-2.7585,-2.7585,-2.7585,-2.7585,-2.7585,-2.7585,-2.7585,-2.7585,-2.7585,-2.7585,-2.7585,-2.7585,-2.7585,-2.7585,-2.7585,-2.7585,-2.7585,-2.7585,-2.7884,-2.8412,-2.8622,-2.9235,-3.0238,-3.0492,-3.0868,-3.1256,-3.1481,-3.1496,-3.1524,-3.1553,-3.1582,-3.1611,-3.1611,-3.1582,-3.1611,-3.1682,-3.2076,-3.3007,-3.3559,-3.3968,-3.4407,-3.497,-3.5104,-3.4542,-3.3914,-3.3136,-3.2378,-3.1735,-3.1309,-3.1224,-3.119,-3.119,-3.119,-3.119,-3.119,-3.119,-3.119,-3.119,-3.119,-3.114,-3.0751,-3.0359,-3.0294,-3.0108,-2.9788,-2.9249,-2.8911,-2.8727,-2.8881,-2.9004,-2.9213,-2.9868,-2.9971,-2.9693,-2.9121,-2.8739,-2.8495,-2.8298,-2.8002,-2.7102,-2.6751,-2.6575,-2.6487,-2.6487,-2.6487,-2.6487,-2.6487,-2.6487,-2.6611,-2.6837,-2.7183,-2.7497,-2.7776,-2.8143,-2.8306,-2.8338,-2.8693,-2.9044,-2.9439,-2.9487,-2.9656,-2.9934,-3.0343,-3.0837,-3.1351,-3.1467,-3.1496,-3.1437,-3.1271,-3.0702,-2.9756,-2.9385,-2.8693,-2.7675,-2.7585,-2.7585,-2.7585,-2.7585,-2.7585,-2.7585,-2.7585,-2.7585,-2.7585,-2.7585,-2.7585,-2.7585,-2.7585,-2.7585,-2.7585,-2.7585,-2.7585,-2.7585,-2.7585,-2.7889,-2.8547,-2.9041,-2.9609,-3.0402,-3.0913,-3.1241,-3.1451,-3.1496,-3.1496,-3.1496,-3.1496,-3.1496,-3.1496,-3.1496,-3.1496,-3.1496,-3.1496,-3.1783,-3.2302,-3.2738,-3.323,-3.3825,-3.4602,-3.4626,-3.3934,-3.3541,-3.2882,-3.1901,-3.1258,-3.1275,-3.1241,-3.1241,-3.1241,-3.1241,-3.136,-3.119,-3.119,-3.119,-3.1292,-3.136,-3.1309,-3.0987,-3.0751,-3.0666,-3.0598,-3.0262,-2.9974,-2.9617,-2.9448,-2.96,-2.9741,-2.9938,-3.015,-3.0311,-3.0279,-2.9918,-2.954,-2.9111,-2.8749,-2.8416,-2.6813,-2.6499,-2.6487,-2.6487,-2.6487,-2.6487,-2.6487,-2.6487,-2.6487,-2.6555,-2.6658,-2.685,-2.7007,-2.7154,-2.7356,-2.741,-2.7456,-2.741,-2.765,-2.8117,-2.8519,-2.8794,-2.9205,-2.9811,-3.0478,-3.1058,-3.1176,-3.1176,-3.1176,-3.116,-3.0729,-2.9922,-2.9605,-2.9002,-2.8008,-2.772,-2.7585,-2.7585,-2.7585,-2.7585,-2.7585,-2.7585,-2.7585,-2.7585,-2.7585,-2.7585,-2.7585,-2.7585,-2.7585,-2.7585,-2.7585,-2.7585,-2.7585,-2.7615,-2.8019,-2.8858,-2.9397,-2.9953,-3.0776,-3.1256,-3.1496,-3.1496,-3.1496,-3.1496,-3.1496,-3.1496,-3.1496,-3.1496,-3.1496,-3.1496,-3.1496,-3.1496,-3.1611,-3.1798,-3.2203,-3.2749,-3.3465,-3.4284,-3.4419,-3.3801,-3.3604,-3.2896,-3.1911,-3.1516,-3.1536,-3.1576,-3.1596,-3.1782,-3.1884,-3.207,-3.1985,-3.1867,-3.1799,-3.1819,-3.163,-3.1444,-3.1224,-3.1123,-3.1072,-3.1021,-3.0835,-3.0649,-3.0395,-3.0226,-3.026,-3.0243,-3.0425,-3.0804,-3.1016,-3.0829,-3.054,-3.0043,-2.9514,-2.9157,-2.8836,-2.6499,-2.6487,-2.6487,-2.6487,-2.6487,-2.6487,-2.6487,-2.6487,-2.6487,-2.6499,-2.6521,-2.6555,-2.6568,-2.6521,-2.6658,-2.6658,-2.6521,-2.6624,-2.6658,-2.6952,-2.7477,-2.8091,-2.8532,-2.9265,-2.9856,-3.0358,-3.0463,-3.0463,-3.0433,-3.0583,-3.0499,-2.9941,-2.9551,-2.9077,-2.8521,-2.7959,-2.769,-2.76,-2.7585,-2.7585,-2.7585,-2.7585,-2.7585,-2.7585,-2.7585,-2.7585,-2.7585,-2.7585,-2.7585,-2.7585,-2.7585,-2.7585,-2.76,-2.7615,-2.8278,-2.9427,-2.9621,-3.0313,-3.1167,-3.1451,-3.1496,-3.1496,-3.1496,-3.1496,-3.1496,-3.1496,-3.1496,-3.1496,-3.1496,-3.1496,-3.1496,-3.1496,-3.1524,-3.1553,-3.1938,-3.2645,-3.3626,-3.4009,-3.3901,-3.3729,-3.374,-3.3378,-3.1983,-3.1926,-3.2143,-3.2202,-3.2259,-3.2611,-3.2916,-3.3017,-3.3271,-3.3034,-3.256,-3.2259,-3.2053,-3.1819,-3.1546,-3.119,-3.119,-3.1207,-3.119,-3.1055,-3.0987,-3.0852,-3.0751,-3.0751,-3.0855,-3.1133,-3.1271,-3.1068,-3.0709,-3.0277,-3.0025,-2.9776,-2.9493,-2.6487,-2.6487,-2.6487,-2.6487,-2.6487,-2.6487,-2.6487,-2.6487,-2.6487,-2.6487,-2.6487,-2.6487,-2.6487,-2.6487,-2.6487,-2.6487,-2.6487,-2.6487,-2.6487,-2.6533,-2.6714,-2.731,-2.7881,-2.8436,-2.8935,-2.9362,-2.9456,-2.9425,-2.9456,-2.9718,-2.9741,-2.9551,-2.9594,-2.9286,-2.8659,-2.8416,-2.8079,-2.766,-2.7615,-2.7619,-2.7619,-2.7604,-2.7585,-2.7585,-2.7575,-2.76,-2.76,-2.7585,-2.7585,-2.7585,-2.7585,-2.7585,-2.7675,-2.8094,-2.8727,-2.9517,-3.0043,-3.0597,-3.1271,-3.1496,-3.1496,-3.1496,-3.1496,-3.1496,-3.1496,-3.1496,-3.1496,-3.1496,-3.1496,-3.1496,-3.1496,-3.1496,-3.1496,-3.1524,-3.1826,-3.2274,-3.2846,-3.3172,-3.3204,-3.2949,-3.3088,-3.2642,-3.2094,-3.2137,-3.2541,-3.2487,-3.2773,-3.3216,-3.3529,-3.3639,-3.3757,-3.3508,-3.3102,-3.2747,-3.2459,-3.2209,-3.1853,-3.1309,-3.1207,-3.1241,-3.1207,-3.114,-3.1123,-3.1106,-3.1004,-3.0987,-3.1038,-3.1193,-3.119,-3.119,-3.1038,-3.0717,-3.0835,-3.0722,-3.0353,-2.6487,-2.6487,-2.6487,-2.6487,-2.6487,-2.6487,-2.6487,-2.6487,-2.6487,-2.6487,-2.6487,-2.6487,-2.6487,-2.6487,-2.6487,-2.6487,-2.6487,-2.6487,-2.6487,-2.6487,-2.6521,-2.6905,-2.7451,-2.7829,-2.8176,-2.8519,-2.857,-2.8615,-2.8648,-2.8921,-2.9122,-2.927,-2.9358,-2.9217,-2.9083,-2.8697,-2.8432,-2.8092,-2.8004,-2.8004,-2.803,-2.775,-2.7632,-2.7584,-2.7502,-2.7386,-2.7473,-2.7549,-2.7585,-2.766,-2.7854,-2.8019,-2.8053,-2.8652,-2.931,-2.9924,-3.0328,-3.0778,-3.1331,-3.1496,-3.1496,-3.1496,-3.1496,-3.1496,-3.1496,-3.1496,-3.1496,-3.1496,-3.1496,-3.1496,-3.1496,-3.1496,-3.1496,-3.1539,-3.1683,-3.1981,-3.2413,-3.2656,-3.2712,-3.2698,-3.279,-3.2771,-3.1967,-3.2538,-3.2845,-3.3033,-3.3359,-3.3811,-3.4196,-3.4177,-3.4209,-3.4112,-3.3914,-3.3609,-3.3288,-3.3,-3.2679,-3.2121,-3.1546,-3.1512,-3.1309,-3.1258,-3.119,-3.119,-3.119,-3.119,-3.119,-3.119,-3.119,-3.119,-3.119,-3.119,-3.119,-3.119,-3.0891,-2.6487,-2.6487,-2.6487,-2.6487,-2.6487,-2.6487,-2.6487,-2.6487,-2.6487,-2.6487,-2.6487,-2.6487,-2.6487,-2.6487,-2.6487,-2.6487,-2.6487,-2.6487,-2.6487,-2.6487,-2.6521,-2.6748,-2.7061,-2.7276,-2.751,-2.7762,-2.7829,-2.7796,-2.7861,-2.8143,-2.8597,-2.8833,-2.8786,-2.8988,-2.8986,-2.8757,-2.8526,-2.8253,-2.8124,-2.811,-2.8052,-2.775,-2.7476,-2.7301,-2.7132,-2.7107,-2.7295,-2.7488,-2.763,-2.7735,-2.8293,-2.8547,-2.8712,-2.9352,-2.9879,-3.0372,-3.0612,-3.0943,-3.1361,-3.1496,-3.1496,-3.1496,-3.1496,-3.1496,-3.1496,-3.1496,-3.1496,-3.1496,-3.1496,-3.1496,-3.1496,-3.1496,-3.1496,-3.1511,-3.1524,-3.1741,-3.2038,-3.2247,-3.2382,-3.2641,-3.2884,-3.2882,-3.2796,-3.2926,-3.3258,-3.2971,-3.3476,-3.4041,-3.4468,-3.4694,-3.4897,-3.516,-3.4895,-3.4539,-3.4201,-3.3863,-3.3525,-3.3068,-3.2307,-3.1972,-3.1562,-3.1427,-3.1258,-3.119,-3.119,-3.119,-3.119,-3.119,-3.119,-3.119,-3.119,-3.119,-3.119,-3.119,-3.1007,-2.6487,-2.6487,-2.6487,-2.6487,-2.6487,-2.6487,-2.6487,-2.6487,-2.6487,-2.6487,-2.6487,-2.6487,-2.6487,-2.6487,-2.6487,-2.6487,-2.6487,-2.6487,-2.6487,-2.6487,-2.6487,-2.6521,-2.6645,-2.676,-2.6782,-2.6884,-2.6863,-2.685,-2.6952,-2.7276,-2.755,-2.8025,-2.8324,-2.8383,-2.8344,-2.8323,-2.7859,-2.7468,-2.7398,-2.7497,-2.7497,-2.733,-2.7025,-2.6707,-2.6643,-2.6782,-2.7034,-2.7382,-2.7869,-2.8278,-2.8551,-2.8856,-2.9385,-2.9968,-3.0387,-3.0612,-3.1002,-3.1331,-3.1466,-3.1496,-3.1496,-3.1496,-3.1496,-3.1496,-3.1496,-3.1496,-3.1496,-3.1496,-3.1496,-3.1496,-3.1496,-3.1496,-3.1496,-3.1496,-3.1496,-3.1539,-3.164,-3.1697,-3.1796,-3.1881,-3.2104,-3.2109,-3.183,-3.2604,-3.2892,-3.2948,-3.3445,-3.4161,-3.4591,-3.4944,-3.5195,-3.5379,-3.5279,-3.4852,-3.4566,-3.4263,-3.3955,-3.3619,-3.2967,-3.2218,-3.183,-3.1516,-3.1325,-3.1249,-3.119,-3.119,-3.119,-3.119,-3.119,-3.119,-3.119,-3.119,-3.119,-3.119,-3.119,-2.6487,-2.6487,-2.6487,-2.6487,-2.6487,-2.6487,-2.6487,-2.6487,-2.6487,-2.6487,-2.6487,-2.6487,-2.6487,-2.6487,-2.6487,-2.6487,-2.6487,-2.6487,-2.6487,-2.6487,-2.6487,-2.6487,-2.6487,-2.6487,-2.6487,-2.6487,-2.6521,-2.6487,-2.6555,-2.676,-2.7095,-2.7451,-2.7762,-2.7964,-2.8003,-2.7967,-2.7845,-2.7629,-2.7462,-2.7462,-2.7449,-2.7165,-2.6894,-2.6583,-2.6749,-2.7072,-2.7404,-2.7839,-2.8395,-2.8876,-2.9053,-2.9351,-3.0001,-3.0584,-3.0913,-3.1047,-3.1241,-3.1496,-3.1496,-3.1496,-3.1496,-3.1496,-3.1496,-3.1496,-3.1496,-3.1496,-3.1496,-3.1496,-3.1496,-3.1496,-3.1496,-3.1496,-3.1496,-3.1496,-3.1511,-3.1511,-3.1496,-3.1496,-3.1496,-3.1524,-3.1783,-3.1898,-3.2081,-3.242,-3.2647,-3.2761,-3.3045,-3.3703,-3.4153,-3.4505,-3.4859,-3.5048,-3.5165,-3.505,-3.4816,-3.4543,-3.4303,-3.3907,-3.3434,-3.2589,-3.1871,-3.1621,-3.1368,-3.1248,-3.1112,-3.119,-3.119,-3.119,-3.1171,-3.119,-3.119,-3.119,-3.119,-3.119,-3.119,-2.6314,-2.6314,-2.6314,-2.6314,-2.6314,-2.628,-2.628,-2.6349,-2.6383,-2.6396,-2.6465,-2.6487,-2.6487,-2.6487,-2.6487,-2.6487,-2.6487,-2.6487,-2.6487,-2.6487,-2.6487,-2.6487,-2.6487,-2.6487,-2.6487,-2.6487,-2.6487,-2.6487,-2.6521,-2.6624,-2.6803,-2.7108,-2.7255,-2.7404,-2.767,-2.7749,-2.7591,-2.7512,-2.7499,-2.7525,-2.7512,-2.7143,-2.6823,-2.6631,-2.675,-2.7085,-2.7408,-2.7897,-2.8541,-2.9275,-2.9346,-2.9697,-3.0249,-3.0949,-3.1351,-3.1321,-3.1278,-3.1292,-3.1292,-3.1351,-3.1409,-3.1453,-3.1511,-3.1496,-3.1496,-3.166,-3.175,-3.1795,-3.1854,-3.1989,-3.1809,-3.1974,-3.1944,-3.1854,-3.1795,-3.166,-3.163,-3.1585,-3.1496,-3.1539,-3.1626,-3.1705,-3.1875,-3.2145,-3.2382,-3.2602,-3.2873,-3.3193,-3.3626,-3.3958,-3.4243,-3.4464,-3.4545,-3.4553,-3.4355,-3.4257,-3.41,-3.3886,-3.3541,-3.2833,-3.1929,-3.1386,-3.1094,-3.1072,-3.1012,-3.1015,-3.1072,-3.1072,-3.1092,-3.1151,-3.119,-3.119,-3.119,-3.119,-3.119,-2.5488,-2.5488,-2.5488,-2.5488,-2.5488,-2.5488,-2.5558,-2.5758,-2.5898,-2.6097,-2.627,-2.6443,-2.6487,-2.6487,-2.6487,-2.6487,-2.6487,-2.6487,-2.6487,-2.6487,-2.6487,-2.6487,-2.6487,-2.6487,-2.6487,-2.6487,-2.6487,-2.6487,-2.6487,-2.6533,-2.6624,-2.6658,-2.6692,-2.6794,-2.6863,-2.676,-2.6884,-2.6952,-2.6918,-2.6918,-2.6833,-2.6764,-2.6583,-2.6356,-2.6466,-2.6595,-2.6793,-2.7143,-2.7575,-2.8188,-2.8258,-2.8672,-2.9287,-3.0181,-3.0583,-3.0687,-3.0687,-3.0703,-3.0836,-3.1014,-3.1161,-3.1307,-3.1438,-3.154,-3.1645,-3.1989,-3.2198,-3.2482,-3.2781,-3.3095,-3.3155,-3.2976,-3.311,-3.3021,-3.2662,-3.2303,-3.2183,-3.1914,-3.1555,-3.1525,-3.1568,-3.1597,-3.1726,-3.1811,-3.191,-3.2092,-3.2287,-3.2574,-3.2926,-3.3203,-3.3423,-3.364,-3.3777,-3.3777,-3.3728,-3.3721,-3.3666,-3.3521,-3.3215,-3.282,-3.1959,-3.1115,-3.0759,-3.0822,-3.0716,-3.0572,-3.0675,-3.0814,-3.0952,-3.0975,-3.1072,-3.1207,-3.119,-3.119,-3.119,-2.4373,-2.4361,-2.4373,-2.4373,-2.4373,-2.4373,-2.4564,-2.485,-2.5241,-2.5618,-2.5945,-2.6292,-2.6487,-2.6487,-2.6487,-2.6487,-2.6487,-2.6487,-2.6487,-2.6487,-2.6487,-2.6487,-2.6487,-2.6487,-2.6487,-2.6487,-2.6487,-2.6487,-2.6487,-2.6487,-2.6487,-2.6487,-2.6487,-2.6487,-2.6487,-2.6521,-2.6487,-2.6487,-2.6487,-2.6487,-2.6487,-2.6487,-2.6434,-2.6429,-2.6537,-2.6706,-2.6982,-2.7318,-2.766,-2.7949,-2.7989,-2.8197,-2.8547,-2.8944,-2.9449,-2.9713,-2.9794,-2.9903,-3.0162,-3.0404,-3.0733,-3.1014,-3.1336,-3.1661,-3.1959,-3.2318,-3.2676,-3.3005,-3.32,-3.3499,-3.3455,-3.3559,-3.3499,-3.3455,-3.32,-3.2901,-3.2572,-3.2213,-3.1944,-3.169,-3.1644,-3.1629,-3.1524,-3.1553,-3.1524,-3.1611,-3.1769,-3.2038,-3.2342,-3.2532,-3.2788,-3.2949,-3.3119,-3.3103,-3.3103,-3.3103,-3.3103,-3.2993,-3.2867,-3.2494,-3.2069,-3.1256,-3.0835,-3.0736,-3.0528,-3.0167,-3.0236,-3.038,-3.0589,-3.0864,-3.111,-3.128,-3.1221,-3.119,-3.1202,-2.3268,-2.3279,-2.3279,-2.3268,-2.3268,-2.3305,-2.3537,-2.3938,-2.454,-2.4981,-2.5418,-2.5955,-2.6198,-2.6233,-2.628,-2.6314,-2.6383,-2.6383,-2.6452,-2.6487,-2.6487,-2.6487,-2.6487,-2.6487,-2.6487,-2.6487,-2.6487,-2.6487,-2.6487,-2.6487,-2.6487,-2.6487,-2.6487,-2.6487,-2.6487,-2.6487,-2.6487,-2.6487,-2.6487,-2.6487,-2.6487,-2.6487,-2.6555,-2.6645,-2.6952,-2.7043,-2.7146,-2.732,-2.7466,-2.7617,-2.7722,-2.786,-2.7874,-2.7966,-2.8272,-2.87,-2.8816,-2.8998,-2.9359,-3.0023,-3.0479,-3.0799,-3.1382,-3.1931,-3.2347,-3.2657,-3.3062,-3.3585,-3.3886,-3.4007,-3.4113,-3.3963,-3.3978,-3.3948,-3.3844,-3.3529,-3.317,-3.2856,-3.2572,-3.2258,-3.1944,-3.175,-3.169,-3.1496,-3.1496,-3.1511,-3.1655,-3.1697,-3.1966,-3.2035,-3.2216,-3.2382,-3.2477,-3.2461,-3.2461,-3.2434,-3.2407,-3.2376,-3.2314,-3.2102,-3.1821,-3.1431,-3.1088,-3.0654,-3.0086,-2.9808,-2.9879,-3.013,-3.0571,-3.0948,-3.1232,-3.1375,-3.1381,-3.1318,-3.1267,-2.2542,-2.2515,-2.2542,-2.2542,-2.2494,-2.2494,-2.2729,-2.3165,-2.3742,-2.4215,-2.4528,-2.5111,-2.5418,-2.5441,-2.5594,-2.5758,-2.5945,-2.6119,-2.6327,-2.6452,-2.6487,-2.6487,-2.6487,-2.6487,-2.6487,-2.6487,-2.6487,-2.6487,-2.6487,-2.6487,-2.6487,-2.6487,-2.6487,-2.6487,-2.6487,-2.6487,-2.6487,-2.6487,-2.6487,-2.6487,-2.6487,-2.6487,-2.6521,-2.6555,-2.6589,-2.6645,-2.6726,-2.6816,-2.6841,-2.6896,-2.7208,-2.7389,-2.7468,-2.7885,-2.8039,-2.8164,-2.819,-2.8268,-2.8787,-2.9569,-3.0251,-3.0701,-3.149,-3.2179,-3.2457,-3.3039,-3.3665,-3.4643,-3.4804,-3.4909,-3.4978,-3.5145,-3.5205,-3.4951,-3.4607,-3.4367,-3.4053,-3.3514,-3.323,-3.3021,-3.2751,-3.2228,-3.1929,-3.169,-3.1496,-3.1511,-3.1539,-3.1612,-3.164,-3.1739,-3.1796,-3.1951,-3.2007,-3.1992,-3.202,-3.1964,-3.1981,-3.1896,-3.1866,-3.1792,-3.1635,-3.1402,-3.0993,-3.0519,-2.9974,-2.9787,-3.0069,-3.041,-3.0716,-3.1032,-3.1353,-3.1511,-3.1646,-3.1518,-3.1331,-2.1367,-2.1367,-2.1367,-2.1367,-2.1367,-2.1367,-2.1606,-2.2052,-2.2585,-2.3047,-2.35,-2.4011,-2.4264,-2.436,-2.46,-2.4981,-2.5382,-2.5711,-2.6107,-2.6418,-2.6452,-2.6452,-2.6487,-2.6487,-2.6487,-2.6452,-2.6487,-2.6487,-2.6487,-2.6487,-2.6487,-2.6487,-2.6487,-2.6487,-2.6487,-2.6487,-2.6487,-2.6487,-2.6487,-2.6487,-2.6487,-2.6487,-2.6487,-2.6487,-2.6487,-2.6487,-2.6499,-2.6487,-2.6675,-2.6876,-2.7253,-2.7444,-2.7695,-2.7959,-2.8097,-2.8119,-2.8076,-2.8252,-2.8633,-2.9354,-2.9862,-3.03,-3.0982,-3.1457,-3.1979,-3.2834,-3.3662,-3.4302,-3.4677,-3.5019,-3.5359,-3.5489,-3.5489,-3.537,-3.5049,-3.4782,-3.4513,-3.4307,-3.3964,-3.3724,-3.3514,-3.305,-3.2616,-3.2348,-3.2169,-3.2064,-3.1899,-3.1734,-3.1658,-3.1582,-3.1582,-3.1582,-3.1611,-3.1596,-3.1625,-3.1653,-3.1816,-3.1758,-3.1713,-3.1655,-3.1537,-3.1255,-3.1002,-3.0836,-3.0539,-3.0441,-3.0463,-3.0538,-3.0733,-3.1102,-3.1493,-3.1593,-3.169,-3.1498,-3.1339,-2.0615,-2.0615,-2.0615,-2.0615,-2.0615,-2.0615,-2.0809,-2.1167,-2.1834,-2.2265,-2.2681,-2.3181,-2.3393,-2.3449,-2.3737,-2.4179,-2.4707,-2.5123,-2.5641,-2.6025,-2.6198,-2.6129,-2.6129,-2.6176,-2.628,-2.6361,-2.6396,-2.643,-2.6487,-2.6487,-2.6487,-2.6487,-2.6487,-2.6487,-2.6487,-2.6487,-2.6487,-2.6487,-2.6487,-2.6487,-2.6487,-2.6487,-2.6487,-2.6487,-2.6487,-2.6487,-2.6512,-2.67,-2.6989,-2.719,-2.7657,-2.8009,-2.8285,-2.8561,-2.8674,-2.8687,-2.8684,-2.8746,-2.9023,-2.9418,-2.9645,-2.9984,-3.0495,-3.1252,-3.1623,-3.2463,-3.3157,-3.3699,-3.4075,-3.4558,-3.5049,-3.5195,-3.5129,-3.5096,-3.507,-3.4824,-3.4557,-3.4297,-3.4206,-3.4115,-3.3984,-3.3995,-3.3611,-3.3227,-3.293,-3.2721,-3.2378,-3.2004,-3.1899,-3.1854,-3.1959,-3.2079,-3.2198,-3.2213,-3.2168,-3.2079,-3.1989,-3.1839,-3.1795,-3.175,-3.1795,-3.1615,-3.1346,-3.1152,-3.0986,-3.0964,-3.0937,-3.0823,-3.0742,-3.1211,-3.1609,-3.1661,-3.1681,-3.1498,-3.1406,-2.0615,-2.0615,-2.0615,-2.0615,-2.0615,-2.0615,-2.0731,-2.1034,-2.1745,-2.2152,-2.2457,-2.2797,-2.2981,-2.299,-2.3031,-2.3357,-2.395,-2.4312,-2.4791,-2.5158,-2.5382,-2.53,-2.537,-2.5488,-2.5746,-2.5945,-2.6084,-2.6292,-2.6465,-2.6487,-2.6487,-2.6487,-2.6487,-2.6487,-2.66,-2.6725,-2.6751,-2.6751,-2.6738,-2.67,-2.6675,-2.665,-2.6625,-2.6562,-2.6524,-2.6499,-2.6524,-2.6939,-2.7318,-2.7482,-2.816,-2.8674,-2.8888,-2.9202,-2.9365,-2.9377,-2.939,-2.9416,-2.958,-2.9613,-2.9803,-3.0236,-3.0689,-3.1083,-3.1239,-3.1775,-3.239,-3.2875,-3.3248,-3.3748,-3.4167,-3.4448,-3.4351,-3.4337,-3.4303,-3.4216,-3.4057,-3.4085,-3.4057,-3.4307,-3.4291,-3.4098,-3.4257,-3.3805,-3.3645,-3.3423,-3.311,-3.2736,-3.2751,-3.2736,-3.2841,-3.2991,-3.317,-3.3245,-3.3275,-3.3125,-3.2826,-3.2647,-3.2557,-3.2407,-3.2303,-3.2049,-3.1735,-3.1436,-3.1256,-3.1331,-3.136,-3.1185,-3.1167,-3.1501,-3.1719,-3.1725,-3.1675,-3.1566,-3.1543,-2.0615,-2.0615,-2.0615,-2.0615,-2.0615,-2.0615,-2.0762,-2.1105,-2.1402,-2.1749,-2.2119,-2.2251,-2.215,-2.2057,-2.2208,-2.2408,-2.2756,-2.3169,-2.3706,-2.4059,-2.4192,-2.4192,-2.4301,-2.4576,-2.4886,-2.5312,-2.5653,-2.6119,-2.6452,-2.6483,-2.6499,-2.6487,-2.6518,-2.6751,-2.6914,-2.7241,-2.7381,-2.7419,-2.7444,-2.7469,-2.7469,-2.7444,-2.7318,-2.7014,-2.7002,-2.7002,-2.704,-2.7203,-2.7645,-2.8161,-2.8662,-2.9013,-2.9352,-2.9666,-2.9767,-2.9779,-2.9779,-2.9779,-2.9779,-2.9796,-2.9847,-2.9897,-3.024,-3.0495,-3.0608,-3.0848,-3.1294,-3.1796,-3.2304,-3.2769,-3.3178,-3.3283,-3.3269,-3.3283,-3.3318,-3.3367,-3.3367,-3.3367,-3.3402,-3.3394,-3.365,-3.3756,-3.4037,-3.4332,-3.4221,-3.414,-3.3783,-3.3529,-3.3544,-3.3469,-3.3529,-3.3649,-3.3829,-3.3784,-3.3784,-3.3679,-3.3559,-3.3469,-3.3365,-3.311,-3.2886,-3.2452,-3.2138,-3.1824,-3.154,-3.1525,-3.1493,-3.1414,-3.1449,-3.1569,-3.1645,-3.168,-3.1637,-3.1581,-3.1647,-2.0615,-2.0615,-2.0615,-2.0615,-2.0625,-2.0752,-2.0937,-2.12,-2.1533,-2.1855,-2.2236,-2.2129,-2.1836,-2.1585,-2.16,-2.1895,-2.2171,-2.2539,-2.3032,-2.3356,-2.3544,-2.3363,-2.3446,-2.3689,-2.4095,-2.4647,-2.5266,-2.5767,-2.6346,-2.6516,-2.6593,-2.6618,-2.6708,-2.698,-2.7256,-2.7808,-2.8122,-2.8109,-2.8109,-2.8109,-2.8072,-2.8047,-2.7946,-2.7494,-2.7392,-2.7381,-2.7457,-2.7645,-2.8021,-2.8599,-2.9063,-2.939,-2.9628,-2.9779,-2.9779,-2.9779,-2.9779,-2.9779,-2.9779,-2.9779,-2.9779,-2.9845,-2.9819,-2.9895,-2.9856,-3.0113,-3.0684,-3.1057,-3.1429,-3.1773,-3.2227,-3.2349,-3.2349,-3.2384,-3.2384,-3.2398,-3.2384,-3.2384,-3.2384,-3.2371,-3.2706,-3.3122,-3.3699,-3.4086,-3.4494,-3.4441,-3.4276,-3.4188,-3.4382,-3.4262,-3.4083,-3.4203,-3.4382,-3.4277,-3.4158,-3.4292,-3.4427,-3.4352,-3.4173,-3.3739,-3.344,-3.3036,-3.2557,-3.2168,-3.1914,-3.172,-3.1584,-3.1477,-3.1463,-3.1508,-3.1552,-3.1623,-3.1635,-3.1617,-3.1766,-2.0615,-2.0615,-2.0615,-2.0615,-2.0654,-2.1025,-2.12,-2.1424,-2.2068,-2.2565,-2.2818,-2.2574,-2.2227,-2.1877,-2.1747,-2.178,-2.1936,-2.2272,-2.2723,-2.3177,-2.3005,-2.2967,-2.2984,-2.3118,-2.3462,-2.4045,-2.465,-2.5347,-2.6044,-2.6197,-2.6474,-2.6719,-2.6771,-2.7237,-2.7335,-2.7871,-2.8134,-2.8147,-2.8235,-2.8298,-2.8335,-2.836,-2.8298,-2.8034,-2.777,-2.7795,-2.8009,-2.8097,-2.8461,-2.9001,-2.944,-2.9666,-2.9754,-2.9779,-2.9779,-2.9779,-2.9779,-2.9779,-2.9779,-2.9779,-2.9779,-2.9779,-2.9779,-2.9779,-2.9818,-2.9998,-3.0216,-3.0545,-3.0835,-3.1097,-3.1368,-3.1502,-3.1466,-3.1429,-3.1429,-3.1392,-3.1392,-3.1392,-3.1355,-3.1378,-3.1846,-3.2345,-3.3044,-3.3707,-3.4438,-3.4673,-3.4658,-3.4739,-3.4852,-3.484,-3.4539,-3.4648,-3.4797,-3.4876,-3.4846,-3.516,-3.528,-3.5205,-3.4921,-3.4442,-3.4053,-3.3709,-3.3215,-3.2662,-3.2302,-3.2064,-3.178,-3.1511,-3.1511,-3.1496,-3.1496,-3.1538,-3.1553,-3.1596,-3.1732,-2.0615,-2.0615,-2.0615,-2.0615,-2.0674,-2.1045,-2.1492,-2.2119,-2.2604,-2.2818,-2.2783,-2.2769,-2.251,-2.2122,-2.2024,-2.1922,-2.1629,-2.1927,-2.2391,-2.2493,-2.2402,-2.2281,-2.2332,-2.2659,-2.2969,-2.3502,-2.4143,-2.4692,-2.523,-2.5604,-2.5531,-2.5658,-2.675,-2.755,-2.8176,-2.8775,-2.9239,-2.9239,-2.9252,-2.9239,-2.9214,-2.9164,-2.9013,-2.8662,-2.8411,-2.8411,-2.8624,-2.8637,-2.8863,-2.934,-2.9741,-2.9767,-2.9779,-2.9779,-2.9779,-2.9779,-2.9779,-2.9779,-2.9779,-2.9779,-2.9779,-2.9804,-2.9842,-2.9854,-2.9843,-2.9856,-2.996,-3.0126,-3.0369,-3.0548,-3.033,-3.0394,-3.0394,-3.0368,-3.033,-3.033,-3.033,-3.033,-3.033,-3.0432,-3.0735,-3.1468,-3.2187,-3.2769,-3.3471,-3.3879,-3.3792,-3.4306,-3.4563,-3.4806,-3.4771,-3.5011,-3.518,-3.5367,-3.5489,-3.5489,-3.5489,-3.537,-3.522,-3.4981,-3.4637,-3.4337,-3.3873,-3.332,-3.2856,-3.2392,-3.2108,-3.1839,-3.1585,-3.1496,-3.1496,-3.1496,-3.1524,-3.1524,-3.1552,-2.0615,-2.0615,-2.0615,-2.0703,-2.085,-2.1279,-2.1943,-2.2685,-2.2974,-2.2935,-2.2799,-2.2974,-2.273,-2.2353,-2.2305,-2.2334,-2.1678,-2.1943,-2.2275,-2.2256,-2.2148,-2.2193,-2.2278,-2.2335,-2.2676,-2.3163,-2.3663,-2.4199,-2.473,-2.4883,-2.5136,-2.5648,-2.645,-2.7301,-2.8213,-2.8975,-2.9704,-2.9666,-2.9628,-2.9666,-2.9679,-2.9666,-2.9553,-2.9252,-2.9051,-2.895,-2.9101,-2.9164,-2.9151,-2.9565,-2.974,-2.9779,-2.9779,-2.9779,-2.9779,-2.9779,-2.9779,-2.9779,-2.9779,-3.0068,-3.0118,-3.0143,-3.008,-3.0181,-3.0281,-3.0497,-3.0484,-3.0459,-3.0294,-3.0346,-3.0346,-3.0281,-3.0308,-3.0308,-3.0321,-3.0385,-3.0398,-3.0502,-3.0388,-3.0364,-3.0355,-3.0954,-3.1397,-3.1796,-3.2384,-3.2648,-3.2847,-3.3451,-3.4065,-3.4404,-3.4673,-3.492,-3.5213,-3.5392,-3.5472,-3.5489,-3.5489,-3.5489,-3.532,-3.5153,-3.519,-3.4876,-3.4427,-3.4023,-3.3633,-3.3185,-3.2557,-3.2183,-3.1944,-3.169,-3.1496,-3.1496,-3.1496,-3.1496,-3.1496,-2.0615,-2.0615,-2.0615,-2.0801,-2.1221,-2.1621,-2.2314,-2.3003,-2.3081,-2.3071,-2.3042,-2.3033,-2.2808,-2.2559,-2.2529,-2.249,-2.2441,-2.248,-2.2662,-2.2808,-2.2613,-2.2578,-2.2464,-2.2436,-2.2679,-2.298,-2.3381,-2.3826,-2.4354,-2.4472,-2.4955,-2.5585,-2.6099,-2.6758,-2.7544,-2.8374,-2.917,-2.9378,-2.9507,-2.9468,-2.9468,-2.9585,-2.9457,-2.9246,-2.9072,-2.9084,-2.9122,-2.9135,-2.9211,-2.941,-2.9663,-2.9714,-2.9753,-2.9753,-2.974,-2.9779,-2.9779,-2.9779,-2.9854,-3.0206,-3.057,-3.0608,-3.0721,-3.0972,-3.1085,-3.1125,-3.1022,-3.1047,-3.1022,-3.116,-3.1235,-3.1198,-3.1148,-3.1201,-3.1201,-3.1213,-3.1226,-3.1163,-3.0999,-3.0863,-3.0743,-3.0971,-3.1007,-3.1303,-3.1498,-3.1392,-3.1649,-3.2001,-3.2733,-3.3728,-3.4022,-3.4476,-3.482,-3.5276,-3.5341,-3.518,-3.5195,-3.5082,-3.5195,-3.5073,-3.5222,-3.5145,-3.4676,-3.4317,-3.436,-3.3931,-3.2973,-3.2497,-3.2288,-3.2049,-3.1809,-3.1585,-3.16,-3.1511,-3.1496,-2.0615,-2.0615,-2.0615,-2.0674,-2.0859,-2.1572,-2.2041,-2.2295,-2.2779,-2.2945,-2.2715,-2.2964,-2.2867,-2.2549,-2.2769,-2.2701,-2.2691,-2.2803,-2.2978,-2.2984,-2.2935,-2.2916,-2.2891,-2.2816,-2.2926,-2.3021,-2.3229,-2.344,-2.3481,-2.3744,-2.4046,-2.4402,-2.5231,-2.5694,-2.6307,-2.7017,-2.7903,-2.8578,-2.8736,-2.8816,-2.8816,-2.8816,-2.8816,-2.8718,-2.8606,-2.863,-2.8618,-2.8657,-2.8682,-2.8755,-2.8867,-2.8907,-2.9091,-2.9221,-2.9378,-2.974,-2.9779,-2.9792,-2.9892,-3.0319,-3.0758,-3.116,-3.1461,-3.1474,-3.1512,-3.1486,-3.1512,-3.1599,-3.1637,-3.17,-3.1741,-3.1729,-3.1687,-3.1687,-3.1687,-3.17,-3.17,-3.165,-3.1486,-3.1301,-3.1143,-3.0895,-3.0893,-3.0676,-3.0791,-3.0458,-3.0482,-3.0898,-3.1429,-3.2492,-3.3248,-3.3665,-3.4124,-3.4505,-3.4635,-3.4534,-3.4635,-3.4683,-3.4668,-3.462,-3.4558,-3.4514,-3.4537,-3.4394,-3.4087,-3.3647,-3.3084,-3.2805,-3.2733,-3.2512,-3.2273,-3.1944,-3.169,-3.163,-3.1615,-2.0615,-2.0615,-2.0615,-2.0615,-2.0752,-2.1504,-2.1936,-2.2041,-2.2773,-2.2935,-2.276,-2.2994,-2.2955,-2.2799,-2.2955,-2.2964,-2.2832,-2.2935,-2.3081,-2.3081,-2.3101,-2.3071,-2.3091,-2.3101,-2.3086,-2.3101,-2.3101,-2.3163,-2.3101,-2.3144,-2.3363,-2.3754,-2.4307,-2.4681,-2.5231,-2.583,-2.6381,-2.701,-2.7418,-2.7672,-2.7753,-2.7742,-2.7713,-2.7753,-2.7753,-2.7753,-2.7742,-2.7742,-2.7701,-2.7701,-2.7713,-2.7862,-2.8223,-2.8593,-2.926,-2.9663,-2.9779,-2.9779,-2.9905,-3.0557,-3.0997,-3.1486,-3.2047,-3.2303,-3.2252,-3.2269,-3.2244,-3.2244,-3.2152,-3.2114,-3.2131,-3.2118,-3.2089,-3.2102,-3.2102,-3.2102,-3.2102,-3.2102,-3.1913,-3.1687,-3.1399,-3.1085,-3.0823,-3.052,-3.0358,-3.0401,-3.0379,-3.0458,-3.0876,-3.1526,-3.2182,-3.2684,-3.3178,-3.361,-3.3693,-3.3742,-3.3693,-3.3644,-3.3596,-3.3596,-3.3693,-3.3679,-3.3587,-3.3557,-3.3565,-3.3225,-3.2966,-3.3231,-3.3258,-3.3,-3.281,-3.2691,-3.2288,-3.1809,-3.1824,-2.0615,-2.0615,-2.0615,-2.0615,-2.0732,-2.1504,-2.1936,-2.1992,-2.273,-2.3091,-2.3081,-2.3091,-2.3081,-2.3013,-2.3081,-2.3091,-2.3003,-2.3071,-2.3101,-2.3101,-2.3101,-2.3101,-2.3101,-2.3101,-2.3101,-2.3101,-2.3101,-2.3101,-2.3101,-2.3144,-2.3232,-2.3503,-2.382,-2.4145,-2.437,-2.4669,-2.5041,-2.5253,-2.5788,-2.611,-2.6412,-2.6442,-2.64,-2.6442,-2.6453,-2.6453,-2.6453,-2.64,-2.64,-2.64,-2.6483,-2.6648,-2.7354,-2.8023,-2.8843,-2.9462,-2.9642,-2.9766,-2.9988,-3.0608,-3.105,-3.1631,-3.2344,-3.2584,-3.2566,-3.2687,-3.2679,-3.2722,-3.2671,-3.2671,-3.2659,-3.2646,-3.2659,-3.2659,-3.2659,-3.2659,-3.2659,-3.2591,-3.2491,-3.2215,-3.1838,-3.1549,-3.1399,-3.1135,-3.0821,-3.0708,-3.047,-3.0399,-3.047,-3.0901,-3.127,-3.1773,-3.2254,-3.267,-3.2684,-3.2684,-3.2621,-3.2571,-3.2571,-3.2621,-3.2706,-3.2635,-3.2536,-3.2658,-3.28,-3.3063,-3.3063,-3.3283,-3.343,-3.3376,-3.3281,-3.3405,-3.2988,-3.2273,-3.2049,-2.0615,-2.0615,-2.0615,-2.0615,-2.0723,-2.1554,-2.1936,-2.1973,-2.273,-2.3091,-2.3101,-2.3101,-2.3101,-2.3101,-2.3101,-2.3101,-2.3101,-2.3101,-2.3101,-2.3101,-2.3101,-2.3101,-2.3101,-2.3101,-2.3101,-2.3101,-2.3101,-2.3101,-2.3101,-2.3101,-2.3144,-2.3188,-2.344,-2.3517,-2.357,-2.3777,-2.3831,-2.3988,-2.4184,-2.4891,-2.5487,-2.5528,-2.5516,-2.5506,-2.5539,-2.554,-2.554,-2.555,-2.5506,-2.5516,-2.5516,-2.6008,-2.6853,-2.7458,-2.8288,-2.9101,-2.9254,-2.9395,-2.9758,-3.0295,-3.0658,-3.1089,-3.1613,-3.2191,-3.2581,-3.2896,-3.3068,-3.3081,-3.3124,-3.3124,-3.3124,-3.3124,-3.3124,-3.3124,-3.3124,-3.3124,-3.3124,-3.3074,-3.298,-3.2679,-3.229,-3.2114,-3.1964,-3.1738,-3.1411,-3.1085,-3.0746,-3.0495,-3.0358,-3.056,-3.0674,-3.1099,-3.1442,-3.1746,-3.1709,-3.1673,-3.1636,-3.1659,-3.1696,-3.1696,-3.1733,-3.1673,-3.1636,-3.1869,-3.2055,-3.2313,-3.2695,-3.3239,-3.3384,-3.3325,-3.3328,-3.3249,-3.315,-3.2576,-3.2457,-2.0615,-2.0615,-2.0615,-2.0615,-2.0772,-2.1504,-2.1936,-2.2041,-2.274,-2.3101,-2.3101,-2.3101,-2.3101,-2.3101,-2.3101,-2.3101,-2.3101,-2.3101,-2.3101,-2.3101,-2.3101,-2.3101,-2.3101,-2.3101,-2.3101,-2.3101,-2.3101,-2.3101,-2.3101,-2.3101,-2.3101,-2.3101,-2.3101,-2.3101,-2.3101,-2.311,-2.3218,-2.3482,-2.3418,-2.3993,-2.481,-2.4769,-2.4766,-2.4743,-2.4835,-2.4869,-2.4856,-2.4856,-2.4856,-2.4851,-2.4898,-2.5157,-2.5846,-2.6468,-2.7277,-2.7976,-2.8363,-2.8672,-2.9098,-2.9526,-2.9864,-3.0182,-3.0729,-3.1202,-3.1845,-3.2196,-3.2797,-3.2853,-3.3081,-3.3124,-3.3124,-3.3124,-3.3124,-3.3124,-3.3124,-3.3124,-3.3124,-3.3111,-3.3086,-3.2986,-3.2704,-3.2667,-3.2554,-3.2541,-3.219,-3.1775,-3.1386,-3.0856,-3.0683,-3.0357,-3.0444,-3.0471,-3.0849,-3.0797,-3.0684,-3.0646,-3.0646,-3.0722,-3.0859,-3.0746,-3.0746,-3.0722,-3.0772,-3.0985,-3.1233,-3.1489,-3.2001,-3.2555,-3.2939,-3.2901,-3.2953,-3.3002,-3.2851,-3.27,-3.2439,-2.0703,-2.0683,-2.0625,-2.0644,-2.0811,-2.1533,-2.1934,-2.2109,-2.2793,-2.3101,-2.3101,-2.3101,-2.3101,-2.3101,-2.3101,-2.3101,-2.3101,-2.3101,-2.3101,-2.3101,-2.3101,-2.3101,-2.3101,-2.3101,-2.3101,-2.3101,-2.3101,-2.3101,-2.3101,-2.3101,-2.3101,-2.3101,-2.311,-2.313,-2.3159,-2.3227,-2.3437,-2.376,-2.3926,-2.4111,-2.4186,-2.4102,-2.4248,-2.4359,-2.4424,-2.4424,-2.4414,-2.4404,-2.4394,-2.4506,-2.4621,-2.4917,-2.5267,-2.5882,-2.6563,-2.7269,-2.7687,-2.7855,-2.8044,-2.8489,-2.8622,-2.8846,-2.958,-3.0271,-3.0911,-3.1524,-3.212,-3.2581,-3.281,-3.3038,-3.3038,-3.3081,-3.3081,-3.3081,-3.3081,-3.3081,-3.3081,-3.3081,-3.3081,-3.3081,-3.3056,-3.3031,-3.3031,-3.3031,-3.2817,-3.2386,-3.1985,-3.1521,-3.1069,-3.0696,-3.0502,-3.0314,-3.0317,-3.0151,-2.9908,-2.9998,-3.0152,-3.0113,-3.0254,-2.996,-2.9856,-3.0113,-3.019,-3.0088,-3.0368,-3.0835,-3.1158,-3.1663,-3.1983,-3.2324,-3.2376,-3.24,-3.2364,-3.2199,-3.2073,-2.1113,-2.1084,-2.0732,-2.0771,-2.1152,-2.168,-2.208,-2.2441,-2.2857,-2.3101,-2.3101,-2.3101,-2.3101,-2.3101,-2.3101,-2.3101,-2.3101,-2.3101,-2.3101,-2.3101,-2.3101,-2.3101,-2.3101,-2.3101,-2.3101,-2.3101,-2.3101,-2.3101,-2.313,-2.312,-2.311,-2.314,-2.3159,-2.3305,-2.3662,-2.373,-2.3857,-2.416,-2.4355,-2.4512,-2.4697,-2.4609,-2.4375,-2.4404,-2.4424,-2.4424,-2.4414,-2.4414,-2.4414,-2.4477,-2.4631,-2.4902,-2.5147,-2.5571,-2.6183,-2.6608,-2.7022,-2.7313,-2.7547,-2.7708,-2.7793,-2.7918,-2.8598,-2.9211,-2.9852,-3.0453,-3.1092,-3.1769,-3.2133,-3.2711,-3.2797,-3.2896,-3.2909,-3.2909,-3.2909,-3.2909,-3.2909,-3.2909,-3.2909,-3.2909,-3.2896,-3.2884,-3.2884,-3.2884,-3.2871,-3.2534,-3.2314,-3.1876,-3.1642,-3.117,-3.067,-3.0407,-3.0156,-2.988,-2.983,-2.9818,-2.9895,-2.9818,-2.9779,-2.9779,-2.9779,-2.9779,-2.983,-2.983,-2.996,-3.0355,-3.0684,-3.091,-3.1182,-3.1499,-3.1659,-3.1719,-3.1686,-3.1609,-3.1402]},{"header":{"parameterUnit":"m.s-1","parameterCategory":1,"la1":31.0,"la2":29.5877,"lo1":-88.7671,"lo2":-86.6584,"dy":0.0162,"dx":0.0185,"nx":115,"ny":88,"refTime":"2026-05-14T12:00:00:Z","depth":0,"parameterNumber":3,"parameterNumberName":"V-component_of_WINDS"},"data":[0.0,0.0,0.0,0.0,0.0,0.0,0.0,0.0,0.0,0.0,0.0,0.0,0.0,0.0,0.0,0.0,0.0,0.0,0.0,0.0,0.0,0.0,0.0,0.0,0.0,0.0,0.0,0.0,0.0,0.0,0.0,0.0,0.0,0.0,0.0,0.0,0.0,0.0,0.0,0.0,0.0,0.0,0.0,0.0,0.0,0.0,0.0,0.0,0.0,0.0,0.0,0.0,0.0,0.0,0.0,0.0,0.0,0.0,0.0,0.0,0.0,0.0,0.0,0.0,0.0,0.0,0.0,0.0,0.0,0.0,0.0,0.0,0.0,0.0,0.0,0.0,0.0,0.0,0.0,0.0,0.0,0.0,0.0,0.0,0.0,0.0,0.0,0.0,0.0,0.0,0.0,0.0,0.0,0.0,0.0,0.0,0.0,0.0,0.0,0.0,0.0,0.0,0.0,0.0,0.0,0.0,0.0,0.0,0.0,0.0,0.0,0.0,0.0,0.0,0.0,0.0,0.0,0.0,0.0,0.0,0.0,0.0,0.0,0.0,0.0,0.0,0.0,0.0,0.0,0.0,0.0,0.0,0.0,0.0,0.0,0.0,0.0,0.0,0.0,0.0,0.0,0.0,0.0,0.0,0.0,0.0,0.0,0.0,0.0,0.0,0.0,0.0,0.0,0.0,0.0,0.0,0.0,0.0,0.0,0.0,0.0,0.0,0.0,0.0,0.0,0.0,0.0,0.0,0.0,0.0,0.0,0.0,0.0,0.0,0.0,0.0,0.0,0.0,0.0,0.0,0.0,0.0,0.0,0.0,0.0,0.0,0.0,0.0,0.0,0.0,0.0,0.0,0.0,0.0,0.0,0.0,0.0,0.0,0.0,0.0,0.0,0.0,0.0,0.0,0.0,0.0,0.0,0.0,0.0,0.0,0.0,0.0,0.0,0.0,0.0,0.0,0.0,0.0,0.0,0.0,0.0,0.0,0.0,0.0,0.0,0.0,0.0,0.0,0.0,0.0,0.0,0.0,0.0,0.0,0.0,0.0,0.0,0.0,0.0,0.0,0.0,0.0,0.0,0.0,0.0,0.0,0.0,0.0,0.0,0.0,0.0,0.0,0.0,0.0,0.0,0.0,0.0,0.0,0.0,0.0,0.0,0.0,0.0,0.0,0.0,0.0,0.0,0.0,0.0,0.0,0.0,0.0,0.0,0.0,0.0,0.0,0.0,0.0,0.0,0.0,0.0,0.0,0.0,0.0,0.0,0.0,0.0,0.0,0.0,0.0,0.0,0.0,0.0,0.0,0.0,0.0,0.0,0.0,0.0,0.0,0.0,0.0,0.0,0.0,0.0,0.0,0.0,0.0,0.0,0.0,0.0,0.0,0.0,0.0,0.0,0.0,0.0,0.0,0.0,0.0,0.0,0.0,0.0,0.0,0.0,0.0,0.0,0.0,0.0,0.0,0.0,0.0,0.0,0.0,0.0,0.0,0.0,0.0,0.0,0.0,0.0,0.0,0.0,0.0,0.0,0.0,0.0,0.0,0.0,0.0,0.0,0.0,0.0,0.0,0.0,0.0,0.0,0.0,0.0,0.0,0.0,0.0,0.0,0.0,0.0,0.0,0.0,0.0,0.0,0.0,0.0,0.0,0.0,0.0,0.0,0.0,0.0,0.0,0.0,0.0,0.0,0.0,0.0,0.0,0.0,0.0,0.0,0.0,0.0,0.0,0.0,0.0,0.0,0.0,0.0,0.0,0.0,0.0,0.0,0.0,0.0,0.0,0.0,0.0,0.0,0.0,0.0,0.0,0.0,0.0,0.0,0.0,0.0,0.0,0.0,0.0,0.0,0.0,0.0,0.0,0.0,0.0,0.0,0.0,0.0,0.0,0.0,0.0,0.0,0.0,0.0,0.0,0.0,0.0,0.0,0.0,0.0,0.0,0.0,0.0,0.0,0.0,0.0,0.0,0.0,0.0,0.0,0.0,0.0,0.0,0.0,0.0,0.0,0.0,0.0,0.0,0.0,0.0,0.0,0.0,0.0,0.0,0.0,0.0,0.0,0.0,0.0,0.0,0.0,0.0,0.0,0.0,0.0,0.0,0.0,0.0,0.0,0.0,0.0,0.0,0.0,0.0,0.0,0.0,0.0,0.0,0.0,0.0,0.0,0.0,0.0,0.0,0.0,0.0,0.0,0.0,0.0,0.0,0.0,0.0,0.0,0.0,0.0,0.0,0.0,0.0,0.0,0.0,0.0,0.0,0.0,0.0,0.0,0.0,0.0,0.0,0.0,0.0,0.0,0.0,0.0,0.0,0.0,0.0,0.0,0.0,0.0,0.0,0.0,0.0,0.0,0.0,0.0,0.0,0.0,0.0,0.0,0.0,0.0,0.0,0.0,0.0,0.0,0.0,0.0,0.0,0.0,0.0,0.0,0.0,0.0,0.0,0.0,0.0,0.0,0.0,0.0,0.0,0.0,0.0,0.0,0.0,0.0,0.0,0.0,0.0,0.0,0.0,0.0,0.0,0.0,0.0,0.0,0.0,0.0,0.0,0.0,0.0,0.0,0.0,0.0,0.0,0.0,0.0,0.0,0.0,0.0,0.0,0.0,0.0,0.0,0.0,0.0,0.0,0.0,0.0,0.0,0.0,0.0,0.0,0.0,0.0,0.0,0.0,0.0,0.0,0.0,0.0,0.0,0.0,0.0,0.0,0.0,0.0,0.0,0.0,0.0,0.0,0.0,0.0,0.0,0.0,0.0,0.0,0.0,0.0,0.0,0.0,0.0,0.0,0.0,0.0,0.0,0.0,0.0,0.0,0.0,0.0,0.0,0.0,0.0,0.0,0.0,0.0,0.0,0.0,0.0,0.0,0.0,0.0,0.0,0.0,0.0,0.0,0.0,0.0,0.0,0.0,0.0,0.0,0.0,0.0,0.0,0.0,0.0,0.0,0.0,0.0,0.0,0.0,0.0,0.0,0.0,0.0,0.0,0.0,0.0,0.0,0.0,0.0,0.0,0.0,0.0,0.0,0.0,0.0,0.0,0.0,0.0,0.0,0.0,0.0,0.0,0.0,0.0,0.0,0.0,0.0,0.0,0.0,0.0,0.0,0.0,0.0,0.0,0.0,0.0,0.0,0.0,0.0,0.0,0.0,0.0,0.0,0.0,0.0,0.0,0.0,0.0,0.0,0.0,0.0,0.0,0.0,0.0,0.0,0.0,0.0,0.0,0.0,0.0,0.0,0.0,0.0,0.0,0.0,0.0,0.0,0.0,0.0,0.0,0.0,0.0,0.0,0.0,0.0,0.0,0.0,0.0,0.0,0.0,0.0,0.0,0.0,0.0,0.0,0.0,0.0,0.0,0.0,0.0,0.0,0.0,0.0,0.0,0.0,0.0,0.0,0.0,0.0,0.0,0.0,0.0,0.0,0.0,0.0,0.0,0.0,0.0,0.0,0.0,0.0,0.0,0.0,0.0,0.0,0.0,0.0,0.0,0.0,0.0,0.0,0.0,0.0,0.0,0.0,0.0,0.0,0.0,0.0,0.0,0.0,0.0,0.0,0.0,0.0,0.0,0.0,0.0,0.0,0.0,0.0,0.0,0.0,0.0,0.0,0.0,0.0,0.0,0.0,0.0,0.0,0.0,0.0,0.0,0.0,0.0,0.0,0.0,0.0,0.0,0.0,0.0,0.0,0.0,0.0,0.0,0.0,0.0,0.0,0.0,0.0,0.0,0.0,0.0,0.0,0.0,0.0,0.0,0.0,0.0,0.0,0.0,0.0,0.0,0.0,0.0,0.0,0.0,0.0,0.0,0.0,0.0,0.0,0.0,0.0,0.0,0.0,0.0,0.0,0.0,0.0,0.0,0.0,0.0,0.0,0.0,0.0,0.0,0.0,0.0,0.0,0.0,0.0,0.0,0.0,0.0,0.0,0.0,0.0,0.0,0.0,0.0,0.0,0.0,0.0,0.0,0.0,0.0,0.0,0.0,0.0,0.0,0.0,0.0,0.0,0.0,0.0,0.0,0.0,0.0,0.0,0.0,0.0,0.0,0.0,0.0,0.0,0.0,0.0,0.0,0.0,0.0,0.0,0.0,0.0,0.0,0.0,0.0,0.0,0.0,0.0,0.0,0.0,0.0,0.0,0.0,0.0,0.0,0.0,0.0,0.0,0.0,0.0,0.0,0.0,0.0,0.0,0.0,0.0,0.0,0.0,0.0,0.0,0.0,0.0,0.0,0.0,0.0,0.0,0.0,0.0,0.0,0.0,0.0,0.0,0.0,0.0,0.0,0.0,0.0,0.0,0.0,0.0,0.0,0.0,0.0,0.0,0.0,0.0,0.0,0.0,0.0,0.0,0.0,0.0,0.0,0.0,0.0,0.0,0.0,0.0,0.0,0.0,0.0,0.0,0.0,0.0,0.0,0.0,0.0,0.0,0.0,0.0,0.0,0.0,0.0,0.0,0.0,0.0,0.0,0.0,0.0,0.0,0.0,0.0,0.0,0.0,0.0,0.0,0.0,0.0,0.0,0.0,0.0,0.0,0.0,0.0,0.0,0.0,0.0,0.0,0.0,0.0,0.0,0.0,0.0,0.0,0.0,0.0,0.0,0.0,0.0,0.0,0.0,0.0,0.0,0.0,0.0,0.0,0.0,0.0,0.0,0.0,0.0,0.0,0.0,0.0,0.0,0.0,0.0,0.0,0.0,0.0,0.0,0.0,0.0,0.0,0.0,0.0,0.0,0.0,0.0,0.0,0.0,0.0,0.0,0.208,0.0974,0.0706,0.0393,0.0,0.0,0.0,0.0,0.0,0.0,0.0,0.0,0.0,0.0,0.0,0.0,0.0,0.0,0.0,0.0,0.0,0.0,0.0,0.0,0.0,0.0,0.0,0.0,0.0,0.0,0.0,0.0,0.0,0.0,0.0,0.0,0.0,0.0,0.0,0.0,0.0,0.0,0.0,0.0,0.0,0.0,0.0,0.0,0.0,0.0,0.0,0.0,0.0,0.0,0.0,0.0,0.0,0.0,0.0,0.0,0.0,0.0,0.0,0.0,0.0,0.0,0.0,0.0,0.0,0.0,0.0,0.0,0.0,0.0,0.0,0.0,0.0,0.0,0.0,0.0,0.0,0.0,0.0,0.0,0.0,0.0,0.0,0.0,0.0,0.0,0.0,0.0,0.0,0.0,0.0,0.0,0.0,0.0,0.0,0.0,0.0,0.0,0.0,0.0,0.0,0.0,0.0,0.0,0.0,0.0,0.0,0.0,0.0,0.0,0.0,0.0,0.0,0.1095,0.0599,0.0,0.0,0.0,0.0,0.0,0.0,0.0,0.0,0.0,0.0,0.0,0.0,0.0,0.0,0.0,0.0,0.0,0.0,0.0,0.0,0.0,0.0,0.0,0.0,0.0,0.0,0.0,0.0,0.0,0.0,0.0,0.0,0.0,0.0,0.0,0.0,0.0,0.0,0.0,0.0,0.0,0.0,0.0,0.0,0.0,0.0,0.0,0.0,0.0,0.0,0.0,0.0,0.0,0.0,0.0,0.0,0.0,0.0,0.0,0.0,0.0,0.0,0.0,0.0,0.0,0.0,0.0,0.0,0.0,0.0,0.0,0.0,0.0,0.0,0.0,0.0,0.0,0.0,0.0,0.0,0.0,0.0,0.0,0.0,0.0,0.0,0.0,0.0,0.0,0.0,0.0,0.0,0.0,0.0,0.0,0.0,0.0,0.0,0.0,0.0,0.0,0.0,0.0,0.0,0.0,0.0,0.0,0.0,0.0,0.0,0.0,0.2993,0.1876,0.141,0.0,0.0,0.0,0.0,0.0,0.0,0.0,0.0,0.0,0.0,0.0,0.0,0.0,0.0,0.0,0.0,0.0,0.0,0.0,0.0,0.0,0.0,0.0,0.0,0.0,0.0,0.0,0.0,0.0,0.0,0.0,0.0,0.0,0.0,0.0,0.0,0.0,0.0,0.0,0.0,0.0,0.0,0.0,0.0,0.0,0.0,0.0,0.0,0.0,0.0,0.0,0.0,0.0,0.0,0.0,0.0,0.0,0.0,0.0,0.0,0.0,0.0,0.0,0.0,0.0,0.0,0.0,0.0,0.0,0.0,0.0,0.0,0.0,0.0,0.0,0.0,0.0,0.0,0.0,0.0,0.0,0.0,0.0,0.0,0.0,0.0,0.0,0.0,0.0,0.0,0.0,0.0,0.0,0.0,0.0,0.0,0.0,0.0,0.0,0.0,0.0,0.0,0.0,0.0,0.0,0.0,0.0,0.0,0.0,0.0,0.0,0.0,0.3619,0.2413,0.1158,0.0311,0.0,0.0,0.0,0.0,0.0,0.0,0.0,0.0,0.0,0.0,0.0,0.0,0.0,0.0,0.0,0.0,0.0,0.0,0.0,0.0,0.0,0.0,0.0,0.0,0.0,0.0,0.0,0.0,0.0,0.0,0.0,0.0,0.0,0.0,0.0,0.0,0.0,0.0,0.0,0.0,0.0,0.0,0.0,0.0,0.0,0.0,0.0,0.0,0.0,0.0,0.0,0.0,0.0,0.0,0.0,0.0,0.0,0.0,0.0,0.0,0.0,0.0,0.0,0.0,0.0,0.0,0.0,0.0,0.0,0.0,0.0,0.0,0.0,0.0,0.0,0.0,0.0,0.0,0.0,0.0,0.0,0.0,0.0,0.0,0.0,0.0,0.0,0.0,0.0,0.0,0.0,0.0,0.0,0.0,0.0,0.0,0.0,0.0,0.0,0.0,0.0,0.0,0.0,0.0,0.0,0.0,0.0,0.0,0.0,0.0,0.4918,0.4047,0.2708,0.116,0.031,0.0291,0.0,0.0,0.0,0.0,0.0,0.0,0.0,0.0,0.0,0.0,0.0,0.0,0.0,0.0,0.0,0.0,0.0,0.0,0.0,0.0,0.0,0.0,0.0,0.0,0.0,0.0,0.0,0.0,0.0,0.0,0.0,0.0,0.0,0.0,0.0,0.0,0.0,0.0,0.0,0.0,0.0,0.0,0.0,0.0,0.0,0.0,0.0,0.0,0.0,0.0,0.0,0.0,0.0,0.0,0.0,0.0,0.0,0.0,0.0,0.0,0.0,0.0,0.0,0.0,0.0,0.0,0.0,0.0,0.0,0.0,0.0,0.0,0.0,0.0,0.0,0.0,0.0,0.0,0.0,0.0,0.0,0.0,0.0,0.0,0.0,0.0,0.0,0.0,0.0,0.0,0.0,0.0,0.0,0.0,0.0,0.0,0.0,0.0,0.0,0.0,0.0,0.0,0.0,0.0,0.0,0.0,0.0,0.0,0.5369,0.5061,0.4196,0.2755,0.1696,0.1087,0.0,0.0,0.0,0.0,0.0,0.0,0.0,0.0,0.0,0.0,0.0,0.0,0.0,0.0,0.0,0.0,0.0,0.0,0.0,0.0,0.0,0.0,0.0,0.0,0.0,0.0,0.0,0.0,0.0,0.0,0.0,0.0,0.0,0.0,0.0,0.0,0.0,0.0,0.0,0.0,0.0,0.0,0.0,0.0,0.0,0.0,0.0,0.0,0.0,0.0,0.0,0.0,0.0,0.0,0.0,0.0,0.0,0.0,0.0,0.0,0.0,0.0,0.0,0.0,0.0,0.0,0.0,0.0,0.0,0.0,0.0,0.0,0.0,0.0,0.0,0.0,0.0,0.0,0.0,0.0,0.0,0.0,0.0,0.0,0.0,0.0,0.0,0.0,0.0,0.0,0.0,0.0,0.0,0.0,0.0,0.0,0.0,0.0,0.0,0.0,0.0,0.0,0.0,0.0,0.0,0.0,0.0,0.0,0.0,0.5379,0.4706,0.3971,0.3207,0.2443,0.1944,0.0,0.0,0.0,0.0,0.0,0.0,0.0,0.0,0.0,0.0,0.0,0.0,0.0,0.0,0.0,0.0,0.0,0.0,0.0,0.0,0.0,0.0,0.0,0.0,0.0,0.0,0.0,0.0,0.0,0.0,0.0,0.0,0.0,0.0,0.0,0.0,0.0,0.0,0.0,0.0,0.0,0.0,0.0,0.0,0.0,0.0,0.0,0.0,0.0,0.0,0.0,0.0,0.0,0.0,0.0,0.0,0.0,0.0,0.0,0.0,0.0,0.0,0.0,0.0,0.0,0.0,0.0,0.0,0.0,0.0,0.0,0.0,0.0,0.0,0.0,0.0,0.0,0.0,0.0,0.0,0.0,0.0,0.0,0.0,0.0,0.0,0.0,0.0,0.0,0.0,0.0,0.0,0.0,0.0,0.0,0.0,0.0,0.0,0.0,0.0,0.0,0.0,0.0,0.0,0.0,0.0,0.0,0.0,0.0,0.5549,0.0,0.4299,0.3937,0.3305,0.282,0.0,0.0,0.0,0.0,0.0,0.0,0.0,0.0,0.0,0.0,0.0,0.0,0.0,0.0,0.0,0.0,0.0,0.0,0.0,0.0,0.0,0.0,0.0,0.0,0.0,0.0,0.0,0.0,0.0,0.0,0.0,0.0,0.0,0.0,0.0,0.0,0.0,0.0,0.0,0.0,0.0,0.0,0.0,0.0,0.0,0.0,0.0,0.0,0.0,0.0,0.0,0.0,0.0,0.0,0.0,0.0,0.0,0.0,0.0,0.0,0.0,0.0,0.0,0.0,0.0,0.0,0.0,0.0,0.0,0.0,0.0,0.0,0.0,0.0,0.0,0.0,0.0,0.0,0.0,0.0,0.0,0.0,0.0,0.0,0.0,0.0,0.0,0.0,0.0,0.0,0.0,0.0,0.0,0.0,0.0,0.0,0.0,0.0,0.0,0.0,0.0,0.0,0.0,0.0,0.0,0.0,0.0,0.0,0.5702,0.5877,0.5595,0.5224,0.4902,0.4199,0.3699,0.0,0.0,0.0,0.0,0.0,0.0,0.0,0.0,0.0,0.0,0.0,0.0,0.0,0.0,0.0,0.0,0.0,0.0,0.0,0.0,0.0,0.0,0.0,0.0,0.0,0.0,0.0,0.0,0.0,0.0,0.0,0.0,0.0,0.0,0.0,0.0,0.0,0.0,0.0,0.0,0.0,0.0,0.0,0.0,0.0,0.0,0.0,0.0,0.0,0.0,0.0,0.0,0.0,0.0,0.0,0.0,0.0,0.0,0.0,0.0,0.0,0.0,0.0,0.0,0.0,0.0,0.0,0.0,0.0,0.0,0.0,0.0,0.0,0.0,0.0,0.0,0.0,0.0,0.0,0.0,0.0,0.0,0.0,0.0,0.0,0.0,0.0,0.0,0.0,0.0,0.0,0.0,0.0,0.0,0.0,0.0,0.0,0.0,0.0,0.0,0.0,0.0,0.0,0.0,0.0,0.0,0.0,0.0,0.0,0.6183,0.626,0.6078,0.5663,0.5276,0.4843,0.0,0.0,0.0,0.0,0.0,0.0,0.0,0.0,0.0,0.0,0.0,0.0,0.0,0.0,0.0,0.0,0.0,0.0,0.0,0.0,0.0,0.0,0.0,0.0,0.0,0.0,0.0,0.0,0.0,0.0,0.0,0.0,0.0,0.0,0.0,0.0,0.0,0.0,0.0,0.0,0.0,0.0,0.0,0.0,0.0,0.0,0.0,0.0,0.0,0.0,0.0,0.0,0.0,0.0,0.0,0.0,0.0,0.0,0.0,0.0,0.0,0.0,0.0,0.0,0.0,0.0,0.0,0.0,0.0,0.0,0.0,0.0,0.0,0.0,0.0,0.0,0.0,0.0,0.0,0.0,0.0,0.0,0.0,0.0,0.0,0.0,0.0,0.0,0.0,0.0,0.0,0.0,0.0,0.0,0.0,0.0,0.0,0.0,0.0,0.0,0.0,0.0,0.0,0.0,0.0,0.0,0.0,0.0,0.0,0.6805,0.6881,0.6763,0.6337,0.5969,0.5542,0.5098,0.0,0.0,0.0,0.0,0.0,0.0,0.0,0.0,0.0,0.0,0.0,0.0,0.0,0.0,0.0,0.0,0.0,0.0,0.0,0.0,0.0,0.0,0.0,0.0,0.0,0.0,0.0,0.0,0.0,0.0,0.0,0.0,0.0,0.0,0.0,0.0,0.0,0.0,0.0,0.0,0.0,0.0,0.0,0.0,0.0,0.0,0.0,0.0,0.0,0.0,0.0,0.0,0.0,0.0,0.0,0.0,0.0,0.0,0.0,0.0,0.0,0.0,0.0,0.0,0.0,0.0,0.0,0.0,0.0,0.0,0.0,0.0,0.0,0.0,0.0,0.0,0.0,0.0,0.0,0.0,0.0,0.0,0.0,0.0,0.0,0.0,0.0,0.0,0.0,0.0,0.0,0.0,0.0,0.0,0.0,0.0,0.0,0.0,0.0,0.0,0.0,0.0,0.0,0.0,0.0,0.0,0.0,0.0,0.7604,0.7495,0.7288,0.6966,0.6343,0.5854,0.0,0.0,0.0,0.0,0.0,0.0,0.0,0.0,0.0,0.0,0.0,0.0,0.0,0.0,0.0,0.0,0.0,0.0,0.0,0.0,0.0,0.0,0.0,0.0,0.0,0.0,0.0,0.0,0.0,0.0,0.0,0.0,0.0,0.0,0.0,0.0,0.0,0.0,0.0,0.0,0.0,0.0,0.0,0.0,0.0,0.0,0.0,0.0,0.0,0.0,0.0,0.0,0.0,0.0,0.0,0.0,0.0,0.0,0.0,0.0,0.0,0.0,0.0,0.0,0.0,0.0,0.0,0.0,0.0,0.0,0.0,0.0,0.0,0.0,0.0,0.0,0.0,0.0,0.0,0.0,0.0,0.0,0.0,0.0,0.0,0.0,0.0,0.0,0.0,0.0,0.0,0.0,0.0,0.0,0.0,0.0,0.0,0.0,0.0,0.0,0.0,0.0,0.0,0.0,0.0,0.0,0.0,0.0,0.0,0.7736,0.8041,0.7946,0.7434,0.6841,0.6261,0.0,0.0,0.0,0.0,0.0,0.0,0.0,0.0,0.0,0.0,0.0,0.0,0.0,0.0,0.0,0.0,0.0,0.0,0.0,0.0,0.0,0.0,0.0,0.0,0.0,0.0,0.0,0.0,0.0,0.0,0.0,0.0,0.0,0.0,0.0,0.0,0.0,0.0,0.0,0.0,0.0,0.0,0.0,0.0,0.0,0.0,0.0,0.0,0.0,0.0,0.0,0.0,0.0,0.0,0.0,0.0,0.0,0.0,0.0,0.0,0.0,0.0,0.0,0.0,0.0,0.0,0.0,0.0,0.0,0.0,0.0,0.0,0.0,0.0,0.0,0.0,0.0,0.0,0.0,0.0,0.0,0.0,0.0,0.0,0.0,0.0,0.0,0.0,0.0,0.0,0.0,0.0,0.0,0.0,0.0,0.0,0.0,0.0,0.0,0.0,0.0,0.0,0.0,0.0,0.0,0.0,0.0,0.0,0.737,0.785,0.8411,0.8421,0.7896,0.7234,0.6607,0.0,0.0,0.0,0.0,0.0,0.0,0.0,0.0,0.0,0.0,0.0,0.0,0.0,0.0,0.0,0.0,0.0,0.0,0.0,0.0,0.0,0.0,0.0,0.0,0.0,0.0,0.0,0.0,0.0,0.0,0.0,0.0,0.0,0.0,0.0,0.0,0.0,0.0,0.0,0.0,0.0,0.0,0.0,0.0,0.0,0.0,0.0,0.0,0.0,0.0,0.0,0.0,0.0,0.0,0.0,0.0,0.0,0.0,0.0,0.0,0.0,0.0,0.0,0.0,0.0,0.0,0.0,0.0,0.0,0.0,0.0,0.0,0.0,0.0,0.0,0.0,0.0,0.0,0.0,0.0,0.0,0.0,0.0,0.0,0.0,0.0,0.0,0.0,0.0,0.0,0.0,0.0,0.0,0.0,0.0,0.0,0.0,0.0,0.0,0.0,0.0,0.0,0.0,0.0,0.0,0.0,0.0,0.0,0.7661,0.8058,0.8638,0.873,0.8292,0.7577,0.6912,0.0,0.0,0.0,0.0,0.0,0.0,0.0,0.0,0.0,0.0,0.0,0.0,0.0,0.0,0.0,0.0,0.0,0.0,0.0,0.0,0.0,0.0,0.0,0.0,0.0,0.0,0.0,0.0,0.0,0.0,0.0,0.0,0.0,0.0,0.0,0.0,0.0,0.0,0.0,0.0,0.0,0.0,0.0,0.0,0.0,0.0,0.0,0.0,0.0,0.0,0.0,0.0,0.0,0.0,0.0,0.0,0.0,0.0,0.0,0.0,0.0,0.0,0.0,0.0,0.0,0.0,0.0,0.0,0.0,0.0,0.0,0.0,0.0,0.0,0.0,0.0,0.0,0.0,0.0,0.0,0.0,0.0,0.0,0.0,0.0,0.0,0.0,0.0,0.0,0.0,0.0,0.0,0.0,0.0,0.0,0.0,0.0,0.0,0.0,0.0,0.0,0.0,0.0,0.0,0.0,0.0,0.0,0.0,0.8243,0.8516,0.8797,0.8781,0.8442,0.7831,0.7217,0.0,0.0,0.0,0.0,0.0,0.0,0.0,0.0,0.0,0.0,0.0,0.0,0.0,0.0,0.0,0.0,0.0,0.0,0.0,0.0,0.0,0.0,0.0,0.0,0.0,0.0,0.0,0.0,0.0,0.0,0.0,0.0,0.0,0.0,0.0,0.0,0.0,0.0,0.0,0.0,0.0,0.0,0.0,0.0,0.0,0.0,0.0,0.0,0.4627,0.0,0.0,0.0,0.0,0.0,0.0,0.0,0.0,0.0,0.0,0.0,0.0,0.0,0.0,0.0,0.0,0.0,0.0,0.0,0.0,0.0,0.0,0.0,0.0,0.0,0.0,0.0,0.0,0.0,0.0,0.0,0.0,0.0,0.0,0.0,0.0,0.0,0.0,0.0,0.0,0.0,0.0,0.0,0.0,0.0,0.0,0.0,0.0,0.0,0.0,0.0,0.0,0.0,0.0,0.0,0.0,0.0,0.0,0.0,0.8945,0.9024,0.8921,0.8791,0.8486,0.8113,0.7567,0.0,0.0,0.0,0.0,0.0,0.0,0.0,0.0,0.0,0.0,0.0,0.0,0.0,0.0,0.0,0.0,0.0,0.0,0.0,0.0,0.0,0.0,0.0,0.0,0.0,0.0,0.0,0.0,0.0,0.0,0.0,0.0,0.0,0.0,0.0,0.0,0.0,0.0,0.0,0.0,0.0,0.0,0.0,0.0,0.0,0.0,0.0,0.0,0.0,0.0,0.0,0.0,0.0,0.0,0.0,0.0,0.0,0.0,0.0,0.0,0.0,0.0,0.0,0.0,0.0,0.0,0.0,0.0,0.0,0.0,0.0,0.0,0.0,0.0,0.0,0.0,0.0,0.0,0.0,0.0,0.0,0.0,0.0,0.0,0.0,0.0,0.0,0.0,0.0,0.0,0.0,0.0,0.0,0.0,0.0,0.0,0.0,0.0,0.0,0.0,0.0,0.0,0.0,0.0,0.0,0.0,0.0,0.9713,0.971,0.963,0.9297,0.8939,0.8682,0.8507,0.7959,0.7086,0.0,0.0,0.0,0.0,0.0,0.0,0.0,0.0,0.0,0.0,0.0,0.0,0.0,0.0,0.0,0.0,0.0,0.0,0.0,0.0,0.0,0.0,0.0,0.0,0.0,0.0,0.0,0.0,0.0,0.0,0.0,0.0,0.0,0.0,0.0,0.0,0.0,0.0,0.8571,0.8655,0.0,0.0,0.0,0.0,0.0,0.0,0.0,0.0,0.4796,0.0,0.0,0.0,0.0,0.0,0.0,0.0,0.0,0.0,0.0,0.0,0.0,0.0,0.0,0.0,0.0,0.0,0.0,0.0,0.0,0.0,0.0,0.0,0.0,0.0,0.0,0.0,0.0,0.0,0.0,0.0,0.0,0.0,0.0,0.0,0.0,0.0,0.0,0.0,0.0,0.0,0.0,0.0,0.0,0.0,0.0,0.0,0.0,0.0,0.0,0.0,0.0,0.0,0.0,0.0,0.0,1.0653,1.0697,1.0727,1.0727,1.0167,0.9713,0.9368,0.901,0.8542,0.7753,0.0,0.0,0.0,0.0,0.0,0.0,0.0,0.0,0.0,0.0,0.0,0.0,0.0,0.0,0.0,0.0,0.0,0.0,0.0,0.0,0.0,0.0,0.0,0.0,0.0,0.0,0.0,0.0,0.0,0.0,0.0,0.0,0.0,0.0,0.0,0.0,0.0,0.0,0.0,0.9197,0.8998,0.0,0.0,0.0,0.0,0.0,0.0,0.0,0.0,0.4789,0.0,0.0,0.0,0.0,0.0,0.0,0.0,0.0,0.0,0.0,0.0,0.0,0.0,0.0,0.0,0.0,0.0,0.0,0.0,0.0,0.0,0.0,0.0,0.0,0.0,0.0,0.0,0.0,0.0,0.0,0.0,0.0,0.0,0.0,0.0,0.0,0.0,0.0,0.0,0.0,0.0,0.0,0.0,0.0,0.0,0.0,0.0,0.0,0.0,0.0,0.0,0.0,0.0,0.0,0.0,1.191,1.2073,1.2166,1.2164,1.1578,1.1042,1.0453,1.0106,0.9447,0.0,0.0,0.0,0.0,0.0,0.0,0.0,0.0,0.0,0.0,0.0,0.0,0.0,0.0,0.0,0.0,0.0,0.0,0.0,0.0,0.0,0.0,0.0,0.0,0.0,0.0,0.0,0.0,0.0,0.0,0.0,0.0,0.0,0.0,0.0,0.0,0.0,0.0,0.0,0.0,1.0133,1.0165,0.9518,0.0,0.0,0.0,0.0,0.0,0.0,0.4806,0.4748,0.0,0.0,0.0,0.0,0.0,0.0,0.0,0.0,0.0,0.0,0.0,0.0,0.0,0.0,0.0,0.0,0.0,0.0,0.0,0.0,0.0,0.0,0.0,0.0,0.0,0.0,0.0,0.0,0.0,0.0,0.0,0.0,0.0,0.0,0.0,0.0,0.0,0.0,0.0,0.0,0.0,0.0,0.0,0.0,0.0,0.0,0.0,0.0,0.0,0.0,0.0,0.0,0.0,0.0,0.0,1.2946,1.3201,1.3383,1.3478,1.2933,1.2282,1.1613,1.1197,1.0414,0.0,0.0,0.0,0.0,0.0,0.0,0.0,0.0,0.0,0.0,0.0,0.0,0.0,0.0,0.0,0.0,0.0,0.0,0.0,0.0,0.0,0.0,0.0,0.0,0.0,0.0,0.0,0.0,0.0,0.0,0.0,0.0,0.0,0.0,0.0,0.0,0.0,0.0,0.0,0.0,0.0,1.107,1.0317,0.9445,0.0,0.0,0.0,0.0,0.5102,0.5026,0.0,0.0,0.0,0.0,0.0,0.0,0.0,0.0,0.0,0.0,0.0,0.0,0.0,0.0,0.0,0.0,0.0,0.0,0.0,0.0,0.0,0.0,0.0,0.0,0.0,0.0,0.0,0.0,0.0,0.0,0.0,0.0,0.0,0.0,0.0,0.0,0.0,0.0,0.0,0.0,0.0,0.0,0.0,0.0,0.0,0.0,0.0,0.0,0.0,0.0,0.0,0.0,0.0,0.0,0.0,0.0,1.3227,1.3555,1.3884,1.4166,1.3682,1.3155,1.2642,1.188,1.1031,0.0,0.0,0.0,0.0,0.0,0.0,0.0,0.0,0.0,0.0,0.0,0.0,0.0,0.0,0.0,0.0,0.0,0.0,0.0,0.0,0.0,0.0,0.0,0.0,0.0,0.0,0.0,0.0,0.0,0.0,0.0,0.0,0.0,0.0,0.0,0.0,0.0,0.0,0.0,0.0,0.0,1.0777,1.005,0.9428,0.8763,0.0,0.0,0.5836,0.5771,0.5817,0.0,0.0,0.0,0.0,0.0,0.0,0.0,0.0,0.0,0.0,0.0,0.0,0.0,0.0,0.0,0.0,0.0,0.0,0.0,0.0,0.0,0.0,0.0,0.0,0.0,0.0,0.0,0.0,0.0,0.0,0.0,0.0,0.0,0.0,0.0,0.0,0.0,0.0,0.0,0.0,0.0,0.0,0.0,0.0,0.0,0.0,0.0,0.0,0.0,0.0,0.0,0.0,0.0,0.0,0.0,1.1668,1.2995,1.3985,1.4611,1.491,1.4832,1.4481,1.3786,1.3081,1.2064,0.0,0.0,0.0,0.0,0.0,0.0,0.0,0.0,0.0,0.0,0.0,0.0,0.0,0.0,0.0,0.0,0.0,0.0,0.0,0.0,0.0,0.0,0.0,0.0,0.0,0.0,0.0,0.0,0.0,0.0,0.0,0.0,0.0,0.0,0.0,0.0,0.0,0.0,0.0,0.0,0.0,0.0,1.0451,0.976,0.0,0.0,0.0,0.6816,0.6717,0.0,0.0,0.0,0.0,0.0,0.0,0.0,0.0,0.0,0.0,0.0,0.0,0.0,0.0,0.0,0.0,0.0,0.0,0.0,0.0,0.0,0.0,0.0,0.0,0.0,0.0,0.0,0.0,0.0,0.0,0.0,0.0,0.0,0.0,0.0,0.0,0.0,0.0,0.0,0.0,0.0,0.0,0.0,0.0,0.0,0.0,0.0,0.0,0.0,0.0,0.0,0.0,0.0,0.0,0.0,0.0,0.0,1.3082,1.4584,1.5424,1.5552,1.5751,1.5469,1.463,1.3881,0.0,0.0,0.0,0.0,0.0,0.0,0.0,0.0,0.0,0.0,0.0,0.0,0.0,0.0,0.0,0.0,0.0,0.0,0.0,0.0,0.0,0.0,0.0,0.0,0.0,0.0,0.0,0.7905,0.0,0.0,0.0,0.0,0.0,0.0,0.0,0.0,0.0,0.0,0.0,0.0,0.0,0.0,1.151,1.0759,1.0162,0.9559,0.0,0.0,0.7794,0.7727,0.7753,0.7414,0.0,0.0,0.0,0.0,0.0,0.0,0.0,0.0,0.0,0.0,0.0,0.0,0.0,0.0,0.0,0.0,0.0,0.0,0.0,0.0,0.0,0.0,0.0,0.0,0.0,0.0,0.0,0.0,0.0,0.0,0.0,0.0,0.0,0.0,0.0,0.0,0.0,0.0,0.0,0.0,0.0,0.0,0.0,0.0,0.0,0.0,0.0,0.0,0.0,0.0,0.0,0.0,0.0,0.0,0.0,1.3809,1.5464,1.6197,1.5974,1.6039,1.5673,1.4891,1.3776,1.2665,0.0,0.0,0.0,0.0,0.0,0.0,0.0,0.0,0.0,0.0,0.0,0.0,0.0,0.0,0.0,0.0,0.0,0.0,0.0,0.0,0.0,0.0,0.0,0.0,0.0,0.0,0.0,0.0,0.0,0.0,0.0,0.0,0.0,0.0,0.0,0.0,0.0,0.0,0.0,0.0,0.0,1.1209,1.0594,1.0535,1.0368,0.0,0.0,0.8765,0.888,0.8638,0.8074,0.6922,0.0,0.0,0.0,0.0,0.0,0.0,0.0,0.0,0.0,0.0,0.0,0.0,0.0,0.0,0.0,0.0,0.0,0.0,0.0,0.0,0.0,0.0,0.0,0.0,0.0,0.0,0.0,0.0,0.0,0.0,0.0,0.0,0.0,0.0,0.0,0.0,0.0,0.0,0.0,0.0,0.0,0.0,0.0,0.0,0.0,0.0,0.0,0.0,0.0,0.0,0.0,0.0,0.0,1.2948,1.4683,1.6117,1.6784,1.67,1.6492,1.5972,1.5036,1.3994,1.2794,0.0,0.0,0.0,0.0,0.0,0.0,0.0,0.0,0.0,0.0,0.0,0.0,0.0,0.0,0.0,0.0,0.0,0.0,0.0,0.0,0.0,0.0,0.0,0.0,0.0,0.0,0.0,0.0,0.8445,0.8444,0.8409,0.0,0.0,0.0,0.0,0.0,0.0,0.0,0.0,0.0,0.0,1.1283,1.1038,1.093,0.0,0.0,1.0273,1.0086,0.991,0.9641,0.9055,0.7739,0.6465,0.0,0.0,0.0,0.0,0.0,0.0,0.0,0.0,0.0,0.0,0.0,0.0,0.0,0.0,0.0,0.0,0.0,0.0,0.0,0.0,0.0,0.0,0.0,0.0,0.0,0.0,0.0,0.0,0.0,0.0,0.0,0.0,0.0,0.0,0.0,0.0,0.0,0.0,0.0,0.0,0.0,0.0,0.0,0.0,0.0,0.0,0.0,0.0,0.0,0.0,0.0,0.0,1.3622,1.5508,1.684,1.7474,1.7381,1.7056,1.6413,1.5374,1.4354,1.3198,0.0,0.0,0.0,0.0,0.0,0.0,0.0,0.0,0.0,0.0,0.0,0.0,0.0,0.0,0.0,0.0,0.0,0.0,0.0,0.0,0.0,0.0,0.0,0.0,0.0,0.0,0.0,0.0,0.8731,0.8597,0.8422,0.0,0.0,0.0,0.0,0.0,0.0,0.0,0.0,0.0,0.0,1.149,1.141,1.1304,1.1239,1.1086,1.1105,1.1009,1.0725,1.046,0.983,0.8529,0.0,0.0,0.0,0.0,0.0,0.0,0.0,0.0,0.0,0.0,0.0,0.0,0.0,0.0,0.0,0.0,0.0,0.0,0.0,0.0,0.0,0.0,0.0,0.0,0.0,0.0,0.0,0.0,0.0,0.0,1.2295,0.0,0.0,0.0,0.0,0.0,0.0,0.0,0.0,0.0,0.0,0.0,0.0,0.0,0.0,0.0,0.0,0.0,0.0,0.0,0.0,0.0,0.0,1.4343,1.6254,1.7699,1.831,1.7965,1.773,1.7029,1.5895,1.4894,1.3813,1.2514,0.0,0.0,0.0,0.0,0.0,0.0,0.0,0.0,0.0,0.0,0.0,0.0,0.0,0.0,0.0,0.0,0.0,0.0,0.0,0.0,0.0,0.0,0.0,0.0,0.0,0.0,0.8804,0.8583,0.8415,0.0,0.0,0.0,0.0,0.0,0.0,0.0,0.0,0.0,0.0,1.1343,1.1828,1.1628,1.1764,1.1847,1.167,1.1521,1.1353,1.1295,1.0953,1.0316,0.0,0.0,0.0,0.0,0.0,0.0,0.0,0.0,0.0,0.0,0.0,0.0,0.0,0.0,0.0,0.0,0.0,0.0,0.0,0.0,0.0,0.0,0.0,0.0,0.0,0.0,0.0,1.5116,1.484,0.0,0.0,0.0,0.0,0.0,0.0,0.0,0.0,0.0,0.0,0.0,1.7517,1.7026,0.0,0.0,0.0,0.0,0.0,0.0,0.0,0.0,0.0,0.0,0.0,0.0,1.4913,1.6968,1.8052,1.8527,1.8466,1.7932,1.7248,1.6405,1.5627,1.4502,1.302,0.0,0.0,0.0,0.0,0.0,0.0,0.0,0.0,0.0,0.0,0.0,0.0,0.0,0.0,0.0,0.0,0.0,0.0,0.0,0.0,0.0,0.0,0.0,0.0,0.0,0.9133,0.0,0.0,0.0,0.0,0.0,0.0,0.0,0.0,0.0,0.0,0.0,1.011,1.1022,1.1563,1.1937,1.2052,1.2133,1.2151,0.0,0.0,0.0,0.0,0.0,0.0,0.0,0.0,0.0,0.0,0.0,0.0,0.0,0.0,0.7586,0.6866,0.6314,0.5738,0.5049,0.0,0.0,0.0,0.0,0.0,0.0,0.0,0.0,0.0,0.0,0.0,0.0,0.0,0.0,1.7448,0.0,1.6932,0.0,0.0,0.0,0.0,0.0,0.0,0.0,0.0,1.99,2.0112,1.9763,1.9456,1.9105,0.0,1.8402,1.7206,0.0,0.0,0.0,0.0,0.0,0.0,0.0,0.0,1.5352,1.7347,1.8203,1.8679,1.8765,1.8212,1.7586,1.6909,1.6125,1.5044,1.3742,1.3325,1.294,0.0,0.0,0.0,0.0,0.0,0.0,0.0,0.0,0.0,0.0,0.0,0.0,0.0,0.0,0.0,0.0,0.0,0.0,0.0,0.0,0.0,0.0,0.0,0.9571,0.0,0.0,0.0,0.0,0.0,0.0,0.0,0.0,0.0,1.0027,1.0421,1.0984,1.1593,1.1901,1.212,1.2278,0.0,0.0,0.0,0.0,0.0,0.0,0.0,1.0949,1.0309,0.9781,0.9249,0.8742,0.8682,0.8829,0.9215,0.0,0.0,0.809,0.7545,0.6988,0.6324,0.5918,0.5622,0.527,0.5053,0.4862,0.0,0.0,0.0,0.0,0.0,0.0,0.0,0.0,1.9841,1.9789,0.0,1.9166,0.0,0.0,0.0,0.0,0.0,0.0,0.0,0.0,2.2238,2.2545,2.2222,2.2172,2.1755,2.0929,2.0357,1.9454,1.8107,1.5978,0.0,0.0,0.0,0.0,0.0,0.0,1.5684,1.7376,1.8184,1.8712,1.8937,1.8525,1.8045,1.7503,1.645,1.5528,1.4751,1.4617,1.4237,1.3596,1.2865,0.0,0.0,0.0,0.0,0.0,0.0,0.0,0.0,0.0,0.0,0.0,0.0,0.0,0.0,0.0,0.0,0.0,0.0,0.0,0.0,1.0522,0.0,0.0,0.0,0.0,0.0,0.0,0.0,0.0,0.0,0.0,1.1584,1.1803,1.2102,1.2198,0.0,0.0,0.0,0.0,1.2305,1.2305,1.2305,1.2204,1.1946,1.1623,1.1368,1.1217,0.0,0.0,0.964,0.9822,0.9972,0.9855,0.9932,0.9856,0.9422,0.8857,0.8351,0.7809,0.732,0.6858,0.6349,0.5959,0.5566,2.4983,0.0,0.0,0.0,0.0,2.151,2.1816,2.2265,2.2265,2.2086,2.1741,2.1181,0.0,0.0,0.0,0.0,0.0,0.0,2.1475,2.2311,2.3195,2.3505,2.3344,2.312,2.2554,2.1673,2.1152,2.0194,1.8903,1.7885,1.6306,1.4275,0.0,0.0,0.0,0.0,1.5937,1.7324,1.791,1.8217,1.8275,1.817,1.7998,1.7873,1.7531,1.7126,1.6592,1.6002,1.5408,1.4878,1.3523,0.0,0.0,0.0,0.0,0.0,0.0,0.0,0.0,0.0,0.0,0.0,0.0,0.0,0.0,0.0,0.0,0.0,0.0,0.0,1.1877,1.1822,1.1491,0.0,0.0,0.0,0.0,0.0,0.0,0.0,0.0,0.0,1.4123,1.3407,1.2937,0.0,0.0,1.2305,1.2305,1.2305,1.2305,1.2305,0.0,0.0,0.0,1.1839,1.1677,1.1388,1.1186,1.0997,1.0895,1.0788,1.0666,1.041,1.0396,1.0396,1.0238,0.966,0.9054,0.8545,0.8106,0.7701,0.7178,0.6719,0.6268,2.714,2.5148,2.4304,2.4173,2.4451,2.4463,2.4733,2.5172,2.4966,2.4733,2.4414,2.3628,2.2748,2.1733,2.0973,0.0,0.0,0.0,2.2972,2.3573,2.4295,2.4591,2.4516,2.4557,2.4119,2.3216,2.2669,2.1719,2.0383,1.9846,1.8575,1.6648,0.0,0.0,1.5408,1.5723,1.6385,1.7353,1.7803,1.8008,1.8008,1.8008,1.793,1.7773,1.7764,1.748,1.6917,1.6378,1.5889,1.542,1.4277,1.3486,0.0,0.0,0.0,0.0,0.0,0.0,0.0,0.0,0.0,0.0,0.0,1.0519,1.092,0.0,0.0,0.0,1.2352,1.2984,1.324,1.3348,0.0,0.0,0.0,0.0,0.0,0.0,0.0,1.4764,1.5762,1.6444,1.6542,1.5733,1.4725,1.371,1.3079,1.2662,1.2466,0.0,1.2305,1.2305,1.2305,1.2238,1.2071,1.1944,1.1839,1.1637,1.1603,1.155,1.1436,1.1182,1.0895,1.0673,1.0586,1.0586,1.0586,1.0231,0.9863,0.9506,0.9164,0.8757,0.8254,0.768,0.7086,2.8699,2.8147,2.7178,2.7002,2.7344,2.7344,2.7632,2.8047,2.7507,2.7329,2.7205,2.6088,2.5034,2.4004,2.2987,0.0,0.0,2.4117,2.4406,2.4876,2.541,2.5674,2.5686,2.6235,2.6015,2.5117,2.4607,2.3627,2.2264,2.1727,2.0816,1.9524,1.7768,1.6749,1.6506,1.6645,1.697,1.7465,1.7822,1.8008,1.8008,1.7944,1.7764,1.7435,1.7353,1.6985,1.6193,1.6114,1.5879,1.5478,1.5029,1.4424,1.3652,0.0,0.0,0.0,0.0,0.0,0.0,0.0,0.0,0.0,0.0,0.0,0.0,0.0,0.0,0.0,1.348,0.0,1.4544,1.4941,0.0,0.0,0.0,1.3278,1.3578,1.4328,1.5361,1.6727,0.0,0.0,1.8661,0.0,1.709,1.4659,1.3844,1.3294,1.2748,1.2472,1.2305,1.2305,1.2305,1.2305,1.2265,1.2078,1.194,1.1886,1.1906,1.1772,1.1436,1.1182,1.0895,1.0646,1.0586,1.0586,1.0586,1.0561,1.0586,1.0548,1.0263,0.9843,0.9346,0.8699,0.7919,2.9515,2.9377,2.9152,2.8624,2.7921,2.7908,2.7984,2.8059,2.7532,2.7329,2.7241,2.6088,2.5234,2.4575,2.4324,2.4336,2.4612,2.5046,2.5285,2.5435,2.6021,2.6285,2.6311,2.6436,2.6095,2.5335,2.4927,2.4087,2.2839,2.2448,2.1689,2.071,1.9882,1.8913,1.7785,1.7404,1.7432,1.7861,1.7959,1.8008,1.7964,1.7695,1.748,1.7383,1.7061,1.6787,1.6582,1.6271,1.6046,1.5928,1.5214,1.4715,1.4482,1.3502,0.0,0.0,0.0,0.0,0.0,0.0,0.0,0.0,0.0,1.1387,1.2494,0.0,1.2988,0.0,1.4523,1.5332,1.5946,1.5895,0.0,0.0,1.4975,1.4881,1.5213,1.6063,1.6877,1.7475,1.8411,1.8954,1.8939,1.8817,1.8135,1.6538,1.5057,1.3984,1.3499,1.2773,1.2305,1.2305,1.2305,1.2305,1.2298,1.2251,1.2111,1.194,1.1899,1.1725,1.1182,1.1042,1.0902,1.066,1.0586,1.0586,1.0586,1.0586,1.0586,1.0593,1.0403,1.0136,0.9741,0.9198,0.8522,2.9908,2.9779,2.9779,2.944,2.8863,2.8863,2.8863,2.8812,2.8247,2.7883,2.7582,2.6499,2.5858,2.5561,2.5548,2.5548,2.5573,2.585,2.6021,2.6034,2.6348,2.6487,2.6487,2.6487,2.6289,2.5886,2.5682,2.5102,2.4177,2.3737,2.3059,2.2151,2.1429,2.0574,1.9629,1.8637,1.8265,1.8496,1.8381,1.8303,1.8236,1.783,1.7523,1.7315,1.6943,1.6686,1.6517,1.6297,1.6197,1.6177,1.5726,1.5375,1.522,1.4319,1.3535,0.0,0.0,0.0,0.0,0.0,0.0,0.0,0.0,0.0,0.0,0.0,1.4365,0.0,1.5693,0.0,1.6825,1.6885,1.6926,1.7025,1.69,1.6932,1.7334,1.784,1.8334,1.8686,1.9231,1.9602,1.9684,1.9516,1.9071,1.8137,1.6635,1.5209,1.4147,1.3322,1.2826,1.2709,1.2636,1.2489,1.2335,1.2305,1.2198,1.1966,1.1792,1.1516,1.1076,1.0882,1.078,1.0626,1.0586,1.0586,1.0586,1.0586,1.0586,1.0593,1.0498,1.0364,1.0199,0.9779,0.9236,3.0049,2.9792,2.9779,2.9779,2.9779,2.9779,2.9779,2.9741,2.9063,2.8473,2.7833,2.6914,2.6487,2.6487,2.6487,2.6487,2.6487,2.6487,2.6487,2.6487,2.6487,2.6487,2.6487,2.6487,2.6487,2.6487,2.6487,2.616,2.5485,2.5046,2.4315,2.3422,2.244,2.1796,2.1463,2.0107,1.9396,1.9297,1.9075,1.8811,1.8516,1.8102,1.77,1.7213,1.6981,1.6657,1.6394,1.6425,1.6425,1.6373,1.6425,1.6266,1.585,1.5473,1.4855,0.0,1.3424,0.0,0.0,0.0,0.0,0.0,0.0,0.0,0.0,1.5098,1.5888,1.6716,1.6833,1.707,1.75,1.793,1.832,1.8637,1.8685,1.8867,1.9228,1.9326,1.9512,1.9873,1.9961,2.0156,2.0498,2.0225,1.9801,1.9156,1.8073,1.6658,1.5036,1.4129,1.3659,1.3448,1.3119,1.279,1.2378,1.2305,1.2184,1.187,1.161,1.1282,1.0975,1.076,1.0593,1.0586,1.0586,1.0586,1.0586,1.0586,1.0586,1.0586,1.0593,1.0593,1.0523,1.0276,0.9919,3.0241,2.9779,2.9779,2.9779,2.9779,2.9779,2.9779,2.9716,2.8699,2.7695,2.6813,2.6587,2.6487,2.6487,2.6487,2.6487,2.6487,2.6487,2.6487,2.6487,2.6487,2.6487,2.6487,2.6487,2.6487,2.6487,2.6487,2.5984,2.4971,2.487,2.4179,2.3021,2.2518,2.2235,2.203,0.0,0.0,0.0,2.002,1.9457,1.8624,1.8166,1.7729,1.722,1.7043,0.0,1.6736,1.7131,1.7153,1.6736,1.712,0.0,0.0,0.0,0.0,0.0,0.0,0.0,0.0,0.0,0.0,0.0,1.5381,1.5557,1.5723,1.6182,1.6699,1.7207,1.7568,1.7939,1.8325,1.8789,1.9082,1.915,1.916,1.9199,1.9297,1.958,1.9834,1.9902,2.0225,2.0498,2.0576,2.0527,2.009,1.9217,1.8599,1.7787,1.6571,1.5498,1.4736,1.435,1.3651,1.2973,1.2372,1.2342,1.2197,1.1657,1.1442,1.1229,1.0801,1.0653,1.0593,1.0586,1.0586,1.0586,1.0586,1.0586,1.0586,1.0586,1.0586,1.0586,1.0586,1.0434,1.0136,3.0859,0.0,3.0279,3.0203,0.0,3.0011,2.9731,2.9327,2.8762,2.7896,2.6889,2.6612,2.6487,2.6487,2.6487,2.6487,2.6487,2.6487,2.6487,2.6487,2.6487,2.6487,2.6487,2.621,2.6223,2.6487,2.621,2.5749,2.5209,2.4913,2.4342,2.3454,2.2972,2.2714,2.2622,2.2445,2.1928,2.1112,2.0762,2.0233,1.9511,1.8904,1.8397,1.7997,0.0,0.0,0.0,0.0,0.0,0.0,0.0,0.0,0.0,0.0,0.0,1.6673,1.6236,1.5981,1.5983,1.5865,1.6005,1.6586,1.6872,1.6943,1.677,1.6924,1.7314,1.7939,1.8169,1.8496,1.8916,1.917,1.9375,1.9561,1.959,1.9678,1.9873,1.9912,2.0,2.0185,2.0225,2.0312,2.0566,2.04,2.0,1.9284,1.8793,1.8304,1.7524,1.6455,1.5525,1.4859,1.4186,1.355,1.3039,1.29,1.269,1.2109,1.1874,1.1557,1.0948,1.0776,1.0649,1.0624,1.0586,1.0586,1.0586,1.0586,1.0586,1.0586,1.0586,1.0586,1.0586,1.0523,1.0403,3.1773,3.1259,3.1048,3.072,3.0404,3.0139,2.9504,2.8612,0.0,0.0,0.0,2.67,2.6487,2.6487,2.6487,2.6487,2.6487,2.6487,2.6487,2.6487,2.6487,2.6487,2.6474,2.6009,2.6021,2.6461,2.6009,2.5699,2.5573,2.5039,2.4512,2.3991,2.3414,2.3095,2.3095,2.3095,2.2689,2.1908,2.1545,2.1109,2.0531,1.9901,1.9332,1.8933,1.8611,1.8503,1.8643,1.8768,1.8753,1.8696,1.8768,1.8753,1.8658,1.8458,1.8279,1.8146,1.7716,1.7612,1.7913,1.7601,1.7583,1.8137,1.8137,1.7949,1.7529,1.7559,1.7891,1.8549,1.8744,1.8978,1.9365,1.9509,1.9648,1.999,2.0029,2.0176,2.0517,2.0254,2.0146,2.039,2.0127,2.0,2.0292,2.0098,1.9717,1.9268,1.8919,1.851,1.7997,1.7123,1.6237,1.5419,1.4931,1.4438,1.3949,1.3804,1.3542,1.2942,1.2646,1.2218,1.1464,1.1052,1.0839,1.0618,1.0586,1.0586,1.0586,1.0586,1.0586,1.0586,1.0586,1.0586,1.0586,1.0586,1.0586,3.2918,3.2335,3.2037,3.1332,3.0372,2.9995,2.8963,2.7519,2.7555,2.719,2.66,2.6537,2.6487,2.6487,2.6487,2.6487,2.6487,2.6487,2.6487,0.0,2.6487,2.6487,2.6487,2.6411,2.6411,2.6487,2.6399,2.6109,2.5586,2.5071,2.4544,2.3991,2.3396,2.3108,2.3095,2.3095,2.3047,2.2884,2.2622,2.2037,2.1121,2.0972,2.0464,1.9549,1.9638,1.9482,1.897,1.9356,1.9419,1.8996,1.9381,1.9419,1.8995,1.9767,2.0042,1.9605,2.0126,2.0318,1.9996,1.9762,1.9506,1.9189,1.8785,1.8334,1.7978,1.8217,1.8471,1.8627,1.9251,1.9709,1.9844,2.0184,2.04,2.0488,2.0507,2.0537,2.0605,2.0488,2.0322,2.0068,1.9961,1.9766,1.959,1.9736,1.959,1.8948,1.8877,1.8867,1.8134,1.7632,1.7097,1.6472,1.6009,1.5552,1.5065,1.4958,1.4622,1.3964,1.3594,1.2995,1.1923,1.1452,1.1115,1.0688,1.0618,1.0624,1.0586,1.0586,1.0586,1.0586,1.0586,1.0586,1.0586,1.0586,1.0586,3.3679,3.3234,3.2875,3.2083,3.0904,2.956,2.8495,2.7714,2.7325,2.6898,2.6499,2.6487,2.6487,2.6487,2.6487,2.6487,2.6487,2.6487,2.6487,2.6487,2.6487,2.6487,2.6461,2.6172,2.6197,2.6449,2.616,2.585,2.5586,2.5347,2.4971,2.4443,2.3879,2.3421,2.312,2.3095,2.3095,2.3108,2.2909,2.2512,2.1868,2.1674,2.1153,2.0242,2.0242,2.0023,1.9459,1.9673,1.9698,1.9421,1.9673,1.9836,1.9936,2.0427,2.0717,2.0727,2.1039,2.1166,2.1071,2.0554,2.0204,2.0062,1.954,1.9223,1.9219,1.9045,1.9092,1.927,1.967,2.0019,2.0234,2.0488,2.0615,2.0615,2.0615,2.0615,2.0576,2.038,2.0127,1.9932,1.9707,1.9502,1.9316,1.9463,1.9355,1.8724,1.8672,1.8437,1.8042,1.7872,1.7564,1.7044,1.6673,1.6306,1.5877,1.5807,1.5489,1.4827,1.4436,1.3688,1.2585,1.1973,1.149,1.0996,1.0776,1.0681,1.0618,1.0586,1.0586,1.0586,1.0586,1.0586,1.0586,1.0586,1.0586,3.4452,3.4153,3.3825,3.284,3.1378,2.9334,2.8368,2.8137,2.747,2.696,2.6679,2.6568,2.6487,2.6487,2.6487,2.6487,2.6487,2.6487,2.6487,2.6487,2.6487,2.6487,2.6449,2.6021,2.6059,2.6411,2.6,2.582,2.5808,2.5661,2.5272,2.46,2.4079,2.3534,2.3108,2.3095,2.3095,2.3095,2.3,2.2805,2.2561,2.229,2.176,2.0958,2.0776,2.042,1.9861,1.9936,1.9999,2.0025,2.0125,2.0388,2.083,2.0993,2.1257,2.1631,2.1709,2.1741,2.1806,2.1167,2.0849,2.1049,2.0593,2.0435,2.0746,2.0285,1.9898,1.9958,1.999,2.0215,2.0517,2.0605,2.0615,2.0615,2.0615,2.0615,2.0576,2.0254,2.0,1.9912,1.9551,1.9268,1.917,1.9141,1.8994,1.8637,1.8247,1.8027,1.8008,1.8008,1.7803,1.752,1.7254,1.7072,1.6733,1.6698,1.6362,1.5673,1.5269,1.4504,1.3495,1.2681,1.2042,1.1452,1.1052,1.087,1.0649,1.0586,1.0586,1.0586,1.0586,1.0586,1.0586,1.0586,1.0586,3.5359,3.5294,3.4854,3.356,3.1537,2.9721,2.8761,2.8438,2.7881,2.7438,2.7142,2.6679,2.6487,2.6487,2.6487,2.6487,2.6487,2.6487,2.6487,2.6487,2.6487,2.6487,2.6487,2.6424,2.6449,2.6487,2.6411,2.6361,2.6336,2.5871,2.5084,2.4117,2.3459,2.3183,2.3108,2.3095,2.3095,2.3095,2.3078,2.309,2.3047,2.2997,2.2472,2.1462,2.1415,2.0876,1.9936,2.0313,2.0616,2.0654,2.1069,2.137,2.1455,2.187,2.2184,2.2246,2.2656,2.2845,2.2592,2.2082,2.1999,2.2488,2.2082,2.2057,2.2589,2.2105,2.1295,2.0559,2.0426,2.0527,2.0595,2.0615,2.0615,2.0615,2.0615,2.0615,2.0595,2.0566,2.04,1.9951,1.957,1.915,1.8877,1.8744,1.8666,1.8549,1.8252,1.8008,1.8008,1.8008,1.7974,1.7906,1.7872,1.7837,1.7759,1.7828,1.7326,1.6635,1.6256,1.5429,1.4319,1.3502,1.2895,1.1996,1.1514,1.1178,1.0807,1.0586,1.0624,1.0649,1.0649,1.0624,1.0586,1.0618,1.0618,3.5489,3.5427,3.4783,3.3355,3.1516,3.0194,2.947,2.9093,2.8583,2.8111,2.7643,2.704,2.6679,2.6487,2.6487,2.6487,2.6487,2.6487,2.6487,2.6487,2.6487,2.6487,2.6487,2.6487,2.6487,2.6487,2.6487,2.6487,2.6399,2.5875,2.5046,2.4092,2.3753,2.3459,2.3133,2.3095,2.3095,2.3095,2.3095,2.3095,2.3095,2.3095,2.2744,2.2071,2.1983,2.1631,2.0928,2.1069,2.1154,2.1194,2.1408,2.1672,2.1958,2.2196,2.2431,2.2744,2.297,2.303,2.283,2.2707,2.2843,2.3311,2.3257,2.335,2.3652,2.3154,2.2424,2.1757,2.1036,2.0615,2.0605,2.0605,2.0615,2.0615,2.0615,2.0605,2.0615,2.0605,2.0439,1.9971,1.9766,1.9492,1.9092,1.8754,1.851,1.834,1.8061,1.8018,1.8008,1.8008,1.8008,1.8008,1.8008,1.8008,1.8008,1.8008,1.7617,1.6938,1.6529,1.5898,1.4798,1.4091,1.342,1.2543,1.2158,1.174,1.131,1.109,1.0996,1.0933,1.0902,1.0902,1.0902,1.0902,1.087,3.54,3.51,3.4152,3.2979,3.1728,3.0859,3.0312,2.9917,2.9453,2.8885,2.8274,2.7564,2.6994,2.6726,2.6555,2.6487,2.6487,2.6487,2.6487,2.6487,2.6487,2.6487,2.6487,2.6487,2.6487,2.6487,2.6487,2.6487,2.6399,2.5724,2.4983,2.4293,2.3916,2.3521,2.3145,2.3095,2.3095,2.3095,2.3095,2.3095,2.3095,2.3095,2.2844,2.2355,2.2322,2.2046,2.1531,2.1631,2.1707,2.1719,2.1857,2.2121,2.2468,2.2518,2.2694,2.3045,2.3095,2.3153,2.3181,2.3324,2.3651,2.4147,2.4348,2.4492,2.4542,2.4129,2.3607,2.3154,2.2069,2.1385,2.0944,2.0954,2.0915,2.0876,2.0799,2.077,2.0693,2.0644,2.0488,2.0146,1.999,1.9697,1.9189,1.8711,1.8286,1.8096,1.8018,1.8008,1.8008,1.8008,1.8008,1.8008,1.8008,1.8008,1.8008,1.8008,1.7584,1.6986,1.6592,1.6167,1.512,1.4575,1.4091,1.3394,1.2956,1.2536,1.2128,1.1849,1.1543,1.138,1.1317,1.1324,1.131,1.131,1.1178,3.5115,3.4384,3.314,3.2527,3.2378,3.1677,3.1234,3.0807,3.0404,2.9842,2.9139,2.813,2.7471,2.7162,2.6748,2.6499,2.6487,2.6487,2.6487,2.6487,2.6487,2.6487,2.6487,2.6487,2.6487,2.6487,2.6487,2.6461,2.6399,2.541,2.4845,2.4675,2.3735,2.317,2.3095,2.3095,2.3095,2.3095,2.3095,2.3095,2.3095,2.3095,2.2844,2.241,2.2334,2.2108,2.1669,2.2008,2.2284,2.2255,2.2694,2.3007,2.3045,2.3045,2.3045,2.3095,2.312,2.3358,2.381,2.3979,2.4373,2.5281,2.5432,2.558,2.5615,2.517,2.4683,2.4348,2.3635,2.2861,2.2042,2.1863,2.1721,2.153,2.1282,2.1128,2.0906,2.0731,2.0605,2.0498,2.0146,1.9563,1.8773,1.8301,1.81,1.8037,1.8008,1.8008,1.8008,1.8008,1.8008,1.8008,1.8008,1.8008,1.8008,1.8008,1.7603,1.7106,1.6733,1.6451,1.5768,1.5098,1.4666,1.4261,1.3812,1.342,1.3039,1.2666,1.2329,1.2088,1.1932,1.1893,1.191,1.1787,1.1663,3.4203,3.3185,3.2721,3.2287,3.1839,3.16,3.138,3.1161,3.0777,3.0313,2.9701,2.8807,2.8208,2.7861,2.739,2.6897,2.6521,2.6487,2.6487,2.6487,2.6487,2.6487,2.6487,2.6487,2.6487,2.6487,2.6487,2.6298,2.5933,2.5485,2.4958,2.4343,2.3873,2.3514,2.317,2.3095,2.3095,2.3095,2.3095,2.3095,2.3095,2.3095,2.2995,2.2832,2.2819,2.2719,2.2531,2.2706,2.2819,2.2807,2.3007,2.3095,2.3095,2.3095,2.3095,2.3133,2.3446,2.3778,2.4042,2.4657,2.5172,2.5548,2.5984,2.6133,2.6035,2.5688,2.5276,2.4969,2.4564,2.4011,2.3694,2.3206,2.2771,2.2446,2.1993,2.1624,2.1272,2.0886,2.0615,2.0546,2.0185,1.9553,1.8831,1.8461,1.8276,1.8066,1.8008,1.8008,1.8008,1.8008,1.8008,1.8008,1.8008,1.8008,1.8008,1.8008,1.7812,1.7432,1.709,1.6843,1.6313,1.5776,1.5305,1.4993,1.4608,1.4335,1.4009,1.367,1.3306,1.3098,1.2916,1.2718,1.2598,1.2582,1.2266,3.3335,3.2527,3.2258,3.1914,3.1525,3.1496,3.1453,3.1336,3.1117,3.0777,3.0297,2.9608,2.9107,2.8725,2.8208,2.7762,2.7297,2.7007,2.6829,2.6829,2.6829,2.6807,2.6773,2.6679,2.6611,2.6555,2.6521,2.6273,2.5921,2.5686,2.5121,2.433,2.4104,2.3715,2.3195,2.3095,2.3095,2.3095,2.3095,2.3095,2.3095,2.3095,2.3095,2.3095,2.3095,2.3095,2.3095,2.3095,2.3095,2.3095,2.3095,2.3095,2.3095,2.3095,2.3195,2.3396,2.3766,2.418,2.4531,2.5197,2.5661,2.5896,2.6248,2.6418,2.6292,2.6037,2.5851,2.5664,2.5476,2.5288,2.5182,2.4767,2.4192,2.35,2.2798,2.2247,2.1835,2.1195,2.073,2.0341,1.9941,1.9385,1.8754,1.85,1.8266,1.8037,1.8008,1.8008,1.8008,1.8008,1.8008,1.8008,1.8008,1.8008,1.8008,1.8008,1.7852,1.749,1.7344,1.7168,1.6902,1.6377,1.6004,1.5676,1.5444,1.5229,1.4993,1.4678,1.4435,1.4226,1.4013,1.3817,1.361,1.3397,1.3091,3.2527,3.2377,3.178,3.1555,3.1496,3.1496,3.1496,3.1467,3.1467,3.1263,3.0881,3.0464,3.0025,2.9701,2.9188,2.8971,2.8762,2.8045,2.7623,2.7543,2.7556,2.7456,2.7323,2.7108,2.6884,2.6658,2.6555,2.6487,2.6399,2.5933,2.5372,2.4763,2.4293,2.3778,2.3108,2.3095,2.3095,2.3095,2.3095,2.3095,2.3095,2.3095,2.3095,2.3095,2.3095,2.3095,2.3095,2.3095,2.3095,2.3095,2.3095,2.3095,2.3095,2.3095,2.3346,2.3841,2.4017,2.4531,2.5372,2.5586,2.5959,2.6285,2.6474,2.6487,2.6452,2.6418,2.6383,2.6349,2.6349,2.6383,2.6349,2.6233,2.5687,2.4479,2.3717,2.3128,2.2505,2.1693,2.0833,2.0094,1.958,1.9131,1.8646,1.8276,1.8076,1.8027,1.8008,1.8008,1.8008,1.8008,1.8008,1.8008,1.8008,1.8008,1.8008,1.7978,1.7754,1.7572,1.749,1.7383,1.7155,1.676,1.6566,1.6336,1.6381,1.6202,1.5985,1.5714,1.556,1.5375,1.5119,1.4881,1.4715,1.4457,1.3961,3.2228,3.1809,3.16,3.1496,3.1496,3.1496,3.1496,3.1496,3.1496,3.1365,3.1146,3.0792,3.0539,3.0312,2.9917,2.9763,2.9732,2.939,2.9044,2.8615,2.8538,2.839,2.8097,2.7683,2.7162,2.6658,2.6521,2.6487,2.6496,2.6298,2.5762,2.4913,2.4657,2.4023,2.317,2.3095,2.3095,2.3095,2.3095,2.3095,2.3095,2.3095,2.3095,2.3095,2.3095,2.3095,2.3095,2.3095,2.3095,2.3095,2.3095,2.3095,2.3095,2.3095,2.3401,2.3954,2.4368,2.4845,2.5511,2.5996,2.6273,2.6449,2.6487,2.6487,2.6487,2.6487,2.6487,2.6487,2.6487,2.6487,2.6487,2.6487,2.6141,2.5465,2.4838,2.4143,2.3302,2.2203,2.0908,1.974,1.9365,1.8984,1.8418,1.8047,1.8057,1.8037,1.8037,1.8037,1.8037,1.8105,1.8008,1.8008,1.8008,1.8066,1.8105,1.8076,1.7891,1.7754,1.7705,1.7666,1.7428,1.7262,1.71,1.7002,1.709,1.7041,1.6852,1.6713,1.6543,1.6397,1.616,1.5956,1.5806,1.5448,1.4951,3.1884,3.1511,3.1496,3.1496,3.1496,3.1496,3.1496,3.1496,3.1496,3.1438,3.1351,3.1161,3.0999,3.0896,3.0717,3.0643,3.0628,3.0643,3.0374,2.9889,2.9532,2.9237,2.8826,2.8228,2.7564,2.6998,2.6863,2.6863,2.6863,2.679,2.6303,2.5443,2.5062,2.4444,2.3502,2.3208,2.3095,2.3095,2.3095,2.3095,2.3095,2.3095,2.3095,2.3095,2.3095,2.3095,2.3095,2.3095,2.3095,2.3095,2.3095,2.3095,2.3095,2.312,2.3459,2.4161,2.4612,2.5134,2.5824,2.6285,2.6487,2.6487,2.6487,2.6487,2.6487,2.6487,2.6487,2.6487,2.6487,2.6487,2.6487,2.6487,2.6349,2.6154,2.5558,2.4791,2.3815,2.2692,2.1507,2.0461,1.9992,1.9425,1.875,1.838,1.8345,1.8277,1.8242,1.835,1.8408,1.8516,1.8467,1.8398,1.8359,1.8325,1.8262,1.8154,1.8027,1.7969,1.7939,1.791,1.7803,1.7695,1.7549,1.7451,1.7471,1.7461,1.7301,1.7384,1.7326,1.7221,1.7016,1.6825,1.6571,1.6329,1.5861,3.1511,3.1496,3.1496,3.1496,3.1496,3.1496,3.1496,3.1496,3.1496,3.1511,3.1467,3.1438,3.1453,3.1467,3.1351,3.1351,3.1467,3.138,3.1351,3.1073,3.0583,2.9993,2.9546,2.8821,2.8208,2.7696,2.761,2.761,2.7643,2.7477,2.6984,2.6199,2.5576,2.4779,2.3985,2.3409,2.3183,2.3108,2.3095,2.3095,2.3095,2.3095,2.3095,2.3095,2.3095,2.3095,2.3095,2.3095,2.3095,2.3095,2.3095,2.3095,2.3108,2.312,2.3728,2.4637,2.48,2.5435,2.621,2.6449,2.6487,2.6487,2.6487,2.6487,2.6487,2.6487,2.6487,2.6487,2.6487,2.6487,2.6487,2.6487,2.6452,2.6418,2.5921,2.4993,2.3655,2.3102,2.2385,2.1539,2.1083,2.0554,1.9504,1.9183,1.8934,1.8639,1.8578,1.8828,1.9004,1.9062,1.9209,1.9072,1.8799,1.8578,1.8506,1.8325,1.8213,1.8008,1.8008,1.8018,1.8008,1.793,1.7891,1.7812,1.7754,1.7754,1.7769,1.7794,1.7828,1.7712,1.7552,1.748,1.7291,1.7019,1.6687,3.1496,3.1496,3.1496,3.1496,3.1496,3.1496,3.1496,3.1496,3.1496,3.1496,3.1496,3.1496,3.1496,3.1496,3.1496,3.1496,3.1496,3.1496,3.1496,3.1482,3.1278,3.0732,3.0162,2.9639,2.9125,2.8666,2.857,2.8602,2.857,2.8325,2.7674,2.6725,2.6298,2.5346,2.4155,2.3897,2.3509,2.3158,2.312,2.3175,2.3175,2.3163,2.3095,2.3095,2.3138,2.3108,2.3108,2.3095,2.3095,2.3095,2.3095,2.3095,2.317,2.3521,2.4104,2.4713,2.5209,2.5674,2.6298,2.6487,2.6487,2.6487,2.6487,2.6487,2.6487,2.6487,2.6487,2.6487,2.6487,2.6487,2.6487,2.6487,2.6487,2.6452,2.6119,2.55,2.4695,2.4156,2.3575,2.2645,2.2161,2.135,2.0397,1.9887,1.9601,1.9041,1.9017,1.9226,1.9504,1.947,1.9539,1.9346,1.9111,1.8906,1.874,1.8549,1.8344,1.8076,1.8018,1.8037,1.8018,1.7978,1.7969,1.7959,1.79,1.7891,1.792,1.7964,1.8008,1.8008,1.792,1.7734,1.7803,1.7648,1.7348,3.1496,3.1496,3.1496,3.1496,3.1496,3.1496,3.1496,3.1496,3.1496,3.1496,3.1496,3.1496,3.1496,3.1496,3.1496,3.1496,3.1496,3.1496,3.1496,3.1496,3.1467,3.1087,3.0554,3.0237,2.9886,2.9532,2.9456,2.9439,2.9407,2.9111,2.8493,2.7776,2.7139,2.625,2.5281,2.4891,2.4661,2.4367,2.429,2.429,2.4259,2.4016,2.3914,2.382,2.3645,2.339,2.3258,2.3168,2.3095,2.3158,2.3321,2.3459,2.354,2.4042,2.4594,2.5109,2.5448,2.5883,2.6348,2.6487,2.6487,2.6487,2.6487,2.6487,2.6487,2.6487,2.6487,2.6487,2.6487,2.6487,2.6487,2.6487,2.6487,2.6465,2.6292,2.5898,2.5324,2.4945,2.4483,2.3811,2.3281,2.2628,2.1309,2.108,2.0524,1.9995,1.9945,2.0065,2.0143,1.9982,1.985,1.9744,1.958,1.9404,1.9219,1.9053,1.8867,1.8545,1.8213,1.8193,1.8076,1.8047,1.8008,1.8008,1.8008,1.8008,1.8008,1.8008,1.8008,1.8008,1.8008,1.8008,1.8008,1.8008,1.7745,3.1496,3.1496,3.1496,3.1496,3.1496,3.1496,3.1496,3.1496,3.1496,3.1496,3.1496,3.1496,3.1496,3.1496,3.1496,3.1496,3.1496,3.1496,3.1496,3.1496,3.1467,3.1248,3.0925,3.0762,3.0553,3.0297,3.0237,3.0267,3.0206,2.9917,2.9484,2.8896,2.8165,2.7449,2.6794,2.6351,2.6139,2.5946,2.5884,2.5871,2.5818,2.5484,2.5233,2.4962,2.4216,2.3772,2.3467,2.3271,2.3133,2.3221,2.374,2.3954,2.4092,2.4575,2.5071,2.5485,2.5686,2.6021,2.6373,2.6487,2.6487,2.6487,2.6487,2.6487,2.6487,2.6487,2.6487,2.6487,2.6487,2.6487,2.6487,2.6487,2.6487,2.6499,2.6452,2.6223,2.5828,2.5535,2.53,2.4933,2.4612,2.389,2.3071,2.2471,2.2013,2.1309,2.1173,2.1116,2.1019,2.0795,2.0607,2.0351,2.0146,1.9941,1.9746,1.9551,1.9355,1.9092,1.8652,1.8412,1.8223,1.8144,1.8047,1.8008,1.8008,1.8008,1.8008,1.8008,1.8008,1.8008,1.8008,1.8008,1.8008,1.8008,1.7857,3.1496,3.1496,3.1496,3.1496,3.1496,3.1496,3.1496,3.1496,3.1496,3.1496,3.1496,3.1496,3.1496,3.1496,3.1496,3.1496,3.1496,3.1496,3.1496,3.1496,3.1496,3.1467,3.1336,3.1263,3.1219,3.1131,3.1176,3.1161,3.1073,3.0762,3.0464,2.9922,2.9395,2.8819,2.7975,2.7773,2.7437,2.7111,2.7042,2.7081,2.7081,2.6916,2.6558,2.6074,2.4954,2.4168,2.3708,2.3335,2.3333,2.3728,2.401,2.4375,2.4657,2.5146,2.5498,2.5686,2.6072,2.6348,2.6461,2.6487,2.6487,2.6487,2.6487,2.6487,2.6487,2.6487,2.6487,2.6487,2.6487,2.6487,2.6487,2.6487,2.6487,2.6487,2.6487,2.6465,2.6314,2.6245,2.6094,2.599,2.5652,2.5142,2.4095,2.3906,2.3408,2.275,2.24,2.2238,2.1931,2.1624,2.1252,2.0944,2.0729,2.0529,2.0361,2.0183,2.0051,1.9852,1.9419,1.8883,1.8656,1.838,1.836,1.8178,1.8008,1.8008,1.8008,1.8008,1.8008,1.8008,1.8008,1.8008,1.8008,1.8008,1.8008,3.1496,3.1496,3.1496,3.1496,3.1496,3.1496,3.1496,3.1496,3.1496,3.1496,3.1496,3.1496,3.1496,3.1496,3.1496,3.1496,3.1496,3.1496,3.1496,3.1496,3.1496,3.1496,3.1496,3.1496,3.1496,3.1496,3.1467,3.1496,3.1438,3.1263,3.0896,3.0554,3.0297,2.9791,2.9188,2.9087,2.8961,2.8736,2.8625,2.8625,2.8611,2.8315,2.7789,2.711,2.6115,2.5467,2.5167,2.4684,2.4792,2.5102,2.5256,2.5179,2.5229,2.572,2.5996,2.6109,2.6273,2.6487,2.6487,2.6487,2.6487,2.6487,2.6487,2.6487,2.6487,2.6487,2.6487,2.6487,2.6487,2.6487,2.6487,2.6487,2.6487,2.6487,2.6499,2.6499,2.6487,2.6487,2.6487,2.6452,2.6141,2.5658,2.5177,2.4933,2.4601,2.3857,2.3462,2.3272,2.2713,2.2354,2.1835,2.153,2.1339,2.1113,2.0971,2.0858,2.0764,2.0626,2.0388,1.9824,1.9387,1.9047,1.8708,1.8452,1.8144,1.8008,1.8008,1.8008,1.8042,1.8008,1.8008,1.8008,1.8008,1.8008,1.8008,3.164,3.164,3.164,3.164,3.164,3.1668,3.1668,3.1611,3.1582,3.1597,3.1539,3.1496,3.1496,3.1496,3.1496,3.1496,3.1496,3.1496,3.1496,3.1496,3.1496,3.1496,3.1496,3.1496,3.1496,3.1496,3.1496,3.1496,3.1467,3.138,3.1175,3.0911,3.0807,3.0569,3.0329,3.0283,3.0242,3.0156,3.0141,3.017,3.0156,2.9752,2.9145,2.831,2.752,2.7026,2.6641,2.63,2.6325,2.6884,2.695,2.6622,2.6411,2.6316,2.6658,2.6633,2.6714,2.6726,2.6726,2.6658,2.6589,2.6568,2.6499,2.6487,2.6487,2.6625,2.67,2.6738,2.6788,2.6901,2.6751,2.6889,2.6864,2.6788,2.6738,2.6625,2.66,2.6562,2.6487,2.6465,2.6361,2.602,2.5812,2.5569,2.53,2.5016,2.4659,2.4227,2.3655,2.3176,2.2718,2.2381,2.222,2.2172,2.2045,2.1982,2.1829,2.1692,2.1471,2.1018,2.0439,2.0091,1.9714,1.867,1.8313,1.8269,1.8212,1.8212,1.8178,1.8076,1.8008,1.8008,1.8008,1.8008,1.8008,3.2259,3.2259,3.2259,3.2259,3.2259,3.2259,3.2203,3.2094,3.1981,3.187,3.1727,3.1583,3.1496,3.1496,3.1496,3.1496,3.1496,3.1496,3.1496,3.1496,3.1496,3.1496,3.1496,3.1496,3.1496,3.1496,3.1496,3.1496,3.1496,3.1482,3.138,3.1351,3.1322,3.1234,3.1176,3.1263,3.1131,3.1073,3.1102,3.1102,3.1072,3.0925,3.0513,2.9594,2.8757,2.821,2.7805,2.7381,2.7336,2.7882,2.7951,2.8115,2.8098,2.7716,2.7477,2.739,2.739,2.7343,2.7222,2.7019,2.685,2.6679,2.6555,2.6524,2.6612,2.6901,2.7077,2.7256,2.7507,2.777,2.7821,2.767,2.7783,2.7708,2.7406,2.7165,2.7065,2.6839,2.6537,2.6512,2.643,2.6396,2.6211,2.6107,2.5955,2.5699,2.5453,2.5052,2.4587,2.4179,2.3841,2.35,2.3268,2.3268,2.3235,2.3176,2.3084,2.2985,2.2775,2.2557,2.2016,2.1485,2.0796,2.0064,1.9287,1.8965,1.8798,1.8607,1.8414,1.8337,1.8212,1.8018,1.8008,1.8008,1.8008,3.3013,3.2997,3.3013,3.3013,3.3013,3.3013,3.2895,3.268,3.2453,3.2206,3.1968,3.1683,3.1496,3.1496,3.1496,3.1496,3.1496,3.1496,3.1496,3.1496,3.1496,3.1496,3.1496,3.1496,3.1496,3.1496,3.1496,3.1496,3.1496,3.1496,3.1496,3.1496,3.1496,3.1496,3.1496,3.1467,3.1496,3.1496,3.1496,3.1496,3.1496,3.1496,3.1156,3.0672,3.006,2.9595,2.9317,2.8977,2.8894,2.9132,2.9174,2.9327,2.9369,2.9198,2.8688,2.8444,2.8274,2.813,2.7881,2.7617,2.725,2.696,2.6705,2.6684,2.6876,2.7178,2.748,2.7756,2.7858,2.8109,2.8072,2.816,2.8109,2.8072,2.7858,2.7607,2.7331,2.709,2.6864,2.665,2.6553,2.654,2.6452,2.6418,2.6452,2.6349,2.6188,2.5828,2.5382,2.5075,2.4707,2.4492,2.4228,2.4217,2.4217,2.4217,2.4217,2.4136,2.4044,2.3826,2.3514,2.297,2.2454,2.1823,2.103,2.0205,1.9495,1.9308,1.8975,1.8637,1.8417,1.8242,1.8071,1.8008,1.8105,3.3777,3.3793,3.3793,3.3777,3.3777,3.3751,3.3614,3.3329,3.2938,3.2629,3.2315,3.191,3.171,3.1682,3.1668,3.164,3.1582,3.1582,3.1524,3.1496,3.1496,3.1496,3.1496,3.1496,3.1496,3.1496,3.1496,3.1496,3.1496,3.1496,3.1496,3.1496,3.1496,3.1496,3.1496,3.1496,3.1496,3.1496,3.1496,3.1496,3.1496,3.1496,3.1438,3.1336,3.1073,3.0837,3.0616,3.0409,3.0304,3.0404,3.0519,3.0605,3.0619,3.072,3.0518,2.9981,2.9516,2.9062,2.8725,2.8429,2.8113,2.7792,2.734,2.7392,2.7627,2.8015,2.8113,2.8432,2.856,2.8598,2.8624,2.8499,2.8511,2.8486,2.8398,2.8134,2.7833,2.757,2.7331,2.7128,2.6864,2.67,2.665,2.6487,2.6487,2.6499,2.6327,2.6245,2.5886,2.5769,2.5511,2.53,2.5146,2.5134,2.5134,2.517,2.5205,2.5181,2.5133,2.5024,2.4749,2.4391,2.3909,2.3416,2.2775,2.1906,2.097,2.0085,1.9806,1.9432,1.8859,1.862,1.8763,1.8678,1.8648,3.4382,3.4423,3.4382,3.4382,3.4391,3.4391,3.4259,3.3942,3.3517,3.3177,3.2922,3.2504,3.2315,3.2272,3.2176,3.2094,3.1968,3.1826,3.1655,3.1524,3.1496,3.1496,3.1496,3.1496,3.1496,3.1496,3.1496,3.1496,3.1496,3.1496,3.1496,3.1496,3.1496,3.1496,3.1496,3.1496,3.1496,3.1496,3.1496,3.1496,3.1496,3.1496,3.1467,3.1438,3.1409,3.1336,3.1292,3.119,3.122,3.1353,3.1857,3.2139,3.2303,3.2794,3.3048,3.2399,3.1308,2.9853,2.968,2.9569,2.9405,2.9134,2.8918,2.8974,2.9161,2.9359,2.9654,3.0049,2.9923,2.9618,2.9416,2.949,2.9541,2.9327,2.9038,2.8837,2.8574,2.8122,2.7883,2.7708,2.7482,2.7102,2.6851,2.665,2.6487,2.6499,2.6465,2.6408,2.6314,2.6164,2.6094,2.5873,2.5804,2.5791,2.5756,2.5826,2.5898,2.6002,2.5978,2.5975,2.5674,2.5372,2.5379,2.4879,2.4218,2.3482,2.2505,2.1641,2.0963,2.0491,2.0215,1.993,1.9679,1.9552,1.9483,3.5125,3.5125,3.5125,3.5125,3.5125,3.5125,3.5001,3.4699,3.4284,3.3928,3.364,3.3277,3.3093,3.3071,3.2868,3.2629,3.2342,3.2107,3.1811,3.1553,3.1524,3.1524,3.1496,3.1496,3.1496,3.1524,3.1496,3.1496,3.1496,3.1496,3.1496,3.1496,3.1496,3.1496,3.1496,3.1496,3.1496,3.1496,3.1496,3.1496,3.1496,3.1496,3.1496,3.1496,3.1496,3.1496,3.1511,3.1496,3.172,3.1959,3.2407,3.2706,3.3006,3.332,3.3484,3.3363,3.2656,3.1933,3.1592,3.1272,3.0923,3.0632,3.0446,3.0378,3.068,3.0887,3.0913,3.0818,3.0545,3.0241,2.9934,2.9779,2.9779,2.9679,2.9605,2.9315,2.9089,2.8787,2.8436,2.8298,2.8122,2.7855,2.7551,2.7264,2.7112,2.6964,2.6826,2.6628,2.6506,2.6383,2.6383,2.6383,2.6349,2.6336,2.6302,2.6267,2.6285,2.6355,2.6317,2.6327,2.6346,2.6226,2.6072,2.5875,2.5286,2.4541,2.3854,2.3117,2.2329,2.1981,2.1695,2.141,2.1125,2.1096,2.0841,3.5616,3.5616,3.5616,3.5616,3.5616,3.5616,3.5503,3.5314,3.5112,3.4864,3.4595,3.4286,3.4117,3.396,3.3664,3.3203,3.2788,3.252,3.2163,3.1853,3.171,3.1768,3.1768,3.1754,3.1668,3.1626,3.1597,3.1568,3.1496,3.1496,3.1496,3.1496,3.1496,3.1496,3.1496,3.1496,3.1496,3.1496,3.1496,3.1496,3.1496,3.1496,3.1496,3.1496,3.1496,3.1496,3.1525,3.175,3.2093,3.2333,3.2961,3.338,3.3709,3.4038,3.4173,3.4188,3.3883,3.3806,3.3387,3.2961,3.2493,3.2154,3.1994,3.1942,3.218,3.2392,3.216,3.1563,3.1156,3.0709,3.0267,3.0126,3.0203,3.0241,3.0152,2.9809,2.958,2.9553,2.9539,2.9525,2.9347,2.9035,2.8643,2.8129,2.7816,2.7517,2.7228,2.6914,2.6826,2.6788,2.6876,2.6977,2.7077,2.709,2.7052,2.6977,2.6901,2.6776,2.6738,2.67,2.6738,2.6587,2.6361,2.6197,2.6,2.5752,2.5108,2.4408,2.375,2.3359,2.3018,2.2845,2.265,2.2571,2.2093,3.5616,3.5616,3.5616,3.5616,3.5616,3.5616,3.5549,3.562,3.5923,3.5972,3.5852,3.5613,3.5472,3.5233,3.4551,3.3905,3.3345,3.3082,3.2749,3.2492,3.2342,3.2382,3.2327,3.2259,3.2079,3.1968,3.1855,3.1683,3.1539,3.1496,3.1496,3.1496,3.1496,3.1496,3.163,3.178,3.1809,3.1809,3.1795,3.175,3.172,3.169,3.166,3.1585,3.154,3.1511,3.154,3.2034,3.2557,3.2751,3.3559,3.4173,3.4427,3.4801,3.4996,3.5011,3.5026,3.4978,3.4711,3.4142,3.3612,3.3434,3.3418,3.3479,3.3573,3.3338,3.296,3.2448,3.2037,3.1539,3.1172,3.0949,3.0998,3.0985,3.1022,3.0944,3.0799,3.0826,3.0799,3.0755,3.0538,3.0167,2.9779,2.9257,2.8482,2.817,2.7783,2.7469,2.7482,2.7469,2.7557,2.7682,2.7833,2.7896,2.7921,2.7795,2.7544,2.7394,2.7379,2.7253,2.7165,2.6952,2.6688,2.6436,2.6285,2.6348,2.6314,2.5422,2.4791,2.4556,2.4339,2.4234,2.3977,2.3733,2.3075,3.5616,3.5616,3.5616,3.5616,3.5616,3.5616,3.587,3.628,3.6514,3.6831,3.7179,3.7032,3.6774,3.626,3.58,3.5005,3.4218,3.3869,3.3543,3.3266,3.3145,3.3145,3.3066,3.2911,3.2652,3.2398,3.2178,3.1826,3.1524,3.1702,3.1511,3.1496,3.1673,3.1809,3.2004,3.2392,3.2632,3.2677,3.2706,3.2736,3.2736,3.2706,3.2557,3.2123,3.2108,3.2108,3.2153,3.2348,3.2946,3.3635,3.4234,3.4653,3.4981,3.5355,3.5474,3.5489,3.5489,3.5489,3.5489,3.5041,3.4792,3.4774,3.4787,3.4773,3.4673,3.4486,3.4002,3.3506,3.3017,3.2555,3.211,3.2001,3.1988,3.2001,3.1965,3.1942,3.1942,3.1942,3.1905,3.1829,3.1586,3.1272,3.085,3.0374,2.9552,2.8774,2.841,2.8134,2.8147,2.8084,2.8134,2.8235,2.8386,2.8348,2.8348,2.826,2.816,2.8084,2.7996,2.7783,2.7595,2.7291,2.7027,2.6763,2.6524,2.6512,2.6368,2.6127,2.5809,2.5507,2.5568,2.5711,2.5391,2.4897,2.4174,3.5616,3.5616,3.5616,3.5616,3.5633,3.5853,3.6265,3.6812,3.7297,3.7855,3.8514,3.8328,3.7821,3.7199,3.6579,3.5993,3.5224,3.4874,3.4715,3.4545,3.4417,3.4233,3.4034,3.3674,3.324,3.2931,3.2853,3.2612,3.2246,3.2309,3.2549,3.2579,3.2328,3.2584,3.2482,3.314,3.3514,3.3499,3.3499,3.3499,3.3455,3.3425,3.3305,3.2766,3.2572,3.2632,3.2721,3.2946,3.3395,3.4083,3.4713,3.5026,3.531,3.5489,3.5489,3.5489,3.5489,3.5489,3.5489,3.5489,3.5489,3.5332,3.5379,3.5392,3.5424,3.518,3.4606,3.4192,3.3851,3.3555,3.301,3.2918,3.2918,3.2883,3.2883,3.2897,3.2883,3.2883,3.2883,3.2869,3.2563,3.2196,3.1563,3.1029,3.025,2.9415,2.8825,2.8687,2.885,2.875,2.8599,2.8699,2.885,2.8762,2.8662,2.8775,2.8888,2.8825,2.8674,2.831,2.8059,2.772,2.7379,2.7052,2.6839,2.6675,2.6502,2.6296,2.6343,2.638,2.6358,2.6242,2.6136,2.5603,2.5324,3.5616,3.5616,3.5616,3.5616,3.5684,3.6417,3.6812,3.7202,3.8319,3.9182,3.9622,3.9199,3.8497,3.7797,3.7104,3.6609,3.615,3.599,3.61,3.6205,3.5851,3.562,3.5307,3.4845,3.4378,3.3709,3.3851,3.3944,3.3486,3.3911,3.4191,3.4198,3.3959,3.3561,3.2721,3.3215,3.3529,3.3544,3.3649,3.3724,3.3769,3.3799,3.3724,3.341,3.3095,3.3125,3.338,3.3484,3.3918,3.4562,3.5085,3.5355,3.5459,3.5489,3.5489,3.5489,3.5489,3.5489,3.5489,3.5489,3.5489,3.5489,3.5489,3.5489,3.5457,3.5279,3.5067,3.4677,3.4471,3.4235,3.3934,3.3782,3.3817,3.3851,3.3851,3.3885,3.3885,3.3885,3.3919,3.3871,3.3485,3.3058,3.2331,3.164,3.0872,3.0074,2.9341,2.9214,2.9505,2.9429,2.924,2.9202,2.9328,2.9264,2.9239,2.9503,2.9603,2.9541,2.9302,2.89,2.8574,2.8285,2.7871,2.7406,2.7105,2.6964,2.6725,2.6499,2.6499,2.6487,2.6487,2.6405,2.6418,2.6336,2.5926,3.5616,3.5616,3.5616,3.5616,3.5718,3.6451,3.732,3.8311,3.9249,3.9622,3.9462,3.9537,3.8988,3.822,3.8051,3.759,3.6811,3.7225,3.7449,3.7434,3.7192,3.7174,3.6892,3.6439,3.5967,3.5761,3.571,3.5428,3.5047,3.5403,3.5383,3.5315,3.5258,3.4712,3.4332,3.4521,3.4846,3.4846,3.4861,3.4846,3.4816,3.4756,3.4577,3.4158,3.3858,3.3858,3.4113,3.4128,3.4397,3.4966,3.5444,3.5474,3.5489,3.5489,3.5489,3.5489,3.5489,3.5489,3.5489,3.5489,3.5489,3.5519,3.5564,3.5579,3.5487,3.5424,3.5311,3.5273,3.5244,3.5064,3.4968,3.4964,3.4964,3.4935,3.4968,3.4968,3.4968,3.4968,3.4968,3.4854,3.4587,3.3894,3.3185,3.2555,3.1833,3.1455,3.0829,3.0285,3.0378,3.0189,2.9961,2.977,2.9782,2.9742,2.9779,2.9779,2.9779,2.9679,2.9553,2.9352,2.9063,2.8812,2.8423,2.7959,2.757,2.7241,2.7002,2.6776,2.6562,2.6487,2.6487,2.6487,2.6452,2.6452,2.6358,3.5616,3.5616,3.5616,3.5769,3.6113,3.6857,3.8007,3.9292,3.9893,3.9825,3.9588,3.9893,3.9469,3.8717,3.8633,3.8684,3.7642,3.8007,3.8582,3.8548,3.8362,3.8246,3.8106,3.7823,3.7095,3.7069,3.7054,3.6822,3.6492,3.6718,3.683,3.6714,3.6406,3.6066,3.5707,3.5622,3.54,3.5355,3.531,3.5355,3.537,3.5355,3.522,3.4861,3.4622,3.4578,3.4681,3.4756,3.4818,3.5312,3.5522,3.5489,3.5489,3.5489,3.5489,3.5489,3.5489,3.5489,3.5489,3.5833,3.5893,3.5923,3.5848,3.5968,3.6088,3.6264,3.6249,3.6219,3.6103,3.6085,3.6085,3.6088,3.604,3.604,3.6055,3.6052,3.6066,3.603,3.5896,3.5788,3.5462,3.4757,3.404,3.3506,3.2883,3.2648,3.242,3.1882,3.1283,3.091,3.0608,3.0355,3.0075,2.9895,2.983,2.9779,2.9779,2.9779,2.9768,2.9693,2.9528,2.9264,2.8888,2.8549,2.8284,2.7907,2.7379,2.7065,2.6864,2.665,2.6487,2.6487,2.6487,2.6487,2.6487,3.5616,3.5616,3.5616,3.6028,3.6755,3.7449,3.865,3.9943,4.0079,4.0062,4.0011,3.9994,3.9605,3.9073,3.9022,3.8954,3.887,3.8937,3.9351,3.9605,3.9266,3.9106,3.8811,3.8376,3.8119,3.787,3.7876,3.8129,3.7863,3.8229,3.8428,3.82,3.7709,3.734,3.6886,3.6399,3.5941,3.5797,3.5716,3.5748,3.5748,3.5651,3.5655,3.5399,3.5189,3.5204,3.5249,3.5187,3.52,3.5441,3.5587,3.5569,3.5537,3.5537,3.5522,3.5489,3.5489,3.5489,3.5579,3.5998,3.6432,3.6477,3.6611,3.6911,3.7045,3.7011,3.6971,3.7,3.6971,3.7135,3.7225,3.718,3.712,3.7101,3.7101,3.7116,3.7131,3.7056,3.6862,3.6619,3.6235,3.5628,3.4893,3.4311,3.4,3.3885,3.3644,3.3283,3.2591,3.1589,3.1244,3.0771,3.047,3.0062,2.9985,3.0113,3.0126,3.0228,3.0126,3.0088,2.9884,2.9884,2.9682,2.944,2.9088,2.8598,2.7976,2.7511,2.7213,2.6952,2.6751,2.6562,2.6575,2.6499,2.6487,3.5616,3.5616,3.5616,3.5718,3.6129,3.7364,3.8176,3.8616,3.9554,3.9842,3.9343,3.9876,3.9706,3.9056,3.9537,3.9419,3.9402,3.9495,3.98,3.991,3.9825,3.9791,3.9648,3.942,3.9311,3.9278,3.9337,3.9302,3.9369,3.9713,3.953,3.9242,3.8668,3.8362,3.7921,3.7442,3.686,3.6414,3.6289,3.6226,3.6226,3.6226,3.6226,3.6104,3.6043,3.6074,3.6059,3.6027,3.6058,3.615,3.621,3.6178,3.6005,3.5925,3.5797,3.5522,3.5489,3.5504,3.5624,3.6133,3.6656,3.7135,3.7494,3.7509,3.7554,3.7524,3.7554,3.7659,3.7704,3.7778,3.7744,3.7729,3.7764,3.7764,3.7764,3.7778,3.7778,3.7719,3.7524,3.7221,3.6869,3.6414,3.5695,3.5366,3.511,3.5038,3.4835,3.4467,3.3851,3.2777,3.2037,3.1599,3.1132,3.0797,3.071,3.0823,3.071,3.0685,3.0672,3.0697,3.0709,3.067,3.0556,3.0363,3.0091,2.9378,2.8507,2.8142,2.7957,2.7402,2.714,2.6864,2.665,2.66,2.6587,3.5616,3.5616,3.5616,3.5616,3.5853,3.7246,3.7898,3.8176,3.9445,3.9825,3.952,3.9926,3.9859,3.9588,3.9859,3.9876,3.9546,3.9825,4.0079,4.0079,4.0113,4.0062,4.0096,4.0113,3.9986,4.0113,4.0113,3.9919,4.0113,4.0087,3.9961,3.9729,3.9279,3.9022,3.8668,3.8294,3.794,3.7519,3.7222,3.7058,3.6997,3.6982,3.7028,3.6997,3.6997,3.6997,3.6982,3.6982,3.7012,3.7012,3.7028,3.6891,3.6616,3.6352,3.5893,3.5587,3.5489,3.5489,3.5639,3.6417,3.6941,3.7524,3.8277,3.8497,3.8437,3.8372,3.8342,3.8342,3.8317,3.8272,3.8207,3.8192,3.8242,3.8257,3.8257,3.8257,3.8257,3.8257,3.8033,3.7764,3.7419,3.7045,3.6653,3.6372,3.61,3.5911,3.5647,3.5348,3.467,3.3734,3.3108,3.2613,3.211,3.1686,3.1626,3.1603,3.1626,3.1649,3.1673,3.1673,3.1626,3.1613,3.1596,3.1429,3.1163,3.0378,2.9617,2.9143,2.8784,2.8185,2.7715,2.7553,2.7213,2.6751,2.6763,3.5616,3.5616,3.5616,3.5616,3.5819,3.7246,3.7898,3.8091,3.9469,4.0096,4.0079,4.0096,4.0079,3.996,4.0079,4.0096,3.9943,4.0062,4.0113,4.0113,4.0113,4.0113,4.0113,4.0113,4.0113,4.0113,4.0113,4.0113,4.0113,4.0087,4.0037,3.9901,3.9644,3.9401,3.9286,3.9098,3.8838,3.8701,3.8322,3.808,3.7895,3.7851,3.7879,3.7851,3.7867,3.7867,3.7867,3.7879,3.7879,3.7879,3.7822,3.7706,3.7221,3.6769,3.6179,3.598,3.5959,3.611,3.6459,3.7213,3.7583,3.8116,3.8717,3.9178,3.9243,3.9041,3.8945,3.891,3.885,3.885,3.8835,3.882,3.8835,3.8835,3.8835,3.8835,3.8835,3.8841,3.8721,3.8392,3.7943,3.7599,3.7419,3.7105,3.6731,3.6596,3.6312,3.5989,3.5518,3.4622,3.4051,3.3555,3.3038,3.2599,3.2613,3.2613,3.2621,3.2642,3.2642,3.2621,3.2563,3.2635,3.2678,3.2445,3.2162,3.1582,3.0899,3.0431,2.9772,2.8886,2.8488,2.8342,2.7988,2.7563,2.7072,3.5616,3.5616,3.5616,3.5616,3.5802,3.7239,3.7898,3.8058,3.9469,4.0096,4.0113,4.0113,4.0113,4.0113,4.0113,4.0113,4.0113,4.0113,4.0113,4.0113,4.0113,4.0113,4.0113,4.0113,4.0113,4.0113,4.0113,4.0113,4.0113,4.0113,4.0087,4.0062,3.9893,3.9825,3.9816,3.967,3.9661,3.9726,3.9561,3.9166,3.8874,3.866,3.8551,3.8628,3.8676,3.877,3.877,3.8693,3.8628,3.8551,3.8551,3.8197,3.756,3.7193,3.7033,3.6997,3.7025,3.7287,3.7747,3.8343,3.8803,3.9084,3.9566,3.9753,3.9788,3.9553,3.9409,3.9424,3.9388,3.9388,3.9388,3.9388,3.9388,3.9388,3.9388,3.9388,3.9388,3.9328,3.9305,3.8945,3.8482,3.8272,3.8093,3.7823,3.7434,3.7045,3.6641,3.6342,3.61,3.5466,3.4823,3.4312,3.3865,3.3526,3.3561,3.3596,3.363,3.3581,3.3547,3.3547,3.3512,3.3596,3.363,3.3437,3.3122,3.2596,3.2129,3.168,3.0927,3.0006,2.9681,2.9741,2.9587,2.9203,2.8277,3.5616,3.5616,3.5616,3.5616,3.5887,3.7246,3.7898,3.8176,3.9486,4.0113,4.0113,4.0113,4.0113,4.0113,4.0113,4.0113,4.0113,4.0113,4.0113,4.0113,4.0113,4.0113,4.0113,4.0113,4.0113,4.0113,4.0113,4.0113,4.0113,4.0113,4.0113,4.0113,4.0113,4.0113,4.0113,4.013,4.0316,4.0569,4.0561,4.0428,4.0093,4.0026,4.012,4.018,4.033,4.0286,4.0363,4.0363,4.0363,4.0159,4.0038,3.9112,3.859,3.8332,3.8241,3.8242,3.8418,3.8748,3.9235,3.972,4.0175,4.0327,4.0502,4.0755,4.0305,4.0025,3.961,3.9589,3.9424,3.9388,3.9388,3.9388,3.9388,3.9388,3.9388,3.9388,3.9388,3.9373,3.9343,3.9224,3.8975,3.8931,3.8796,3.8781,3.8362,3.7868,3.7404,3.6855,3.6567,3.6178,3.5566,3.5053,3.4563,3.4505,3.4606,3.4639,3.4639,3.4572,3.4423,3.4524,3.4524,3.4572,3.4553,3.4337,3.4085,3.3768,3.3283,3.2769,3.2299,3.1496,3.1272,3.1249,3.1039,3.0829,3.025,3.5769,3.5735,3.5633,3.5667,3.5955,3.7297,3.799,3.8294,3.9478,4.0113,4.0113,4.0113,4.0113,4.0113,4.0113,4.0113,4.0113,4.0113,4.0113,4.0113,4.0113,4.0113,4.0113,4.0113,4.0113,4.0113,4.0113,4.0113,4.0113,4.0113,4.0113,4.0113,4.013,4.0163,4.0214,4.0333,4.0595,4.1153,4.1441,4.1762,4.1786,4.1745,4.1683,4.198,4.2303,4.2303,4.2286,4.2269,4.2252,4.1916,4.1282,4.0463,3.9853,3.9666,3.9661,3.9677,3.9911,4.0246,4.0614,4.1066,4.1259,4.1389,4.1565,4.1379,4.0927,4.0531,4.0111,3.9788,3.9625,3.946,3.946,3.9424,3.9424,3.9424,3.9424,3.9424,3.9424,3.9424,3.9424,3.9424,3.9394,3.9364,3.9364,3.9364,3.911,3.8682,3.8202,3.7648,3.7109,3.6582,3.603,3.5651,3.5263,3.5302,3.5407,3.5279,3.5148,3.518,3.5034,3.5311,3.5424,3.518,3.5115,3.5228,3.4935,3.4471,3.4153,3.3659,3.3192,3.275,3.2589,3.24,3.2435,3.2269,3.2284,3.6569,3.6518,3.591,3.5977,3.6637,3.755,3.8244,3.887,3.969,4.0113,4.0113,4.0113,4.0113,4.0113,4.0113,4.0113,4.0113,4.0113,4.0113,4.0113,4.0113,4.0113,4.0113,4.0113,4.0113,4.0113,4.0113,4.0113,4.0163,4.0146,4.013,4.018,4.0214,4.0468,4.0984,4.1102,4.1322,4.1847,4.2185,4.2455,4.2777,4.2625,4.2219,4.2269,4.2303,4.2303,4.2286,4.2286,4.2286,4.2182,4.2025,4.1546,4.1238,4.1022,4.1099,4.1267,4.1511,4.1858,4.2217,4.2463,4.2594,4.2582,4.2599,4.2205,4.1754,4.1343,4.0888,4.0389,4.0126,3.9681,3.961,3.9553,3.9568,3.9568,3.9568,3.9568,3.9568,3.9568,3.9568,3.9568,3.9553,3.9538,3.9538,3.9538,3.9523,3.9118,3.8767,3.8242,3.7878,3.7229,3.6552,3.6237,3.5938,3.5609,3.5472,3.5457,3.5392,3.5457,3.5489,3.5489,3.5489,3.5489,3.5472,3.5472,3.5311,3.492,3.4606,3.4404,3.4104,3.3705,3.3581,3.3498,3.361,3.3602,3.3528]}]]